<?xml version='1.0' encoding='UTF-8'?>
<gpx version="1.1" creator="https://www.komoot.de" xmlns="http://www.topografix.com/GPX/1/1" xmlns:xsi="http://www.w3.org/2001/XMLSchema-instance" xsi:schemaLocation="http://www.topografix.com/GPX/1/1 http://www.topografix.com/GPX/1/1/gpx.xsd">
  <metadata>
    <name>101_850HundertRemigen</name>
    <author>
      <link href="https://www.komoot.de">
        <text>komoot</text>
        <type>text/html</type>
      </link>
    </author>
  </metadata>
  <trk>
    <name>101_850HundertRemigen</name>
    <trkseg>
      <trkpt lat="47.541453" lon="7.870758">
        <ele>341.614475</ele>
        <time>2021-11-22T12:13:04.839Z</time>
      </trkpt>
      <trkpt lat="47.541453" lon="7.870758">
        <ele>341.614475</ele>
        <time>2021-11-22T12:13:04.848Z</time>
      </trkpt>
      <trkpt lat="47.541453" lon="7.870758">
        <ele>341.614475</ele>
        <time>2021-11-22T12:13:04.848Z</time>
      </trkpt>
      <trkpt lat="47.542039" lon="7.871556">
        <ele>341.614475</ele>
        <time>2021-11-22T12:13:19.597Z</time>
      </trkpt>
      <trkpt lat="47.542067" lon="7.871664">
        <ele>341.614475</ele>
        <time>2021-11-22T12:13:21.251Z</time>
      </trkpt>
      <trkpt lat="47.542091" lon="7.871721">
        <ele>341.697317</ele>
        <time>2021-11-22T12:13:21.866Z</time>
      </trkpt>
      <trkpt lat="47.542218" lon="7.871866">
        <ele>342.357996</ele>
        <time>2021-11-22T12:13:27.139Z</time>
      </trkpt>
      <trkpt lat="47.542394" lon="7.872341">
        <ele>343.865133</ele>
        <time>2021-11-22T12:13:37.451Z</time>
      </trkpt>
      <trkpt lat="47.542436" lon="7.872494">
        <ele>344.324537</ele>
        <time>2021-11-22T12:13:40.732Z</time>
      </trkpt>
      <trkpt lat="47.542537" lon="7.872430">
        <ele>344.777173</ele>
        <time>2021-11-22T12:13:42.821Z</time>
      </trkpt>
      <trkpt lat="47.542714" lon="7.872334">
        <ele>345.553830</ele>
        <time>2021-11-22T12:13:49.502Z</time>
      </trkpt>
      <trkpt lat="47.542814" lon="7.872280">
        <ele>345.992392</ele>
        <time>2021-11-22T12:13:52.461Z</time>
      </trkpt>
      <trkpt lat="47.542919" lon="7.872226">
        <ele>346.450365</ele>
        <time>2021-11-22T12:13:56.246Z</time>
      </trkpt>
      <trkpt lat="47.543013" lon="7.872182">
        <ele>346.856558</ele>
        <time>2021-11-22T12:13:59.610Z</time>
      </trkpt>
      <trkpt lat="47.543233" lon="7.872082">
        <ele>347.804761</ele>
        <time>2021-11-22T12:14:06.729Z</time>
      </trkpt>
      <trkpt lat="47.543251" lon="7.872152">
        <ele>348.013108</ele>
        <time>2021-11-22T12:14:10.102Z</time>
      </trkpt>
      <trkpt lat="47.543332" lon="7.872237">
        <ele>348.422113</ele>
        <time>2021-11-22T12:14:13.407Z</time>
      </trkpt>
      <trkpt lat="47.544390" lon="7.872423">
        <ele>355.046153</ele>
        <time>2021-11-22T12:14:55.127Z</time>
      </trkpt>
      <trkpt lat="47.544883" lon="7.872555">
        <ele>358.328367</ele>
        <time>2021-11-22T12:15:17.536Z</time>
      </trkpt>
      <trkpt lat="47.545131" lon="7.872664">
        <ele>360.023133</ele>
        <time>2021-11-22T12:15:28.540Z</time>
      </trkpt>
      <trkpt lat="47.545375" lon="7.872836">
        <ele>361.767973</ele>
        <time>2021-11-22T12:15:39.481Z</time>
      </trkpt>
      <trkpt lat="47.545478" lon="7.872968">
        <ele>362.637136</ele>
        <time>2021-11-22T12:15:46.288Z</time>
      </trkpt>
      <trkpt lat="47.545515" lon="7.873015">
        <ele>362.948186</ele>
        <time>2021-11-22T12:15:48.245Z</time>
      </trkpt>
      <trkpt lat="47.545746" lon="7.873302">
        <ele>364.872222</ele>
        <time>2021-11-22T12:16:01.444Z</time>
      </trkpt>
      <trkpt lat="47.545934" lon="7.873549">
        <ele>366.475875</ele>
        <time>2021-11-22T12:16:11.545Z</time>
      </trkpt>
      <trkpt lat="47.546077" lon="7.873763">
        <ele>367.773071</ele>
        <time>2021-11-22T12:16:20.741Z</time>
      </trkpt>
      <trkpt lat="47.546135" lon="7.873859">
        <ele>368.328081</ele>
        <time>2021-11-22T12:16:23.980Z</time>
      </trkpt>
      <trkpt lat="47.546309" lon="7.874154">
        <ele>370.015697</ele>
        <time>2021-11-22T12:16:35.094Z</time>
      </trkpt>
      <trkpt lat="47.547126" lon="7.875801">
        <ele>375.741554</ele>
        <time>2021-11-22T12:17:20.856Z</time>
      </trkpt>
      <trkpt lat="47.547574" lon="7.876801">
        <ele>378.301431</ele>
        <time>2021-11-22T12:17:39.851Z</time>
      </trkpt>
      <trkpt lat="47.547992" lon="7.877974">
        <ele>376.889277</ele>
        <time>2021-11-22T12:17:52.652Z</time>
      </trkpt>
      <trkpt lat="47.548234" lon="7.878638">
        <ele>376.085905</ele>
        <time>2021-11-22T12:17:57.916Z</time>
      </trkpt>
      <trkpt lat="47.548422" lon="7.878959">
        <ele>375.633451</ele>
        <time>2021-11-22T12:18:00.686Z</time>
      </trkpt>
      <trkpt lat="47.548718" lon="7.879258">
        <ele>374.192410</ele>
        <time>2021-11-22T12:18:04.101Z</time>
      </trkpt>
      <trkpt lat="47.549140" lon="7.879391">
        <ele>372.191115</ele>
        <time>2021-11-22T12:18:08.170Z</time>
      </trkpt>
      <trkpt lat="47.549318" lon="7.879398">
        <ele>371.365150</ele>
        <time>2021-11-22T12:18:09.783Z</time>
      </trkpt>
      <trkpt lat="47.549426" lon="7.879394">
        <ele>370.864024</ele>
        <time>2021-11-22T12:18:10.827Z</time>
      </trkpt>
      <trkpt lat="47.549694" lon="7.879391">
        <ele>369.620839</ele>
        <time>2021-11-22T12:18:13.352Z</time>
      </trkpt>
      <trkpt lat="47.549920" lon="7.879395">
        <ele>368.572438</ele>
        <time>2021-11-22T12:18:15.546Z</time>
      </trkpt>
      <trkpt lat="47.549993" lon="7.879403">
        <ele>368.232894</ele>
        <time>2021-11-22T12:18:16.222Z</time>
      </trkpt>
      <trkpt lat="47.550458" lon="7.879428">
        <ele>366.544226</ele>
        <time>2021-11-22T12:18:20.721Z</time>
      </trkpt>
      <trkpt lat="47.550948" lon="7.879456">
        <ele>365.239144</ele>
        <time>2021-11-22T12:18:25.629Z</time>
      </trkpt>
      <trkpt lat="47.551453" lon="7.879539">
        <ele>363.886866</ele>
        <time>2021-11-22T12:18:31.251Z</time>
      </trkpt>
      <trkpt lat="47.551499" lon="7.879547">
        <ele>363.763598</ele>
        <time>2021-11-22T12:18:31.770Z</time>
      </trkpt>
      <trkpt lat="47.552616" lon="7.879896">
        <ele>360.743145</ele>
        <time>2021-11-22T12:18:44.789Z</time>
      </trkpt>
      <trkpt lat="47.553292" lon="7.880216">
        <ele>358.874582</ele>
        <time>2021-11-22T12:18:52.460Z</time>
      </trkpt>
      <trkpt lat="47.554555" lon="7.880902">
        <ele>352.990031</ele>
        <time>2021-11-22T12:19:05.389Z</time>
      </trkpt>
      <trkpt lat="47.554711" lon="7.880958">
        <ele>352.140807</ele>
        <time>2021-11-22T12:19:06.884Z</time>
      </trkpt>
      <trkpt lat="47.554840" lon="7.880981">
        <ele>351.453386</ele>
        <time>2021-11-22T12:19:08.055Z</time>
      </trkpt>
      <trkpt lat="47.554892" lon="7.880986">
        <ele>351.177691</ele>
        <time>2021-11-22T12:19:08.537Z</time>
      </trkpt>
      <trkpt lat="47.555165" lon="7.880954">
        <ele>349.728821</ele>
        <time>2021-11-22T12:19:11.048Z</time>
      </trkpt>
      <trkpt lat="47.555219" lon="7.881390">
        <ele>348.146051</ele>
        <time>2021-11-22T12:19:13.760Z</time>
      </trkpt>
      <trkpt lat="47.555161" lon="7.882307">
        <ele>344.021362</ele>
        <time>2021-11-22T12:19:19.360Z</time>
      </trkpt>
      <trkpt lat="47.554972" lon="7.883695">
        <ele>337.676732</ele>
        <time>2021-11-22T12:19:27.943Z</time>
      </trkpt>
      <trkpt lat="47.554795" lon="7.884898">
        <ele>333.180140</ele>
        <time>2021-11-22T12:19:35.611Z</time>
      </trkpt>
      <trkpt lat="47.554519" lon="7.886778">
        <ele>326.925184</ele>
        <time>2021-11-22T12:19:48.022Z</time>
      </trkpt>
      <trkpt lat="47.554151" lon="7.889353">
        <ele>321.248812</ele>
        <time>2021-11-22T12:20:06.189Z</time>
      </trkpt>
      <trkpt lat="47.553816" lon="7.891691">
        <ele>317.207244</ele>
        <time>2021-11-22T12:20:23.253Z</time>
      </trkpt>
      <trkpt lat="47.553711" lon="7.892472">
        <ele>316.244682</ele>
        <time>2021-11-22T12:20:29.024Z</time>
      </trkpt>
      <trkpt lat="47.553422" lon="7.894151">
        <ele>314.341571</ele>
        <time>2021-11-22T12:20:42.328Z</time>
      </trkpt>
      <trkpt lat="47.553308" lon="7.894573">
        <ele>313.990480</ele>
        <time>2021-11-22T12:20:46.171Z</time>
      </trkpt>
      <trkpt lat="47.553260" lon="7.894549">
        <ele>313.973363</ele>
        <time>2021-11-22T12:20:46.827Z</time>
      </trkpt>
      <trkpt lat="47.553130" lon="7.894640">
        <ele>313.924783</ele>
        <time>2021-11-22T12:20:48.814Z</time>
      </trkpt>
      <trkpt lat="47.553112" lon="7.894710">
        <ele>313.907700</ele>
        <time>2021-11-22T12:20:49.448Z</time>
      </trkpt>
      <trkpt lat="47.553110" lon="7.894769">
        <ele>313.894229</ele>
        <time>2021-11-22T12:20:49.978Z</time>
      </trkpt>
      <trkpt lat="47.553174" lon="7.894916">
        <ele>313.854337</ele>
        <time>2021-11-22T12:20:51.509Z</time>
      </trkpt>
      <trkpt lat="47.553211" lon="7.894938">
        <ele>313.840866</ele>
        <time>2021-11-22T12:20:52.060Z</time>
      </trkpt>
      <trkpt lat="47.553164" lon="7.895114">
        <ele>313.797703</ele>
        <time>2021-11-22T12:20:53.940Z</time>
      </trkpt>
      <trkpt lat="47.552719" lon="7.896440">
        <ele>313.459999</ele>
        <time>2021-11-22T12:21:08.260Z</time>
      </trkpt>
      <trkpt lat="47.552358" lon="7.897179">
        <ele>312.998027</ele>
        <time>2021-11-22T12:21:17.886Z</time>
      </trkpt>
      <trkpt lat="47.551673" lon="7.898276">
        <ele>312.146929</ele>
        <time>2021-11-22T12:21:30.493Z</time>
      </trkpt>
      <trkpt lat="47.551511" lon="7.898743">
        <ele>311.690749</ele>
        <time>2021-11-22T12:21:34.427Z</time>
      </trkpt>
      <trkpt lat="47.551366" lon="7.899159">
        <ele>310.675653</ele>
        <time>2021-11-22T12:21:37.787Z</time>
      </trkpt>
      <trkpt lat="47.551253" lon="7.899932">
        <ele>308.960861</ele>
        <time>2021-11-22T12:21:43.262Z</time>
      </trkpt>
      <trkpt lat="47.551142" lon="7.902561">
        <ele>302.672259</ele>
        <time>2021-11-22T12:22:00.627Z</time>
      </trkpt>
      <trkpt lat="47.550965" lon="7.903751">
        <ele>299.499821</ele>
        <time>2021-11-22T12:22:08.684Z</time>
      </trkpt>
      <trkpt lat="47.550802" lon="7.904472">
        <ele>298.159517</ele>
        <time>2021-11-22T12:22:13.863Z</time>
      </trkpt>
      <trkpt lat="47.550497" lon="7.905558">
        <ele>296.270941</ele>
        <time>2021-11-22T12:22:22.232Z</time>
      </trkpt>
      <trkpt lat="47.549539" lon="7.908625">
        <ele>292.765205</ele>
        <time>2021-11-22T12:22:49.168Z</time>
      </trkpt>
      <trkpt lat="47.549520" lon="7.908678">
        <ele>292.714374</ele>
        <time>2021-11-22T12:22:49.672Z</time>
      </trkpt>
      <trkpt lat="47.549378" lon="7.909149">
        <ele>292.309247</ele>
        <time>2021-11-22T12:22:53.888Z</time>
      </trkpt>
      <trkpt lat="47.549331" lon="7.909303">
        <ele>292.178239</ele>
        <time>2021-11-22T12:22:55.267Z</time>
      </trkpt>
      <trkpt lat="47.549195" lon="7.909756">
        <ele>291.793931</ele>
        <time>2021-11-22T12:22:59.321Z</time>
      </trkpt>
      <trkpt lat="47.549102" lon="7.910058">
        <ele>291.536625</ele>
        <time>2021-11-22T12:23:02.010Z</time>
      </trkpt>
      <trkpt lat="47.549012" lon="7.910340">
        <ele>291.294830</ele>
        <time>2021-11-22T12:23:04.532Z</time>
      </trkpt>
      <trkpt lat="47.548412" lon="7.912168">
        <ele>289.849031</ele>
        <time>2021-11-22T12:23:20.873Z</time>
      </trkpt>
      <trkpt lat="47.548027" lon="7.913334">
        <ele>288.993445</ele>
        <time>2021-11-22T12:23:31.634Z</time>
      </trkpt>
      <trkpt lat="47.547994" lon="7.913433">
        <ele>288.920667</ele>
        <time>2021-11-22T12:23:32.555Z</time>
      </trkpt>
      <trkpt lat="47.547423" lon="7.915080">
        <ele>288.704341</ele>
        <time>2021-11-22T12:23:50.032Z</time>
      </trkpt>
      <trkpt lat="47.547113" lon="7.915971">
        <ele>288.652332</ele>
        <time>2021-11-22T12:24:00.479Z</time>
      </trkpt>
      <trkpt lat="47.547091" lon="7.916039">
        <ele>288.678120</ele>
        <time>2021-11-22T12:24:01.503Z</time>
      </trkpt>
      <trkpt lat="47.547032" lon="7.916218">
        <ele>288.746243</ele>
        <time>2021-11-22T12:24:03.706Z</time>
      </trkpt>
      <trkpt lat="47.546821" lon="7.916867">
        <ele>288.992594</ele>
        <time>2021-11-22T12:24:11.815Z</time>
      </trkpt>
      <trkpt lat="47.546262" lon="7.919081">
        <ele>289.749297</ele>
        <time>2021-11-22T12:24:39.326Z</time>
      </trkpt>
      <trkpt lat="47.546128" lon="7.919617">
        <ele>289.905170</ele>
        <time>2021-11-22T12:24:44.795Z</time>
      </trkpt>
      <trkpt lat="47.545973" lon="7.920313">
        <ele>290.105036</ele>
        <time>2021-11-22T12:24:53.258Z</time>
      </trkpt>
      <trkpt lat="47.545913" lon="7.920765">
        <ele>290.230659</ele>
        <time>2021-11-22T12:24:57.432Z</time>
      </trkpt>
      <trkpt lat="47.545881" lon="7.921096">
        <ele>290.487096</ele>
        <time>2021-11-22T12:25:01.448Z</time>
      </trkpt>
      <trkpt lat="47.545810" lon="7.921755">
        <ele>291.278744</ele>
        <time>2021-11-22T12:25:10.357Z</time>
      </trkpt>
      <trkpt lat="47.545778" lon="7.921947">
        <ele>291.513348</ele>
        <time>2021-11-22T12:25:13.966Z</time>
      </trkpt>
      <trkpt lat="47.545714" lon="7.922249">
        <ele>291.888843</ele>
        <time>2021-11-22T12:25:17.164Z</time>
      </trkpt>
      <trkpt lat="47.545699" lon="7.922325">
        <ele>291.982775</ele>
        <time>2021-11-22T12:25:18.362Z</time>
      </trkpt>
      <trkpt lat="47.545690" lon="7.922369">
        <ele>292.037315</ele>
        <time>2021-11-22T12:25:20.460Z</time>
      </trkpt>
      <trkpt lat="47.545641" lon="7.922610">
        <ele>292.335895</ele>
        <time>2021-11-22T12:25:22.814Z</time>
      </trkpt>
      <trkpt lat="47.545587" lon="7.922895">
        <ele>292.687050</ele>
        <time>2021-11-22T12:25:28.610Z</time>
      </trkpt>
      <trkpt lat="47.545553" lon="7.923142">
        <ele>292.986091</ele>
        <time>2021-11-22T12:25:31.257Z</time>
      </trkpt>
      <trkpt lat="47.545536" lon="7.923407">
        <ele>293.301870</ele>
        <time>2021-11-22T12:25:37.146Z</time>
      </trkpt>
      <trkpt lat="47.545521" lon="7.923709">
        <ele>293.920945</ele>
        <time>2021-11-22T12:25:41.300Z</time>
      </trkpt>
      <trkpt lat="47.545481" lon="7.924396">
        <ele>295.672949</ele>
        <time>2021-11-22T12:25:55.903Z</time>
      </trkpt>
      <trkpt lat="47.545466" lon="7.924880">
        <ele>296.903987</ele>
        <time>2021-11-22T12:26:07.210Z</time>
      </trkpt>
      <trkpt lat="47.545446" lon="7.925350">
        <ele>298.100530</ele>
        <time>2021-11-22T12:26:17.585Z</time>
      </trkpt>
      <trkpt lat="47.545417" lon="7.925848">
        <ele>299.370544</ele>
        <time>2021-11-22T12:26:28.064Z</time>
      </trkpt>
      <trkpt lat="47.545409" lon="7.926773">
        <ele>300.780113</ele>
        <time>2021-11-22T12:26:45.265Z</time>
      </trkpt>
      <trkpt lat="47.545407" lon="7.927001">
        <ele>301.000183</ele>
        <time>2021-11-22T12:26:49.074Z</time>
      </trkpt>
      <trkpt lat="47.545406" lon="7.927306">
        <ele>301.294555</ele>
        <time>2021-11-22T12:26:53.678Z</time>
      </trkpt>
      <trkpt lat="47.545421" lon="7.927686">
        <ele>301.661935</ele>
        <time>2021-11-22T12:26:59.214Z</time>
      </trkpt>
      <trkpt lat="47.545475" lon="7.928419">
        <ele>302.373583</ele>
        <time>2021-11-22T12:27:08.531Z</time>
      </trkpt>
      <trkpt lat="47.545563" lon="7.929641">
        <ele>301.774616</ele>
        <time>2021-11-22T12:27:18.411Z</time>
      </trkpt>
      <trkpt lat="47.545661" lon="7.930955">
        <ele>300.145916</ele>
        <time>2021-11-22T12:27:27.807Z</time>
      </trkpt>
      <trkpt lat="47.545696" lon="7.931497">
        <ele>299.485628</ele>
        <time>2021-11-22T12:27:31.775Z</time>
      </trkpt>
      <trkpt lat="47.545721" lon="7.931992">
        <ele>299.239330</ele>
        <time>2021-11-22T12:27:35.580Z</time>
      </trkpt>
      <trkpt lat="47.545724" lon="7.932758">
        <ele>298.859246</ele>
        <time>2021-11-22T12:27:41.804Z</time>
      </trkpt>
      <trkpt lat="47.545702" lon="7.933290">
        <ele>298.594782</ele>
        <time>2021-11-22T12:27:46.447Z</time>
      </trkpt>
      <trkpt lat="47.545674" lon="7.933625">
        <ele>298.427290</ele>
        <time>2021-11-22T12:27:49.642Z</time>
      </trkpt>
      <trkpt lat="47.545584" lon="7.934238">
        <ele>298.264365</ele>
        <time>2021-11-22T12:27:56.459Z</time>
      </trkpt>
      <trkpt lat="47.545457" lon="7.935110">
        <ele>299.025776</ele>
        <time>2021-11-22T12:28:07.775Z</time>
      </trkpt>
      <trkpt lat="47.545074" lon="7.936484">
        <ele>300.294602</ele>
        <time>2021-11-22T12:28:29.276Z</time>
      </trkpt>
      <trkpt lat="47.544903" lon="7.936917">
        <ele>300.838421</ele>
        <time>2021-11-22T12:28:36.555Z</time>
      </trkpt>
      <trkpt lat="47.544705" lon="7.937395">
        <ele>301.516303</ele>
        <time>2021-11-22T12:28:44.730Z</time>
      </trkpt>
      <trkpt lat="47.544472" lon="7.937932">
        <ele>302.287918</ele>
        <time>2021-11-22T12:28:54.114Z</time>
      </trkpt>
      <trkpt lat="47.543826" lon="7.939433">
        <ele>304.358294</ele>
        <time>2021-11-22T12:29:21.147Z</time>
      </trkpt>
      <trkpt lat="47.543611" lon="7.940113">
        <ele>305.170556</ele>
        <time>2021-11-22T12:29:32.317Z</time>
      </trkpt>
      <trkpt lat="47.543435" lon="7.940670">
        <ele>305.835821</ele>
        <time>2021-11-22T12:29:41.133Z</time>
      </trkpt>
      <trkpt lat="47.543353" lon="7.941128">
        <ele>306.348384</ele>
        <time>2021-11-22T12:29:47.694Z</time>
      </trkpt>
      <trkpt lat="47.543161" lon="7.942213">
        <ele>306.606357</ele>
        <time>2021-11-22T12:30:02.105Z</time>
      </trkpt>
      <trkpt lat="47.543007" lon="7.943867">
        <ele>306.710358</ele>
        <time>2021-11-22T12:30:17.691Z</time>
      </trkpt>
      <trkpt lat="47.542944" lon="7.944804">
        <ele>305.374653</ele>
        <time>2021-11-22T12:30:25.226Z</time>
      </trkpt>
      <trkpt lat="47.542913" lon="7.945267">
        <ele>304.669679</ele>
        <time>2021-11-22T12:30:28.533Z</time>
      </trkpt>
      <trkpt lat="47.542872" lon="7.945781">
        <ele>303.885455</ele>
        <time>2021-11-22T12:30:32.130Z</time>
      </trkpt>
      <trkpt lat="47.542875" lon="7.946089">
        <ele>303.418729</ele>
        <time>2021-11-22T12:30:34.222Z</time>
      </trkpt>
      <trkpt lat="47.542902" lon="7.946514">
        <ele>302.771929</ele>
        <time>2021-11-22T12:30:37.101Z</time>
      </trkpt>
      <trkpt lat="47.542943" lon="7.946806">
        <ele>302.361693</ele>
        <time>2021-11-22T12:30:39.139Z</time>
      </trkpt>
      <trkpt lat="47.542974" lon="7.946965">
        <ele>302.140225</ele>
        <time>2021-11-22T12:30:40.346Z</time>
      </trkpt>
      <trkpt lat="47.542979" lon="7.946989">
        <ele>302.106613</ele>
        <time>2021-11-22T12:30:40.501Z</time>
      </trkpt>
      <trkpt lat="47.543007" lon="7.947104">
        <ele>301.943018</ele>
        <time>2021-11-22T12:30:41.341Z</time>
      </trkpt>
      <trkpt lat="47.543087" lon="7.947317">
        <ele>301.616835</ele>
        <time>2021-11-22T12:30:43.064Z</time>
      </trkpt>
      <trkpt lat="47.543191" lon="7.947615">
        <ele>301.167914</ele>
        <time>2021-11-22T12:30:45.504Z</time>
      </trkpt>
      <trkpt lat="47.543242" lon="7.947745">
        <ele>300.966706</ele>
        <time>2021-11-22T12:30:46.633Z</time>
      </trkpt>
      <trkpt lat="47.543273" lon="7.947816">
        <ele>300.853553</ele>
        <time>2021-11-22T12:30:47.261Z</time>
      </trkpt>
      <trkpt lat="47.543358" lon="7.947967">
        <ele>300.590449</ele>
        <time>2021-11-22T12:30:48.703Z</time>
      </trkpt>
      <trkpt lat="47.543455" lon="7.948127">
        <ele>300.302667</ele>
        <time>2021-11-22T12:30:50.370Z</time>
      </trkpt>
      <trkpt lat="47.543532" lon="7.948214">
        <ele>300.110693</ele>
        <time>2021-11-22T12:30:51.451Z</time>
      </trkpt>
      <trkpt lat="47.543579" lon="7.948287">
        <ele>299.975698</ele>
        <time>2021-11-22T12:30:52.215Z</time>
      </trkpt>
      <trkpt lat="47.543760" lon="7.948548">
        <ele>299.474968</ele>
        <time>2021-11-22T12:30:55.103Z</time>
      </trkpt>
      <trkpt lat="47.543864" lon="7.948694">
        <ele>299.190933</ele>
        <time>2021-11-22T12:30:56.775Z</time>
      </trkpt>
      <trkpt lat="47.544239" lon="7.949202">
        <ele>299.264658</ele>
        <time>2021-11-22T12:31:04.137Z</time>
      </trkpt>
      <trkpt lat="47.544521" lon="7.949558">
        <ele>299.386242</ele>
        <time>2021-11-22T12:31:10.311Z</time>
      </trkpt>
      <trkpt lat="47.544901" lon="7.950044">
        <ele>299.550985</ele>
        <time>2021-11-22T12:31:19.707Z</time>
      </trkpt>
      <trkpt lat="47.545166" lon="7.950366">
        <ele>299.663457</ele>
        <time>2021-11-22T12:31:26.257Z</time>
      </trkpt>
      <trkpt lat="47.545434" lon="7.950668">
        <ele>299.693376</ele>
        <time>2021-11-22T12:31:32.047Z</time>
      </trkpt>
      <trkpt lat="47.545542" lon="7.950842">
        <ele>299.687617</ele>
        <time>2021-11-22T12:31:34.472Z</time>
      </trkpt>
      <trkpt lat="47.545667" lon="7.950979">
        <ele>299.682004</ele>
        <time>2021-11-22T12:31:37.077Z</time>
      </trkpt>
      <trkpt lat="47.545737" lon="7.951055">
        <ele>299.678872</ele>
        <time>2021-11-22T12:31:38.331Z</time>
      </trkpt>
      <trkpt lat="47.545876" lon="7.951233">
        <ele>299.672240</ele>
        <time>2021-11-22T12:31:40.724Z</time>
      </trkpt>
      <trkpt lat="47.546112" lon="7.951485">
        <ele>299.661739</ele>
        <time>2021-11-22T12:31:45.267Z</time>
      </trkpt>
      <trkpt lat="47.546164" lon="7.951520">
        <ele>299.659677</ele>
        <time>2021-11-22T12:31:45.901Z</time>
      </trkpt>
      <trkpt lat="47.546212" lon="7.951535">
        <ele>299.657907</ele>
        <time>2021-11-22T12:31:46.666Z</time>
      </trkpt>
      <trkpt lat="47.546231" lon="7.951558">
        <ele>299.657021</ele>
        <time>2021-11-22T12:31:47.395Z</time>
      </trkpt>
      <trkpt lat="47.546421" lon="7.951793">
        <ele>299.648087</ele>
        <time>2021-11-22T12:31:50.577Z</time>
      </trkpt>
      <trkpt lat="47.546634" lon="7.952024">
        <ele>299.638558</ele>
        <time>2021-11-22T12:31:54.111Z</time>
      </trkpt>
      <trkpt lat="47.546695" lon="7.952091">
        <ele>299.629139</ele>
        <time>2021-11-22T12:31:55.066Z</time>
      </trkpt>
      <trkpt lat="47.546776" lon="7.952185">
        <ele>299.585408</ele>
        <time>2021-11-22T12:31:56.253Z</time>
      </trkpt>
      <trkpt lat="47.546935" lon="7.952372">
        <ele>299.499123</ele>
        <time>2021-11-22T12:31:59.188Z</time>
      </trkpt>
      <trkpt lat="47.547090" lon="7.952543">
        <ele>299.416986</ele>
        <time>2021-11-22T12:32:01.825Z</time>
      </trkpt>
      <trkpt lat="47.547400" lon="7.952910">
        <ele>299.248329</ele>
        <time>2021-11-22T12:32:07.147Z</time>
      </trkpt>
      <trkpt lat="47.547458" lon="7.952975">
        <ele>299.217419</ele>
        <time>2021-11-22T12:32:08.073Z</time>
      </trkpt>
      <trkpt lat="47.547550" lon="7.953078">
        <ele>299.168407</ele>
        <time>2021-11-22T12:32:09.570Z</time>
      </trkpt>
      <trkpt lat="47.547624" lon="7.953160">
        <ele>299.129131</ele>
        <time>2021-11-22T12:32:10.815Z</time>
      </trkpt>
      <trkpt lat="47.547797" lon="7.953355">
        <ele>299.036741</ele>
        <time>2021-11-22T12:32:13.804Z</time>
      </trkpt>
      <trkpt lat="47.547871" lon="7.953437">
        <ele>298.997465</ele>
        <time>2021-11-22T12:32:15.059Z</time>
      </trkpt>
      <trkpt lat="47.547994" lon="7.953584">
        <ele>298.930298</ele>
        <time>2021-11-22T12:32:17.186Z</time>
      </trkpt>
      <trkpt lat="47.548115" lon="7.953729">
        <ele>298.868758</ele>
        <time>2021-11-22T12:32:19.309Z</time>
      </trkpt>
      <trkpt lat="47.548251" lon="7.953895">
        <ele>298.837977</ele>
        <time>2021-11-22T12:32:21.690Z</time>
      </trkpt>
      <trkpt lat="47.548342" lon="7.954009">
        <ele>298.817161</ele>
        <time>2021-11-22T12:32:23.330Z</time>
      </trkpt>
      <trkpt lat="47.548542" lon="7.954269">
        <ele>298.770682</ele>
        <time>2021-11-22T12:32:27.060Z</time>
      </trkpt>
      <trkpt lat="47.548833" lon="7.954652">
        <ele>298.702689</ele>
        <time>2021-11-22T12:32:32.602Z</time>
      </trkpt>
      <trkpt lat="47.549042" lon="7.954942">
        <ele>298.652670</ele>
        <time>2021-11-22T12:32:36.744Z</time>
      </trkpt>
      <trkpt lat="47.549157" lon="7.955099">
        <ele>298.625354</ele>
        <time>2021-11-22T12:32:39.029Z</time>
      </trkpt>
      <trkpt lat="47.549444" lon="7.955496">
        <ele>298.557002</ele>
        <time>2021-11-22T12:32:44.876Z</time>
      </trkpt>
      <trkpt lat="47.550205" lon="7.956552">
        <ele>298.417014</ele>
        <time>2021-11-22T12:32:59.508Z</time>
      </trkpt>
      <trkpt lat="47.550380" lon="7.956806">
        <ele>298.384122</ele>
        <time>2021-11-22T12:33:03.070Z</time>
      </trkpt>
      <trkpt lat="47.550445" lon="7.956918">
        <ele>298.370737</ele>
        <time>2021-11-22T12:33:04.554Z</time>
      </trkpt>
      <trkpt lat="47.550549" lon="7.957126">
        <ele>298.347280</ele>
        <time>2021-11-22T12:33:07.075Z</time>
      </trkpt>
      <trkpt lat="47.550613" lon="7.957254">
        <ele>298.332844</ele>
        <time>2021-11-22T12:33:08.702Z</time>
      </trkpt>
      <trkpt lat="47.550735" lon="7.957541">
        <ele>298.325770</ele>
        <time>2021-11-22T12:33:12.158Z</time>
      </trkpt>
      <trkpt lat="47.550745" lon="7.957569">
        <ele>298.327687</ele>
        <time>2021-11-22T12:33:12.406Z</time>
      </trkpt>
      <trkpt lat="47.550869" lon="7.957700">
        <ele>298.341343</ele>
        <time>2021-11-22T12:33:14.680Z</time>
      </trkpt>
      <trkpt lat="47.551300" lon="7.958844">
        <ele>298.420633</ele>
        <time>2021-11-22T12:33:27.532Z</time>
      </trkpt>
      <trkpt lat="47.551677" lon="7.960100">
        <ele>298.617142</ele>
        <time>2021-11-22T12:33:42.270Z</time>
      </trkpt>
      <trkpt lat="47.551865" lon="7.960528">
        <ele>298.781469</ele>
        <time>2021-11-22T12:33:48.120Z</time>
      </trkpt>
      <trkpt lat="47.551882" lon="7.960631">
        <ele>298.815591</ele>
        <time>2021-11-22T12:33:49.336Z</time>
      </trkpt>
      <trkpt lat="47.551894" lon="7.960729">
        <ele>298.847641</ele>
        <time>2021-11-22T12:33:50.740Z</time>
      </trkpt>
      <trkpt lat="47.551859" lon="7.961133">
        <ele>298.978712</ele>
        <time>2021-11-22T12:33:55.216Z</time>
      </trkpt>
      <trkpt lat="47.551906" lon="7.962453">
        <ele>299.352800</ele>
        <time>2021-11-22T12:34:10.610Z</time>
      </trkpt>
      <trkpt lat="47.551918" lon="7.963725">
        <ele>299.457677</ele>
        <time>2021-11-22T12:34:24.271Z</time>
      </trkpt>
      <trkpt lat="47.551902" lon="7.964650">
        <ele>299.533961</ele>
        <time>2021-11-22T12:34:33.384Z</time>
      </trkpt>
      <trkpt lat="47.551767" lon="7.967910">
        <ele>298.884605</ele>
        <time>2021-11-22T12:35:03.046Z</time>
      </trkpt>
      <trkpt lat="47.551839" lon="7.968208">
        <ele>298.904142</ele>
        <time>2021-11-22T12:35:06.137Z</time>
      </trkpt>
      <trkpt lat="47.551847" lon="7.968315">
        <ele>298.910787</ele>
        <time>2021-11-22T12:35:07.113Z</time>
      </trkpt>
      <trkpt lat="47.551825" lon="7.968445">
        <ele>298.919060</ele>
        <time>2021-11-22T12:35:08.345Z</time>
      </trkpt>
      <trkpt lat="47.551750" lon="7.968659">
        <ele>298.933944</ele>
        <time>2021-11-22T12:35:10.948Z</time>
      </trkpt>
      <trkpt lat="47.551734" lon="7.970034">
        <ele>299.018830</ele>
        <time>2021-11-22T12:35:25.344Z</time>
      </trkpt>
      <trkpt lat="47.551725" lon="7.970823">
        <ele>299.260226</ele>
        <time>2021-11-22T12:35:34.463Z</time>
      </trkpt>
      <trkpt lat="47.551755" lon="7.972603">
        <ele>299.900801</ele>
        <time>2021-11-22T12:35:55.938Z</time>
      </trkpt>
      <trkpt lat="47.551793" lon="7.974325">
        <ele>299.872050</ele>
        <time>2021-11-22T12:36:13.109Z</time>
      </trkpt>
      <trkpt lat="47.551829" lon="7.976305">
        <ele>299.952655</ele>
        <time>2021-11-22T12:36:31.067Z</time>
      </trkpt>
      <trkpt lat="47.551901" lon="7.979190">
        <ele>300.327976</ele>
        <time>2021-11-22T12:37:05.182Z</time>
      </trkpt>
      <trkpt lat="47.551923" lon="7.979308">
        <ele>300.325130</ele>
        <time>2021-11-22T12:37:06.872Z</time>
      </trkpt>
      <trkpt lat="47.551933" lon="7.979363">
        <ele>300.323806</ele>
        <time>2021-11-22T12:37:08.085Z</time>
      </trkpt>
      <trkpt lat="47.551873" lon="7.980135">
        <ele>300.305742</ele>
        <time>2021-11-22T12:37:15.366Z</time>
      </trkpt>
      <trkpt lat="47.551865" lon="7.980584">
        <ele>300.295301</ele>
        <time>2021-11-22T12:37:19.614Z</time>
      </trkpt>
      <trkpt lat="47.551861" lon="7.981113">
        <ele>299.773261</ele>
        <time>2021-11-22T12:37:24.013Z</time>
      </trkpt>
      <trkpt lat="47.551892" lon="7.983447">
        <ele>295.651019</ele>
        <time>2021-11-22T12:37:40.020Z</time>
      </trkpt>
      <trkpt lat="47.551911" lon="7.983632">
        <ele>295.447237</ele>
        <time>2021-11-22T12:37:41.318Z</time>
      </trkpt>
      <trkpt lat="47.552005" lon="7.983849">
        <ele>295.210896</ele>
        <time>2021-11-22T12:37:43.177Z</time>
      </trkpt>
      <trkpt lat="47.552007" lon="7.983931">
        <ele>295.135688</ele>
        <time>2021-11-22T12:37:43.689Z</time>
      </trkpt>
      <trkpt lat="47.551993" lon="7.984014">
        <ele>295.057272</ele>
        <time>2021-11-22T12:37:44.279Z</time>
      </trkpt>
      <trkpt lat="47.551934" lon="7.984260">
        <ele>294.817980</ele>
        <time>2021-11-22T12:37:46.328Z</time>
      </trkpt>
      <trkpt lat="47.551939" lon="7.985151">
        <ele>294.001278</ele>
        <time>2021-11-22T12:37:52.965Z</time>
      </trkpt>
      <trkpt lat="47.551898" lon="7.985654">
        <ele>293.536888</ele>
        <time>2021-11-22T12:37:57.274Z</time>
      </trkpt>
      <trkpt lat="47.551915" lon="7.986209">
        <ele>293.379487</ele>
        <time>2021-11-22T12:38:02.891Z</time>
      </trkpt>
      <trkpt lat="47.551917" lon="7.986288">
        <ele>293.531408</ele>
        <time>2021-11-22T12:38:04.214Z</time>
      </trkpt>
      <trkpt lat="47.551971" lon="7.986555">
        <ele>294.067041</ele>
        <time>2021-11-22T12:38:08.475Z</time>
      </trkpt>
      <trkpt lat="47.552152" lon="7.986883">
        <ele>294.881220</ele>
        <time>2021-11-22T12:38:15.701Z</time>
      </trkpt>
      <trkpt lat="47.552224" lon="7.986975">
        <ele>295.151929</ele>
        <time>2021-11-22T12:38:18.268Z</time>
      </trkpt>
      <trkpt lat="47.552436" lon="7.987273">
        <ele>295.983975</ele>
        <time>2021-11-22T12:38:26.167Z</time>
      </trkpt>
      <trkpt lat="47.552504" lon="7.987369">
        <ele>296.251407</ele>
        <time>2021-11-22T12:38:28.802Z</time>
      </trkpt>
      <trkpt lat="47.552713" lon="7.987638">
        <ele>297.039656</ele>
        <time>2021-11-22T12:38:37.269Z</time>
      </trkpt>
      <trkpt lat="47.552867" lon="7.987810">
        <ele>297.588758</ele>
        <time>2021-11-22T12:38:43.757Z</time>
      </trkpt>
      <trkpt lat="47.553232" lon="7.988247">
        <ele>299.010161</ele>
        <time>2021-11-22T12:38:58.386Z</time>
      </trkpt>
      <trkpt lat="47.553343" lon="7.988401">
        <ele>299.498867</ele>
        <time>2021-11-22T12:39:03.222Z</time>
      </trkpt>
      <trkpt lat="47.553410" lon="7.988607">
        <ele>299.994862</ele>
        <time>2021-11-22T12:39:07.819Z</time>
      </trkpt>
      <trkpt lat="47.553424" lon="7.988762">
        <ele>300.334056</ele>
        <time>2021-11-22T12:39:11.006Z</time>
      </trkpt>
      <trkpt lat="47.553352" lon="7.989142">
        <ele>301.190146</ele>
        <time>2021-11-22T12:39:18.850Z</time>
      </trkpt>
      <trkpt lat="47.553253" lon="7.989578">
        <ele>302.187926</ele>
        <time>2021-11-22T12:39:27.803Z</time>
      </trkpt>
      <trkpt lat="47.553214" lon="7.989758">
        <ele>302.597975</ele>
        <time>2021-11-22T12:39:31.386Z</time>
      </trkpt>
      <trkpt lat="47.553163" lon="7.990004">
        <ele>303.156161</ele>
        <time>2021-11-22T12:39:36.085Z</time>
      </trkpt>
      <trkpt lat="47.553146" lon="7.990113">
        <ele>303.398815</ele>
        <time>2021-11-22T12:39:38.013Z</time>
      </trkpt>
      <trkpt lat="47.553126" lon="7.990240">
        <ele>303.681681</ele>
        <time>2021-11-22T12:39:40.170Z</time>
      </trkpt>
      <trkpt lat="47.553050" lon="7.990744">
        <ele>304.132229</ele>
        <time>2021-11-22T12:39:47.820Z</time>
      </trkpt>
      <trkpt lat="47.553091" lon="7.991915">
        <ele>304.431209</ele>
        <time>2021-11-22T12:39:58.629Z</time>
      </trkpt>
      <trkpt lat="47.553107" lon="7.992226">
        <ele>304.510737</ele>
        <time>2021-11-22T12:40:01.097Z</time>
      </trkpt>
      <trkpt lat="47.553130" lon="7.993014">
        <ele>304.711847</ele>
        <time>2021-11-22T12:40:10.671Z</time>
      </trkpt>
      <trkpt lat="47.553137" lon="7.993190">
        <ele>304.860055</ele>
        <time>2021-11-22T12:40:11.790Z</time>
      </trkpt>
      <trkpt lat="47.553156" lon="7.993696">
        <ele>305.378826</ele>
        <time>2021-11-22T12:40:17.423Z</time>
      </trkpt>
      <trkpt lat="47.553164" lon="7.993925">
        <ele>305.613557</ele>
        <time>2021-11-22T12:40:23.890Z</time>
      </trkpt>
      <trkpt lat="47.553246" lon="7.995617">
        <ele>307.350040</ele>
        <time>2021-11-22T12:40:46.676Z</time>
      </trkpt>
      <trkpt lat="47.553268" lon="7.996252">
        <ele>308.107423</ele>
        <time>2021-11-22T12:41:00.020Z</time>
      </trkpt>
      <trkpt lat="47.553279" lon="7.996528">
        <ele>308.445221</ele>
        <time>2021-11-22T12:41:04.173Z</time>
      </trkpt>
      <trkpt lat="47.553287" lon="7.997190">
        <ele>309.254167</ele>
        <time>2021-11-22T12:41:13.923Z</time>
      </trkpt>
      <trkpt lat="47.553287" lon="7.998380">
        <ele>310.706703</ele>
        <time>2021-11-22T12:41:30.507Z</time>
      </trkpt>
      <trkpt lat="47.553278" lon="7.999508">
        <ele>310.710427</ele>
        <time>2021-11-22T12:41:43.856Z</time>
      </trkpt>
      <trkpt lat="47.553275" lon="7.999860">
        <ele>310.711589</ele>
        <time>2021-11-22T12:41:47.356Z</time>
      </trkpt>
      <trkpt lat="47.553273" lon="8.001687">
        <ele>310.375834</ele>
        <time>2021-11-22T12:42:02.900Z</time>
      </trkpt>
      <trkpt lat="47.553271" lon="8.002109">
        <ele>310.152980</ele>
        <time>2021-11-22T12:42:06.266Z</time>
      </trkpt>
      <trkpt lat="47.553270" lon="8.002465">
        <ele>309.964982</ele>
        <time>2021-11-22T12:42:09.044Z</time>
      </trkpt>
      <trkpt lat="47.553266" lon="8.003502">
        <ele>309.417356</ele>
        <time>2021-11-22T12:42:17.818Z</time>
      </trkpt>
      <trkpt lat="47.553256" lon="8.004837">
        <ele>309.747326</ele>
        <time>2021-11-22T12:42:32.049Z</time>
      </trkpt>
      <trkpt lat="47.553251" lon="8.005657">
        <ele>310.066517</ele>
        <time>2021-11-22T12:42:42.138Z</time>
      </trkpt>
      <trkpt lat="47.553220" lon="8.006182">
        <ele>310.271649</ele>
        <time>2021-11-22T12:42:49.086Z</time>
      </trkpt>
      <trkpt lat="47.553211" lon="8.006270">
        <ele>310.306293</ele>
        <time>2021-11-22T12:42:50.888Z</time>
      </trkpt>
      <trkpt lat="47.553173" lon="8.006642">
        <ele>310.369478</ele>
        <time>2021-11-22T12:42:55.438Z</time>
      </trkpt>
      <trkpt lat="47.552935" lon="8.007851">
        <ele>310.479114</ele>
        <time>2021-11-22T12:43:10.545Z</time>
      </trkpt>
      <trkpt lat="47.552640" lon="8.008615">
        <ele>310.555741</ele>
        <time>2021-11-22T12:43:18.688Z</time>
      </trkpt>
      <trkpt lat="47.552604" lon="8.008677">
        <ele>310.562861</ele>
        <time>2021-11-22T12:43:19.239Z</time>
      </trkpt>
      <trkpt lat="47.551902" lon="8.009884">
        <ele>309.617716</ele>
        <time>2021-11-22T12:43:31.598Z</time>
      </trkpt>
      <trkpt lat="47.551275" lon="8.010934">
        <ele>308.859744</ele>
        <time>2021-11-22T12:43:43.554Z</time>
      </trkpt>
      <trkpt lat="47.551187" lon="8.011080">
        <ele>308.952564</ele>
        <time>2021-11-22T12:43:45.688Z</time>
      </trkpt>
      <trkpt lat="47.550764" lon="8.011985">
        <ele>309.474567</ele>
        <time>2021-11-22T12:43:57.777Z</time>
      </trkpt>
      <trkpt lat="47.550565" lon="8.012461">
        <ele>309.740078</ele>
        <time>2021-11-22T12:44:05.196Z</time>
      </trkpt>
      <trkpt lat="47.550001" lon="8.014034">
        <ele>311.144901</ele>
        <time>2021-11-22T12:44:31.035Z</time>
      </trkpt>
      <trkpt lat="47.549871" lon="8.014427">
        <ele>311.568458</ele>
        <time>2021-11-22T12:44:37.222Z</time>
      </trkpt>
      <trkpt lat="47.549795" lon="8.014667">
        <ele>311.825017</ele>
        <time>2021-11-22T12:44:40.723Z</time>
      </trkpt>
      <trkpt lat="47.549589" lon="8.015316">
        <ele>312.519093</ele>
        <time>2021-11-22T12:44:50.100Z</time>
      </trkpt>
      <trkpt lat="47.549431" lon="8.015998">
        <ele>313.148745</ele>
        <time>2021-11-22T12:45:00.015Z</time>
      </trkpt>
      <trkpt lat="47.549281" lon="8.017304">
        <ele>314.283054</ele>
        <time>2021-11-22T12:45:17.238Z</time>
      </trkpt>
      <trkpt lat="47.549274" lon="8.017401">
        <ele>314.366582</ele>
        <time>2021-11-22T12:45:18.531Z</time>
      </trkpt>
      <trkpt lat="47.549236" lon="8.017402">
        <ele>314.414795</ele>
        <time>2021-11-22T12:45:19.354Z</time>
      </trkpt>
      <trkpt lat="47.549145" lon="8.017497">
        <ele>314.556014</ele>
        <time>2021-11-22T12:45:21.612Z</time>
      </trkpt>
      <trkpt lat="47.549133" lon="8.017550">
        <ele>314.603880</ele>
        <time>2021-11-22T12:45:22.601Z</time>
      </trkpt>
      <trkpt lat="47.549131" lon="8.017604">
        <ele>314.650186</ele>
        <time>2021-11-22T12:45:23.117Z</time>
      </trkpt>
      <trkpt lat="47.549220" lon="8.017761">
        <ele>314.825737</ele>
        <time>2021-11-22T12:45:25.695Z</time>
      </trkpt>
      <trkpt lat="47.549256" lon="8.017769">
        <ele>314.871916</ele>
        <time>2021-11-22T12:45:26.498Z</time>
      </trkpt>
      <trkpt lat="47.549261" lon="8.017878">
        <ele>314.973510</ele>
        <time>2021-11-22T12:45:28.139Z</time>
      </trkpt>
      <trkpt lat="47.549208" lon="8.019997">
        <ele>317.039963</ele>
        <time>2021-11-22T12:45:58.693Z</time>
      </trkpt>
      <trkpt lat="47.549186" lon="8.021006">
        <ele>317.778582</ele>
        <time>2021-11-22T12:46:11.756Z</time>
      </trkpt>
      <trkpt lat="47.549191" lon="8.021436">
        <ele>317.999921</ele>
        <time>2021-11-22T12:46:17.137Z</time>
      </trkpt>
      <trkpt lat="47.549201" lon="8.022146">
        <ele>318.365412</ele>
        <time>2021-11-22T12:46:25.939Z</time>
      </trkpt>
      <trkpt lat="47.549268" lon="8.023385">
        <ele>318.855652</ele>
        <time>2021-11-22T12:46:39.891Z</time>
      </trkpt>
      <trkpt lat="47.549322" lon="8.024323">
        <ele>318.780782</ele>
        <time>2021-11-22T12:46:49.275Z</time>
      </trkpt>
      <trkpt lat="47.549436" lon="8.026046">
        <ele>318.557870</ele>
        <time>2021-11-22T12:47:05.496Z</time>
      </trkpt>
      <trkpt lat="47.549454" lon="8.027138">
        <ele>318.112098</ele>
        <time>2021-11-22T12:47:14.782Z</time>
      </trkpt>
      <trkpt lat="47.549445" lon="8.027599">
        <ele>317.923887</ele>
        <time>2021-11-22T12:47:18.741Z</time>
      </trkpt>
      <trkpt lat="47.549431" lon="8.028306">
        <ele>317.635241</ele>
        <time>2021-11-22T12:47:24.974Z</time>
      </trkpt>
      <trkpt lat="47.549418" lon="8.028906">
        <ele>317.451016</ele>
        <time>2021-11-22T12:47:30.391Z</time>
      </trkpt>
      <trkpt lat="47.549380" lon="8.030702">
        <ele>316.957310</ele>
        <time>2021-11-22T12:47:46.277Z</time>
      </trkpt>
      <trkpt lat="47.549378" lon="8.030790">
        <ele>316.933118</ele>
        <time>2021-11-22T12:47:47.206Z</time>
      </trkpt>
      <trkpt lat="47.549372" lon="8.031883">
        <ele>316.863743</ele>
        <time>2021-11-22T12:47:58.444Z</time>
      </trkpt>
      <trkpt lat="47.549368" lon="8.032544">
        <ele>316.880689</ele>
        <time>2021-11-22T12:48:04.694Z</time>
      </trkpt>
      <trkpt lat="47.549363" lon="8.032869">
        <ele>316.889023</ele>
        <time>2021-11-22T12:48:09.055Z</time>
      </trkpt>
      <trkpt lat="47.549374" lon="8.033423">
        <ele>316.903231</ele>
        <time>2021-11-22T12:48:15.061Z</time>
      </trkpt>
      <trkpt lat="47.549386" lon="8.033799">
        <ele>316.905256</ele>
        <time>2021-11-22T12:48:18.282Z</time>
      </trkpt>
      <trkpt lat="47.549394" lon="8.034003">
        <ele>316.835375</ele>
        <time>2021-11-22T12:48:21.372Z</time>
      </trkpt>
      <trkpt lat="47.549395" lon="8.034029">
        <ele>316.826469</ele>
        <time>2021-11-22T12:48:21.518Z</time>
      </trkpt>
      <trkpt lat="47.549442" lon="8.034584">
        <ele>316.635183</ele>
        <time>2021-11-22T12:48:26.722Z</time>
      </trkpt>
      <trkpt lat="47.549494" lon="8.034935">
        <ele>316.512291</ele>
        <time>2021-11-22T12:48:30.529Z</time>
      </trkpt>
      <trkpt lat="47.549554" lon="8.035288">
        <ele>316.387804</ele>
        <time>2021-11-22T12:48:33.606Z</time>
      </trkpt>
      <trkpt lat="47.549632" lon="8.035633">
        <ele>316.263379</ele>
        <time>2021-11-22T12:48:36.760Z</time>
      </trkpt>
      <trkpt lat="47.549699" lon="8.035900">
        <ele>316.165965</ele>
        <time>2021-11-22T12:48:39.256Z</time>
      </trkpt>
      <trkpt lat="47.549753" lon="8.036077">
        <ele>316.099539</ele>
        <time>2021-11-22T12:48:40.930Z</time>
      </trkpt>
      <trkpt lat="47.549832" lon="8.036349">
        <ele>315.997328</ele>
        <time>2021-11-22T12:48:43.370Z</time>
      </trkpt>
      <trkpt lat="47.550111" lon="8.037123">
        <ele>315.594263</ele>
        <time>2021-11-22T12:48:50.561Z</time>
      </trkpt>
      <trkpt lat="47.550424" lon="8.037956">
        <ele>315.156327</ele>
        <time>2021-11-22T12:48:58.330Z</time>
      </trkpt>
      <trkpt lat="47.550515" lon="8.038174">
        <ele>315.038585</ele>
        <time>2021-11-22T12:49:00.577Z</time>
      </trkpt>
      <trkpt lat="47.551001" lon="8.039426">
        <ele>315.443408</ele>
        <time>2021-11-22T12:49:15.876Z</time>
      </trkpt>
      <trkpt lat="47.551167" lon="8.039905">
        <ele>315.853703</ele>
        <time>2021-11-22T12:49:22.922Z</time>
      </trkpt>
      <trkpt lat="47.551627" lon="8.041127">
        <ele>317.027095</ele>
        <time>2021-11-22T12:49:43.468Z</time>
      </trkpt>
      <trkpt lat="47.552844" lon="8.044355">
        <ele>321.899192</ele>
        <time>2021-11-22T12:50:43.419Z</time>
      </trkpt>
      <trkpt lat="47.553619" lon="8.046372">
        <ele>322.945031</ele>
        <time>2021-11-22T12:51:11.257Z</time>
      </trkpt>
      <trkpt lat="47.553996" lon="8.047557">
        <ele>322.369703</ele>
        <time>2021-11-22T12:51:22.166Z</time>
      </trkpt>
      <trkpt lat="47.554309" lon="8.048719">
        <ele>321.190462</ele>
        <time>2021-11-22T12:51:31.444Z</time>
      </trkpt>
      <trkpt lat="47.554412" lon="8.049127">
        <ele>320.624383</ele>
        <time>2021-11-22T12:51:34.611Z</time>
      </trkpt>
      <trkpt lat="47.554715" lon="8.050527">
        <ele>318.713815</ele>
        <time>2021-11-22T12:51:45.516Z</time>
      </trkpt>
      <trkpt lat="47.554988" lon="8.051475">
        <ele>318.055103</ele>
        <time>2021-11-22T12:51:53.442Z</time>
      </trkpt>
      <trkpt lat="47.555259" lon="8.052135">
        <ele>317.575218</ele>
        <time>2021-11-22T12:52:00.216Z</time>
      </trkpt>
      <trkpt lat="47.555603" lon="8.052757">
        <ele>317.075694</ele>
        <time>2021-11-22T12:52:07.705Z</time>
      </trkpt>
      <trkpt lat="47.555773" lon="8.053070">
        <ele>317.025846</ele>
        <time>2021-11-22T12:52:11.554Z</time>
      </trkpt>
      <trkpt lat="47.555890" lon="8.053286">
        <ele>317.028389</ele>
        <time>2021-11-22T12:52:14.161Z</time>
      </trkpt>
      <trkpt lat="47.556032" lon="8.053510">
        <ele>317.031212</ele>
        <time>2021-11-22T12:52:16.827Z</time>
      </trkpt>
      <trkpt lat="47.556239" lon="8.053780">
        <ele>317.034964</ele>
        <time>2021-11-22T12:52:20.777Z</time>
      </trkpt>
      <trkpt lat="47.556494" lon="8.054073">
        <ele>317.039355</ele>
        <time>2021-11-22T12:52:26.020Z</time>
      </trkpt>
      <trkpt lat="47.557019" lon="8.054678">
        <ele>317.044874</ele>
        <time>2021-11-22T12:52:37.140Z</time>
      </trkpt>
      <trkpt lat="47.557097" lon="8.054768">
        <ele>317.041439</ele>
        <time>2021-11-22T12:52:38.377Z</time>
      </trkpt>
      <trkpt lat="47.557273" lon="8.054941">
        <ele>317.034101</ele>
        <time>2021-11-22T12:52:41.702Z</time>
      </trkpt>
      <trkpt lat="47.557500" lon="8.055133">
        <ele>317.025019</ele>
        <time>2021-11-22T12:52:45.267Z</time>
      </trkpt>
      <trkpt lat="47.557710" lon="8.055283">
        <ele>317.016919</ele>
        <time>2021-11-22T12:52:48.421Z</time>
      </trkpt>
      <trkpt lat="47.557918" lon="8.055409">
        <ele>317.009112</ele>
        <time>2021-11-22T12:52:51.700Z</time>
      </trkpt>
      <trkpt lat="47.558012" lon="8.055477">
        <ele>317.005477</ele>
        <time>2021-11-22T12:52:53.075Z</time>
      </trkpt>
      <trkpt lat="47.558239" lon="8.055639">
        <ele>316.996723</ele>
        <time>2021-11-22T12:52:56.906Z</time>
      </trkpt>
      <trkpt lat="47.558447" lon="8.055831">
        <ele>316.988208</ele>
        <time>2021-11-22T12:53:00.489Z</time>
      </trkpt>
      <trkpt lat="47.558662" lon="8.056061">
        <ele>317.018640</ele>
        <time>2021-11-22T12:53:04.917Z</time>
      </trkpt>
      <trkpt lat="47.559116" lon="8.056760">
        <ele>317.148171</ele>
        <time>2021-11-22T12:53:15.025Z</time>
      </trkpt>
      <trkpt lat="47.559294" lon="8.057130">
        <ele>317.208840</ele>
        <time>2021-11-22T12:53:19.694Z</time>
      </trkpt>
      <trkpt lat="47.559447" lon="8.057490">
        <ele>317.265643</ele>
        <time>2021-11-22T12:53:24.059Z</time>
      </trkpt>
      <trkpt lat="47.559548" lon="8.057827">
        <ele>317.314875</ele>
        <time>2021-11-22T12:53:28.049Z</time>
      </trkpt>
      <trkpt lat="47.559579" lon="8.057955">
        <ele>317.333032</ele>
        <time>2021-11-22T12:53:29.492Z</time>
      </trkpt>
      <trkpt lat="47.559654" lon="8.058257">
        <ele>317.398879</ele>
        <time>2021-11-22T12:53:33.097Z</time>
      </trkpt>
      <trkpt lat="47.559725" lon="8.058554">
        <ele>317.468281</ele>
        <time>2021-11-22T12:53:36.491Z</time>
      </trkpt>
      <trkpt lat="47.559859" lon="8.059093">
        <ele>317.594802</ele>
        <time>2021-11-22T12:53:42.610Z</time>
      </trkpt>
      <trkpt lat="47.559979" lon="8.059591">
        <ele>317.711276</ele>
        <time>2021-11-22T12:53:48.198Z</time>
      </trkpt>
      <trkpt lat="47.560019" lon="8.059741">
        <ele>317.746801</ele>
        <time>2021-11-22T12:53:50.006Z</time>
      </trkpt>
      <trkpt lat="47.560040" lon="8.059827">
        <ele>317.766945</ele>
        <time>2021-11-22T12:53:50.949Z</time>
      </trkpt>
      <trkpt lat="47.560069" lon="8.059943">
        <ele>317.794193</ele>
        <time>2021-11-22T12:53:52.194Z</time>
      </trkpt>
      <trkpt lat="47.560130" lon="8.060196">
        <ele>317.853369</ele>
        <time>2021-11-22T12:53:55.239Z</time>
      </trkpt>
      <trkpt lat="47.560262" lon="8.060729">
        <ele>318.047485</ele>
        <time>2021-11-22T12:54:01.496Z</time>
      </trkpt>
      <trkpt lat="47.560293" lon="8.060828">
        <ele>318.104354</ele>
        <time>2021-11-22T12:54:02.777Z</time>
      </trkpt>
      <trkpt lat="47.560335" lon="8.060984">
        <ele>318.191872</ele>
        <time>2021-11-22T12:54:04.810Z</time>
      </trkpt>
      <trkpt lat="47.560570" lon="8.061926">
        <ele>318.715187</ele>
        <time>2021-11-22T12:54:17.481Z</time>
      </trkpt>
      <trkpt lat="47.560765" lon="8.062729">
        <ele>319.159873</ele>
        <time>2021-11-22T12:54:27.651Z</time>
      </trkpt>
      <trkpt lat="47.560673" lon="8.062786">
        <ele>319.236871</ele>
        <time>2021-11-22T12:54:30.023Z</time>
      </trkpt>
      <trkpt lat="47.560580" lon="8.062890">
        <ele>319.324703</ele>
        <time>2021-11-22T12:54:32.761Z</time>
      </trkpt>
      <trkpt lat="47.560545" lon="8.062928">
        <ele>319.351148</ele>
        <time>2021-11-22T12:54:33.550Z</time>
      </trkpt>
      <trkpt lat="47.560443" lon="8.063042">
        <ele>319.429014</ele>
        <time>2021-11-22T12:54:35.973Z</time>
      </trkpt>
      <trkpt lat="47.560335" lon="8.063169">
        <ele>319.513045</ele>
        <time>2021-11-22T12:54:38.569Z</time>
      </trkpt>
      <trkpt lat="47.560392" lon="8.063300">
        <ele>319.577153</ele>
        <time>2021-11-22T12:54:40.416Z</time>
      </trkpt>
      <trkpt lat="47.560719" lon="8.063873">
        <ele>319.885796</ele>
        <time>2021-11-22T12:54:49.728Z</time>
      </trkpt>
      <trkpt lat="47.560806" lon="8.064037">
        <ele>319.971594</ele>
        <time>2021-11-22T12:54:52.231Z</time>
      </trkpt>
      <trkpt lat="47.560887" lon="8.064271">
        <ele>320.079758</ele>
        <time>2021-11-22T12:54:55.361Z</time>
      </trkpt>
      <trkpt lat="47.561017" lon="8.064820">
        <ele>320.319051</ele>
        <time>2021-11-22T12:55:01.975Z</time>
      </trkpt>
      <trkpt lat="47.561108" lon="8.065242">
        <ele>320.428608</ele>
        <time>2021-11-22T12:55:06.218Z</time>
      </trkpt>
      <trkpt lat="47.561253" lon="8.066385">
        <ele>320.513373</ele>
        <time>2021-11-22T12:55:17.211Z</time>
      </trkpt>
      <trkpt lat="47.561276" lon="8.067022">
        <ele>320.559866</ele>
        <time>2021-11-22T12:55:23.463Z</time>
      </trkpt>
      <trkpt lat="47.561265" lon="8.067435">
        <ele>320.589990</ele>
        <time>2021-11-22T12:55:27.845Z</time>
      </trkpt>
      <trkpt lat="47.561229" lon="8.067903">
        <ele>320.869440</ele>
        <time>2021-11-22T12:55:33.589Z</time>
      </trkpt>
      <trkpt lat="47.561187" lon="8.068256">
        <ele>321.270182</ele>
        <time>2021-11-22T12:55:37.995Z</time>
      </trkpt>
      <trkpt lat="47.561130" lon="8.068650">
        <ele>321.720684</ele>
        <time>2021-11-22T12:55:43.238Z</time>
      </trkpt>
      <trkpt lat="47.560998" lon="8.069237">
        <ele>322.412431</ele>
        <time>2021-11-22T12:55:52.386Z</time>
      </trkpt>
      <trkpt lat="47.560904" lon="8.069780">
        <ele>323.039166</ele>
        <time>2021-11-22T12:56:01.345Z</time>
      </trkpt>
      <trkpt lat="47.560864" lon="8.070015">
        <ele>323.310127</ele>
        <time>2021-11-22T12:56:05.377Z</time>
      </trkpt>
      <trkpt lat="47.560739" lon="8.070551">
        <ele>324.054844</ele>
        <time>2021-11-22T12:56:14.991Z</time>
      </trkpt>
      <trkpt lat="47.560584" lon="8.070919">
        <ele>324.690223</ele>
        <time>2021-11-22T12:56:22.304Z</time>
      </trkpt>
      <trkpt lat="47.560553" lon="8.071099">
        <ele>324.962317</ele>
        <time>2021-11-22T12:56:25.496Z</time>
      </trkpt>
      <trkpt lat="47.560524" lon="8.071179">
        <ele>325.095328</ele>
        <time>2021-11-22T12:56:27.256Z</time>
      </trkpt>
      <trkpt lat="47.560318" lon="8.072316">
        <ele>326.819654</ele>
        <time>2021-11-22T12:56:46.157Z</time>
      </trkpt>
      <trkpt lat="47.559811" lon="8.074398">
        <ele>329.269432</ele>
        <time>2021-11-22T12:57:16.997Z</time>
      </trkpt>
      <trkpt lat="47.559426" lon="8.075372">
        <ele>330.433071</ele>
        <time>2021-11-22T12:57:32.447Z</time>
      </trkpt>
      <trkpt lat="47.559046" lon="8.076086">
        <ele>331.437105</ele>
        <time>2021-11-22T12:57:45.471Z</time>
      </trkpt>
      <trkpt lat="47.558613" lon="8.076826">
        <ele>332.518557</ele>
        <time>2021-11-22T12:58:00.055Z</time>
      </trkpt>
      <trkpt lat="47.557793" lon="8.078299">
        <ele>333.438431</ele>
        <time>2021-11-22T12:58:27.812Z</time>
      </trkpt>
      <trkpt lat="47.557256" lon="8.079416">
        <ele>333.600086</ele>
        <time>2021-11-22T12:58:39.660Z</time>
      </trkpt>
      <trkpt lat="47.557099" lon="8.079786">
        <ele>332.585516</ele>
        <time>2021-11-22T12:58:42.898Z</time>
      </trkpt>
      <trkpt lat="47.556853" lon="8.080477">
        <ele>330.771950</ele>
        <time>2021-11-22T12:58:48.284Z</time>
      </trkpt>
      <trkpt lat="47.556470" lon="8.081563">
        <ele>327.927465</ele>
        <time>2021-11-22T12:58:56.299Z</time>
      </trkpt>
      <trkpt lat="47.556083" lon="8.083354">
        <ele>321.603707</ele>
        <time>2021-11-22T12:59:08.103Z</time>
      </trkpt>
      <trkpt lat="47.555956" lon="8.084115">
        <ele>318.889596</ele>
        <time>2021-11-22T12:59:13.106Z</time>
      </trkpt>
      <trkpt lat="47.555899" lon="8.084472">
        <ele>317.758547</ele>
        <time>2021-11-22T12:59:15.426Z</time>
      </trkpt>
      <trkpt lat="47.555764" lon="8.085769">
        <ele>314.117995</ele>
        <time>2021-11-22T12:59:23.891Z</time>
      </trkpt>
      <trkpt lat="47.555733" lon="8.086819">
        <ele>311.202398</ele>
        <time>2021-11-22T12:59:30.819Z</time>
      </trkpt>
      <trkpt lat="47.555737" lon="8.087083">
        <ele>310.965798</ele>
        <time>2021-11-22T12:59:32.617Z</time>
      </trkpt>
      <trkpt lat="47.555780" lon="8.087557">
        <ele>311.082134</ele>
        <time>2021-11-22T12:59:36.107Z</time>
      </trkpt>
      <trkpt lat="47.555809" lon="8.087783">
        <ele>311.138093</ele>
        <time>2021-11-22T12:59:38.542Z</time>
      </trkpt>
      <trkpt lat="47.555829" lon="8.087941">
        <ele>311.177196</ele>
        <time>2021-11-22T12:59:40.139Z</time>
      </trkpt>
      <trkpt lat="47.555887" lon="8.088299">
        <ele>311.266753</ele>
        <time>2021-11-22T12:59:43.703Z</time>
      </trkpt>
      <trkpt lat="47.555939" lon="8.088552">
        <ele>311.331085</ele>
        <time>2021-11-22T12:59:46.499Z</time>
      </trkpt>
      <trkpt lat="47.555991" lon="8.088778">
        <ele>311.389166</ele>
        <time>2021-11-22T12:59:49.934Z</time>
      </trkpt>
      <trkpt lat="47.555997" lon="8.088801">
        <ele>311.395164</ele>
        <time>2021-11-22T12:59:50.527Z</time>
      </trkpt>
      <trkpt lat="47.556065" lon="8.089084">
        <ele>311.468236</ele>
        <time>2021-11-22T12:59:54.819Z</time>
      </trkpt>
      <trkpt lat="47.556111" lon="8.089266">
        <ele>311.515510</ele>
        <time>2021-11-22T12:59:58.627Z</time>
      </trkpt>
      <trkpt lat="47.556151" lon="8.089459">
        <ele>311.564620</ele>
        <time>2021-11-22T13:00:03.270Z</time>
      </trkpt>
      <trkpt lat="47.556137" lon="8.089730">
        <ele>312.314728</ele>
        <time>2021-11-22T13:00:08.488Z</time>
      </trkpt>
      <trkpt lat="47.556110" lon="8.089809">
        <ele>312.596472</ele>
        <time>2021-11-22T13:00:10.760Z</time>
      </trkpt>
      <trkpt lat="47.556193" lon="8.089926">
        <ele>313.136553</ele>
        <time>2021-11-22T13:00:14.737Z</time>
      </trkpt>
      <trkpt lat="47.556259" lon="8.090058">
        <ele>313.659236</ele>
        <time>2021-11-22T13:00:17.780Z</time>
      </trkpt>
      <trkpt lat="47.556527" lon="8.090721">
        <ele>316.118103</ele>
        <time>2021-11-22T13:00:36.036Z</time>
      </trkpt>
      <trkpt lat="47.556692" lon="8.091113">
        <ele>317.588000</ele>
        <time>2021-11-22T13:00:47.819Z</time>
      </trkpt>
      <trkpt lat="47.556850" lon="8.091457">
        <ele>318.911905</ele>
        <time>2021-11-22T13:00:58.328Z</time>
      </trkpt>
      <trkpt lat="47.557677" lon="8.092776">
        <ele>324.003748</ele>
        <time>2021-11-22T13:01:38.381Z</time>
      </trkpt>
      <trkpt lat="47.558531" lon="8.094661">
        <ele>330.508388</ele>
        <time>2021-11-22T13:02:21.564Z</time>
      </trkpt>
      <trkpt lat="47.558776" lon="8.095210">
        <ele>332.490156</ele>
        <time>2021-11-22T13:02:35.903Z</time>
      </trkpt>
      <trkpt lat="47.558857" lon="8.095293">
        <ele>332.929550</ele>
        <time>2021-11-22T13:02:40.725Z</time>
      </trkpt>
      <trkpt lat="47.558983" lon="8.095482">
        <ele>333.729481</ele>
        <time>2021-11-22T13:02:47.461Z</time>
      </trkpt>
      <trkpt lat="47.559606" lon="8.096837">
        <ele>339.161558</ele>
        <time>2021-11-22T13:03:36.405Z</time>
      </trkpt>
      <trkpt lat="47.560171" lon="8.097877">
        <ele>343.787840</ele>
        <time>2021-11-22T13:04:14.200Z</time>
      </trkpt>
      <trkpt lat="47.560787" lon="8.098864">
        <ele>344.996623</ele>
        <time>2021-11-22T13:04:42.447Z</time>
      </trkpt>
      <trkpt lat="47.561466" lon="8.099697">
        <ele>345.444706</ele>
        <time>2021-11-22T13:04:58.737Z</time>
      </trkpt>
      <trkpt lat="47.562207" lon="8.100413">
        <ele>343.248992</ele>
        <time>2021-11-22T13:05:11.329Z</time>
      </trkpt>
      <trkpt lat="47.563031" lon="8.100935">
        <ele>340.380019</ele>
        <time>2021-11-22T13:05:24.232Z</time>
      </trkpt>
      <trkpt lat="47.563202" lon="8.101042">
        <ele>339.785759</ele>
        <time>2021-11-22T13:05:26.819Z</time>
      </trkpt>
      <trkpt lat="47.564165" lon="8.101615">
        <ele>337.442240</ele>
        <time>2021-11-22T13:05:37.781Z</time>
      </trkpt>
      <trkpt lat="47.565727" lon="8.102512">
        <ele>333.833069</ele>
        <time>2021-11-22T13:05:56.969Z</time>
      </trkpt>
      <trkpt lat="47.566684" lon="8.102974">
        <ele>331.694306</ele>
        <time>2021-11-22T13:06:07.570Z</time>
      </trkpt>
      <trkpt lat="47.567683" lon="8.103272">
        <ele>329.110030</ele>
        <time>2021-11-22T13:06:18.190Z</time>
      </trkpt>
      <trkpt lat="47.569557" lon="8.103677">
        <ele>324.075110</ele>
        <time>2021-11-22T13:06:38.422Z</time>
      </trkpt>
      <trkpt lat="47.570159" lon="8.103813">
        <ele>322.356807</ele>
        <time>2021-11-22T13:06:44.726Z</time>
      </trkpt>
      <trkpt lat="47.570286" lon="8.103898">
        <ele>321.784095</ele>
        <time>2021-11-22T13:06:46.106Z</time>
      </trkpt>
      <trkpt lat="47.570517" lon="8.104111">
        <ele>320.665972</ele>
        <time>2021-11-22T13:06:48.669Z</time>
      </trkpt>
      <trkpt lat="47.570786" lon="8.104202">
        <ele>319.531966</ele>
        <time>2021-11-22T13:06:51.259Z</time>
      </trkpt>
      <trkpt lat="47.570863" lon="8.104203">
        <ele>319.215488</ele>
        <time>2021-11-22T13:06:52.014Z</time>
      </trkpt>
      <trkpt lat="47.571140" lon="8.104418">
        <ele>317.930381</ele>
        <time>2021-11-22T13:06:54.973Z</time>
      </trkpt>
      <trkpt lat="47.571149" lon="8.104460">
        <ele>317.808188</ele>
        <time>2021-11-22T13:06:55.288Z</time>
      </trkpt>
      <trkpt lat="47.571165" lon="8.104498">
        <ele>317.683982</ele>
        <time>2021-11-22T13:06:55.625Z</time>
      </trkpt>
      <trkpt lat="47.571190" lon="8.104530">
        <ele>317.548223</ele>
        <time>2021-11-22T13:06:55.941Z</time>
      </trkpt>
      <trkpt lat="47.571252" lon="8.104556">
        <ele>317.283404</ele>
        <time>2021-11-22T13:06:56.582Z</time>
      </trkpt>
      <trkpt lat="47.571285" lon="8.104547">
        <ele>317.145499</ele>
        <time>2021-11-22T13:06:56.899Z</time>
      </trkpt>
      <trkpt lat="47.571319" lon="8.104520">
        <ele>316.986968</ele>
        <time>2021-11-22T13:06:57.264Z</time>
      </trkpt>
      <trkpt lat="47.571345" lon="8.104476">
        <ele>316.824783</ele>
        <time>2021-11-22T13:06:57.627Z</time>
      </trkpt>
      <trkpt lat="47.571404" lon="8.104462">
        <ele>316.579208</ele>
        <time>2021-11-22T13:06:58.169Z</time>
      </trkpt>
      <trkpt lat="47.571506" lon="8.104457">
        <ele>316.159764</ele>
        <time>2021-11-22T13:06:59.214Z</time>
      </trkpt>
      <trkpt lat="47.571606" lon="8.104456">
        <ele>315.748761</ele>
        <time>2021-11-22T13:07:00.191Z</time>
      </trkpt>
      <trkpt lat="47.571788" lon="8.104486">
        <ele>315.111309</ele>
        <time>2021-11-22T13:07:01.894Z</time>
      </trkpt>
      <trkpt lat="47.572479" lon="8.104559">
        <ele>314.538664</ele>
        <time>2021-11-22T13:07:09.264Z</time>
      </trkpt>
      <trkpt lat="47.573291" lon="8.104448">
        <ele>313.864598</ele>
        <time>2021-11-22T13:07:20.698Z</time>
      </trkpt>
      <trkpt lat="47.573366" lon="8.104434">
        <ele>313.802111</ele>
        <time>2021-11-22T13:07:23.166Z</time>
      </trkpt>
      <trkpt lat="47.573446" lon="8.104418">
        <ele>313.735382</ele>
        <time>2021-11-22T13:07:25.418Z</time>
      </trkpt>
      <trkpt lat="47.573480" lon="8.104411">
        <ele>313.707007</ele>
        <time>2021-11-22T13:07:26.287Z</time>
      </trkpt>
      <trkpt lat="47.573668" lon="8.104380">
        <ele>313.876345</ele>
        <time>2021-11-22T13:07:30.092Z</time>
      </trkpt>
      <trkpt lat="47.573831" lon="8.104354">
        <ele>314.169929</ele>
        <time>2021-11-22T13:07:34.949Z</time>
      </trkpt>
      <trkpt lat="47.574232" lon="8.104312">
        <ele>314.889828</ele>
        <time>2021-11-22T13:07:44.638Z</time>
      </trkpt>
      <trkpt lat="47.574708" lon="8.104323">
        <ele>315.742349</ele>
        <time>2021-11-22T13:07:55.643Z</time>
      </trkpt>
      <trkpt lat="47.574899" lon="8.104362">
        <ele>316.087620</ele>
        <time>2021-11-22T13:08:01.205Z</time>
      </trkpt>
      <trkpt lat="47.575253" lon="8.104463">
        <ele>316.733197</ele>
        <time>2021-11-22T13:08:08.369Z</time>
      </trkpt>
      <trkpt lat="47.576181" lon="8.104949">
        <ele>316.894106</ele>
        <time>2021-11-22T13:08:22.940Z</time>
      </trkpt>
      <trkpt lat="47.576601" lon="8.105189">
        <ele>316.903854</ele>
        <time>2021-11-22T13:08:28.812Z</time>
      </trkpt>
      <trkpt lat="47.576841" lon="8.105315">
        <ele>316.909367</ele>
        <time>2021-11-22T13:08:32.188Z</time>
      </trkpt>
      <trkpt lat="47.577500" lon="8.105730">
        <ele>317.277969</ele>
        <time>2021-11-22T13:08:42.667Z</time>
      </trkpt>
      <trkpt lat="47.578068" lon="8.106263">
        <ele>317.742594</ele>
        <time>2021-11-22T13:08:54.179Z</time>
      </trkpt>
      <trkpt lat="47.578187" lon="8.106429">
        <ele>317.855532</ele>
        <time>2021-11-22T13:08:57.384Z</time>
      </trkpt>
      <trkpt lat="47.578335" lon="8.106654">
        <ele>318.002054</ele>
        <time>2021-11-22T13:09:01.541Z</time>
      </trkpt>
      <trkpt lat="47.579759" lon="8.109482">
        <ele>322.192991</ele>
        <time>2021-11-22T13:09:54.998Z</time>
      </trkpt>
      <trkpt lat="47.579823" lon="8.109617">
        <ele>322.405918</ele>
        <time>2021-11-22T13:09:57.812Z</time>
      </trkpt>
      <trkpt lat="47.579991" lon="8.109948">
        <ele>322.940454</ele>
        <time>2021-11-22T13:10:03.787Z</time>
      </trkpt>
      <trkpt lat="47.580212" lon="8.110399">
        <ele>323.659786</ele>
        <time>2021-11-22T13:10:11.969Z</time>
      </trkpt>
      <trkpt lat="47.580364" lon="8.110708">
        <ele>324.153288</ele>
        <time>2021-11-22T13:10:17.780Z</time>
      </trkpt>
      <trkpt lat="47.580670" lon="8.111332">
        <ele>325.241987</ele>
        <time>2021-11-22T13:10:29.667Z</time>
      </trkpt>
      <trkpt lat="47.581045" lon="8.112180">
        <ele>327.158706</ele>
        <time>2021-11-22T13:10:45.966Z</time>
      </trkpt>
      <trkpt lat="47.581182" lon="8.112552">
        <ele>327.959867</ele>
        <time>2021-11-22T13:10:53.408Z</time>
      </trkpt>
      <trkpt lat="47.581277" lon="8.112870">
        <ele>328.617289</ele>
        <time>2021-11-22T13:10:59.839Z</time>
      </trkpt>
      <trkpt lat="47.581391" lon="8.113276">
        <ele>329.448575</ele>
        <time>2021-11-22T13:11:08.772Z</time>
      </trkpt>
      <trkpt lat="47.581427" lon="8.113428">
        <ele>329.753092</ele>
        <time>2021-11-22T13:11:11.883Z</time>
      </trkpt>
      <trkpt lat="47.581503" lon="8.113781">
        <ele>330.497476</ele>
        <time>2021-11-22T13:11:19.339Z</time>
      </trkpt>
      <trkpt lat="47.581610" lon="8.114392">
        <ele>331.803551</ele>
        <time>2021-11-22T13:11:31.660Z</time>
      </trkpt>
      <trkpt lat="47.581698" lon="8.115075">
        <ele>333.242231</ele>
        <time>2021-11-22T13:11:44.700Z</time>
      </trkpt>
      <trkpt lat="47.581747" lon="8.115421">
        <ele>333.973713</ele>
        <time>2021-11-22T13:11:51.172Z</time>
      </trkpt>
      <trkpt lat="47.581851" lon="8.116146">
        <ele>335.506938</ele>
        <time>2021-11-22T13:12:03.834Z</time>
      </trkpt>
      <trkpt lat="47.582058" lon="8.118074">
        <ele>338.694524</ele>
        <time>2021-11-22T13:12:32.826Z</time>
      </trkpt>
      <trkpt lat="47.581997" lon="8.119489">
        <ele>341.722320</ele>
        <time>2021-11-22T13:13:00.040Z</time>
      </trkpt>
      <trkpt lat="47.581925" lon="8.120891">
        <ele>345.440653</ele>
        <time>2021-11-22T13:13:32.392Z</time>
      </trkpt>
      <trkpt lat="47.581872" lon="8.121939">
        <ele>346.946614</ele>
        <time>2021-11-22T13:13:53.000Z</time>
      </trkpt>
      <trkpt lat="47.581853" lon="8.122293">
        <ele>346.972196</ele>
        <time>2021-11-22T13:13:58.743Z</time>
      </trkpt>
      <trkpt lat="47.581616" lon="8.126107">
        <ele>344.174539</ele>
        <time>2021-11-22T13:14:28.352Z</time>
      </trkpt>
      <trkpt lat="47.581682" lon="8.126961">
        <ele>343.018013</ele>
        <time>2021-11-22T13:14:33.946Z</time>
      </trkpt>
      <trkpt lat="47.581995" lon="8.128036">
        <ele>341.844755</ele>
        <time>2021-11-22T13:14:42.284Z</time>
      </trkpt>
      <trkpt lat="47.582054" lon="8.128175">
        <ele>341.680190</ele>
        <time>2021-11-22T13:14:43.472Z</time>
      </trkpt>
      <trkpt lat="47.582271" lon="8.128732">
        <ele>341.035655</ele>
        <time>2021-11-22T13:14:49.478Z</time>
      </trkpt>
      <trkpt lat="47.582333" lon="8.128926">
        <ele>340.820547</ele>
        <time>2021-11-22T13:14:52.125Z</time>
      </trkpt>
      <trkpt lat="47.582383" lon="8.129121">
        <ele>340.611510</ele>
        <time>2021-11-22T13:14:54.077Z</time>
      </trkpt>
      <trkpt lat="47.582452" lon="8.129518">
        <ele>340.985910</ele>
        <time>2021-11-22T13:14:59.614Z</time>
      </trkpt>
      <trkpt lat="47.582476" lon="8.129918">
        <ele>341.479474</ele>
        <time>2021-11-22T13:15:05.119Z</time>
      </trkpt>
      <trkpt lat="47.582502" lon="8.130347">
        <ele>342.008863</ele>
        <time>2021-11-22T13:15:11.587Z</time>
      </trkpt>
      <trkpt lat="47.582401" lon="8.132729">
        <ele>343.030860</ele>
        <time>2021-11-22T13:15:51.104Z</time>
      </trkpt>
      <trkpt lat="47.582405" lon="8.133220">
        <ele>342.596624</ele>
        <time>2021-11-22T13:15:54.990Z</time>
      </trkpt>
      <trkpt lat="47.582445" lon="8.133813">
        <ele>342.069603</ele>
        <time>2021-11-22T13:15:59.219Z</time>
      </trkpt>
      <trkpt lat="47.582702" lon="8.135441">
        <ele>337.405844</ele>
        <time>2021-11-22T13:16:09.859Z</time>
      </trkpt>
      <trkpt lat="47.583161" lon="8.137044">
        <ele>330.390131</ele>
        <time>2021-11-22T13:16:20.411Z</time>
      </trkpt>
      <trkpt lat="47.583437" lon="8.137880">
        <ele>327.739040</ele>
        <time>2021-11-22T13:16:26.186Z</time>
      </trkpt>
      <trkpt lat="47.583514" lon="8.138100">
        <ele>327.033083</ele>
        <time>2021-11-22T13:16:27.770Z</time>
      </trkpt>
      <trkpt lat="47.583879" lon="8.139148">
        <ele>323.673663</ele>
        <time>2021-11-22T13:16:35.714Z</time>
      </trkpt>
      <trkpt lat="47.584040" lon="8.139585">
        <ele>322.984588</ele>
        <time>2021-11-22T13:16:39.465Z</time>
      </trkpt>
      <trkpt lat="47.584064" lon="8.139642">
        <ele>322.980748</ele>
        <time>2021-11-22T13:16:40.049Z</time>
      </trkpt>
      <trkpt lat="47.585261" lon="8.142529">
        <ele>322.633357</ele>
        <time>2021-11-22T13:17:18.444Z</time>
      </trkpt>
      <trkpt lat="47.585413" lon="8.142895">
        <ele>322.545902</ele>
        <time>2021-11-22T13:17:22.151Z</time>
      </trkpt>
      <trkpt lat="47.585796" lon="8.143867">
        <ele>322.316853</ele>
        <time>2021-11-22T13:17:31.795Z</time>
      </trkpt>
      <trkpt lat="47.585856" lon="8.144060">
        <ele>322.284514</ele>
        <time>2021-11-22T13:17:33.150Z</time>
      </trkpt>
      <trkpt lat="47.585989" lon="8.144423">
        <ele>322.230083</ele>
        <time>2021-11-22T13:17:39.019Z</time>
      </trkpt>
      <trkpt lat="47.586002" lon="8.144470">
        <ele>322.223390</ele>
        <time>2021-11-22T13:17:39.313Z</time>
      </trkpt>
      <trkpt lat="47.586071" lon="8.144677">
        <ele>322.192966</ele>
        <time>2021-11-22T13:17:42.018Z</time>
      </trkpt>
      <trkpt lat="47.586082" lon="8.144714">
        <ele>322.187638</ele>
        <time>2021-11-22T13:17:43.019Z</time>
      </trkpt>
      <trkpt lat="47.586191" lon="8.145057">
        <ele>322.137678</ele>
        <time>2021-11-22T13:17:45.592Z</time>
      </trkpt>
      <trkpt lat="47.586286" lon="8.145363">
        <ele>322.093293</ele>
        <time>2021-11-22T13:17:51.844Z</time>
      </trkpt>
      <trkpt lat="47.586304" lon="8.145415">
        <ele>322.085592</ele>
        <time>2021-11-22T13:17:52.191Z</time>
      </trkpt>
      <trkpt lat="47.586444" lon="8.145833">
        <ele>322.024098</ele>
        <time>2021-11-22T13:17:57.890Z</time>
      </trkpt>
      <trkpt lat="47.586480" lon="8.145943">
        <ele>322.007988</ele>
        <time>2021-11-22T13:17:58.639Z</time>
      </trkpt>
      <trkpt lat="47.586747" lon="8.146748">
        <ele>323.031419</ele>
        <time>2021-11-22T13:18:10.491Z</time>
      </trkpt>
      <trkpt lat="47.586812" lon="8.146941">
        <ele>323.514945</ele>
        <time>2021-11-22T13:18:12.026Z</time>
      </trkpt>
      <trkpt lat="47.586874" lon="8.147126">
        <ele>323.977975</ele>
        <time>2021-11-22T13:18:17.745Z</time>
      </trkpt>
      <trkpt lat="47.587271" lon="8.148318">
        <ele>326.957719</ele>
        <time>2021-11-22T13:18:44.988Z</time>
      </trkpt>
      <trkpt lat="47.587348" lon="8.148547">
        <ele>327.531247</ele>
        <time>2021-11-22T13:18:51.408Z</time>
      </trkpt>
      <trkpt lat="47.587422" lon="8.148776">
        <ele>328.227490</ele>
        <time>2021-11-22T13:18:57.189Z</time>
      </trkpt>
      <trkpt lat="47.587515" lon="8.149064">
        <ele>329.478417</ele>
        <time>2021-11-22T13:19:06.367Z</time>
      </trkpt>
      <trkpt lat="47.587893" lon="8.150269">
        <ele>334.684755</ele>
        <time>2021-11-22T13:19:41.315Z</time>
      </trkpt>
      <trkpt lat="47.588139" lon="8.151059">
        <ele>338.093584</ele>
        <time>2021-11-22T13:20:05.227Z</time>
      </trkpt>
      <trkpt lat="47.588281" lon="8.151539">
        <ele>339.161112</ele>
        <time>2021-11-22T13:20:17.618Z</time>
      </trkpt>
      <trkpt lat="47.588498" lon="8.152664">
        <ele>341.190574</ele>
        <time>2021-11-22T13:20:41.933Z</time>
      </trkpt>
      <trkpt lat="47.588556" lon="8.153527">
        <ele>342.694795</ele>
        <time>2021-11-22T13:20:51.450Z</time>
      </trkpt>
      <trkpt lat="47.588564" lon="8.154322">
        <ele>341.663148</ele>
        <time>2021-11-22T13:20:57.677Z</time>
      </trkpt>
      <trkpt lat="47.588527" lon="8.156347">
        <ele>337.264678</ele>
        <time>2021-11-22T13:21:10.977Z</time>
      </trkpt>
      <trkpt lat="47.588525" lon="8.156604">
        <ele>337.030449</ele>
        <time>2021-11-22T13:21:12.614Z</time>
      </trkpt>
      <trkpt lat="47.588519" lon="8.157044">
        <ele>336.686151</ele>
        <time>2021-11-22T13:21:15.462Z</time>
      </trkpt>
      <trkpt lat="47.588513" lon="8.157629">
        <ele>336.228431</ele>
        <time>2021-11-22T13:21:19.448Z</time>
      </trkpt>
      <trkpt lat="47.588496" lon="8.162682">
        <ele>337.372267</ele>
        <time>2021-11-22T13:22:27.544Z</time>
      </trkpt>
      <trkpt lat="47.588650" lon="8.165152">
        <ele>336.422264</ele>
        <time>2021-11-22T13:22:48.664Z</time>
      </trkpt>
      <trkpt lat="47.588804" lon="8.166249">
        <ele>335.180790</ele>
        <time>2021-11-22T13:22:56.839Z</time>
      </trkpt>
      <trkpt lat="47.588886" lon="8.166773">
        <ele>334.584801</ele>
        <time>2021-11-22T13:23:00.843Z</time>
      </trkpt>
      <trkpt lat="47.588936" lon="8.167065">
        <ele>334.324829</ele>
        <time>2021-11-22T13:23:03.066Z</time>
      </trkpt>
      <trkpt lat="47.589090" lon="8.168074">
        <ele>334.084770</ele>
        <time>2021-11-22T13:23:10.854Z</time>
      </trkpt>
      <trkpt lat="47.589109" lon="8.168214">
        <ele>334.051632</ele>
        <time>2021-11-22T13:23:12.177Z</time>
      </trkpt>
      <trkpt lat="47.589149" lon="8.168412">
        <ele>334.003669</ele>
        <time>2021-11-22T13:23:13.835Z</time>
      </trkpt>
      <trkpt lat="47.589265" lon="8.169049">
        <ele>333.850560</ele>
        <time>2021-11-22T13:23:21.281Z</time>
      </trkpt>
      <trkpt lat="47.589280" lon="8.169122">
        <ele>333.832852</ele>
        <time>2021-11-22T13:23:22.444Z</time>
      </trkpt>
      <trkpt lat="47.589338" lon="8.169503">
        <ele>333.742217</ele>
        <time>2021-11-22T13:23:28.329Z</time>
      </trkpt>
      <trkpt lat="47.589422" lon="8.169985">
        <ele>334.277268</ele>
        <time>2021-11-22T13:23:35.815Z</time>
      </trkpt>
      <trkpt lat="47.589432" lon="8.170029">
        <ele>334.337407</ele>
        <time>2021-11-22T13:23:36.494Z</time>
      </trkpt>
      <trkpt lat="47.589507" lon="8.170514">
        <ele>334.981902</ele>
        <time>2021-11-22T13:23:44.313Z</time>
      </trkpt>
      <trkpt lat="47.589603" lon="8.171150">
        <ele>335.826056</ele>
        <time>2021-11-22T13:23:54.293Z</time>
      </trkpt>
      <trkpt lat="47.589628" lon="8.171343">
        <ele>336.080606</ele>
        <time>2021-11-22T13:23:57.349Z</time>
      </trkpt>
      <trkpt lat="47.589692" lon="8.171703">
        <ele>336.562820</ele>
        <time>2021-11-22T13:24:03.129Z</time>
      </trkpt>
      <trkpt lat="47.589753" lon="8.172071">
        <ele>337.053653</ele>
        <time>2021-11-22T13:24:08.928Z</time>
      </trkpt>
      <trkpt lat="47.589801" lon="8.172357">
        <ele>337.303672</ele>
        <time>2021-11-22T13:24:13.678Z</time>
      </trkpt>
      <trkpt lat="47.589842" lon="8.172596">
        <ele>337.458480</ele>
        <time>2021-11-22T13:24:17.379Z</time>
      </trkpt>
      <trkpt lat="47.589911" lon="8.172969">
        <ele>337.701277</ele>
        <time>2021-11-22T13:24:23.121Z</time>
      </trkpt>
      <trkpt lat="47.589945" lon="8.173167">
        <ele>337.829536</ele>
        <time>2021-11-22T13:24:25.857Z</time>
      </trkpt>
      <trkpt lat="47.589995" lon="8.173477">
        <ele>338.029624</ele>
        <time>2021-11-22T13:24:29.835Z</time>
      </trkpt>
      <trkpt lat="47.590136" lon="8.174144">
        <ele>338.468415</ele>
        <time>2021-11-22T13:24:37.634Z</time>
      </trkpt>
      <trkpt lat="47.590475" lon="8.175043">
        <ele>338.789334</ele>
        <time>2021-11-22T13:24:48.211Z</time>
      </trkpt>
      <trkpt lat="47.590554" lon="8.175213">
        <ele>338.757265</ele>
        <time>2021-11-22T13:24:50.097Z</time>
      </trkpt>
      <trkpt lat="47.590635" lon="8.175360">
        <ele>338.727779</ele>
        <time>2021-11-22T13:24:51.912Z</time>
      </trkpt>
      <trkpt lat="47.590744" lon="8.175552">
        <ele>338.688794</ele>
        <time>2021-11-22T13:24:54.247Z</time>
      </trkpt>
      <trkpt lat="47.590930" lon="8.175838">
        <ele>338.627078</ele>
        <time>2021-11-22T13:24:57.976Z</time>
      </trkpt>
      <trkpt lat="47.591008" lon="8.175967">
        <ele>338.600166</ele>
        <time>2021-11-22T13:24:59.553Z</time>
      </trkpt>
      <trkpt lat="47.591166" lon="8.176206">
        <ele>338.548179</ele>
        <time>2021-11-22T13:25:02.665Z</time>
      </trkpt>
      <trkpt lat="47.591425" lon="8.176628">
        <ele>338.459548</ele>
        <time>2021-11-22T13:25:07.869Z</time>
      </trkpt>
      <trkpt lat="47.591644" lon="8.176933">
        <ele>338.383271</ele>
        <time>2021-11-22T13:25:11.917Z</time>
      </trkpt>
      <trkpt lat="47.592085" lon="8.177634">
        <ele>338.212996</ele>
        <time>2021-11-22T13:25:20.922Z</time>
      </trkpt>
      <trkpt lat="47.592319" lon="8.178029">
        <ele>338.119611</ele>
        <time>2021-11-22T13:25:25.829Z</time>
      </trkpt>
      <trkpt lat="47.592663" lon="8.178556">
        <ele>337.989341</ele>
        <time>2021-11-22T13:25:32.729Z</time>
      </trkpt>
      <trkpt lat="47.592911" lon="8.178948">
        <ele>337.926194</ele>
        <time>2021-11-22T13:25:37.795Z</time>
      </trkpt>
      <trkpt lat="47.593072" lon="8.179196">
        <ele>337.892471</ele>
        <time>2021-11-22T13:25:41.035Z</time>
      </trkpt>
      <trkpt lat="47.593290" lon="8.179537">
        <ele>337.846441</ele>
        <time>2021-11-22T13:25:45.550Z</time>
      </trkpt>
      <trkpt lat="47.593528" lon="8.179877">
        <ele>337.798434</ele>
        <time>2021-11-22T13:25:50.589Z</time>
      </trkpt>
      <trkpt lat="47.594251" lon="8.181042">
        <ele>337.756298</ele>
        <time>2021-11-22T13:26:05.860Z</time>
      </trkpt>
      <trkpt lat="47.594489" lon="8.181402">
        <ele>337.797873</ele>
        <time>2021-11-22T13:26:10.961Z</time>
      </trkpt>
      <trkpt lat="47.594745" lon="8.181822">
        <ele>337.844560</ele>
        <time>2021-11-22T13:26:16.802Z</time>
      </trkpt>
      <trkpt lat="47.594892" lon="8.182058">
        <ele>337.871053</ele>
        <time>2021-11-22T13:26:20.044Z</time>
      </trkpt>
      <trkpt lat="47.595054" lon="8.182304">
        <ele>337.899408</ele>
        <time>2021-11-22T13:26:23.747Z</time>
      </trkpt>
      <trkpt lat="47.596697" lon="8.184867">
        <ele>338.924374</ele>
        <time>2021-11-22T13:27:03.668Z</time>
      </trkpt>
      <trkpt lat="47.597000" lon="8.185370">
        <ele>339.146453</ele>
        <time>2021-11-22T13:27:11.389Z</time>
      </trkpt>
      <trkpt lat="47.596938" lon="8.185482">
        <ele>339.194166</ele>
        <time>2021-11-22T13:27:13.589Z</time>
      </trkpt>
      <trkpt lat="47.597012" lon="8.185560">
        <ele>339.238496</ele>
        <time>2021-11-22T13:27:15.702Z</time>
      </trkpt>
      <trkpt lat="47.597982" lon="8.187154">
        <ele>339.849389</ele>
        <time>2021-11-22T13:27:47.611Z</time>
      </trkpt>
      <trkpt lat="47.600058" lon="8.190356">
        <ele>340.797620</ele>
        <time>2021-11-22T13:28:51.753Z</time>
      </trkpt>
      <trkpt lat="47.600345" lon="8.190820">
        <ele>340.991887</ele>
        <time>2021-11-22T13:29:00.662Z</time>
      </trkpt>
      <trkpt lat="47.600674" lon="8.191319">
        <ele>341.207211</ele>
        <time>2021-11-22T13:29:10.402Z</time>
      </trkpt>
      <trkpt lat="47.602403" lon="8.194101">
        <ele>343.446644</ele>
        <time>2021-11-22T13:30:09.271Z</time>
      </trkpt>
      <trkpt lat="47.602615" lon="8.194384">
        <ele>344.444263</ele>
        <time>2021-11-22T13:30:18.080Z</time>
      </trkpt>
      <trkpt lat="47.603133" lon="8.195213">
        <ele>347.834489</ele>
        <time>2021-11-22T13:30:44.870Z</time>
      </trkpt>
      <trkpt lat="47.603974" lon="8.196465">
        <ele>354.122935</ele>
        <time>2021-11-22T13:31:37.376Z</time>
      </trkpt>
      <trkpt lat="47.604665" lon="8.197287">
        <ele>360.495316</ele>
        <time>2021-11-22T13:32:24.210Z</time>
      </trkpt>
      <trkpt lat="47.605085" lon="8.197676">
        <ele>364.057486</ele>
        <time>2021-11-22T13:32:48.787Z</time>
      </trkpt>
      <trkpt lat="47.605470" lon="8.197979">
        <ele>365.942281</ele>
        <time>2021-11-22T13:33:09.160Z</time>
      </trkpt>
      <trkpt lat="47.605578" lon="8.198061">
        <ele>366.413553</ele>
        <time>2021-11-22T13:33:14.196Z</time>
      </trkpt>
      <trkpt lat="47.605678" lon="8.198198">
        <ele>366.942328</ele>
        <time>2021-11-22T13:33:19.795Z</time>
      </trkpt>
      <trkpt lat="47.605728" lon="8.198238">
        <ele>367.162991</ele>
        <time>2021-11-22T13:33:22.415Z</time>
      </trkpt>
      <trkpt lat="47.606094" lon="8.198320">
        <ele>368.600757</ele>
        <time>2021-11-22T13:33:36.906Z</time>
      </trkpt>
      <trkpt lat="47.607787" lon="8.199125">
        <ele>371.669396</ele>
        <time>2021-11-22T13:34:20.467Z</time>
      </trkpt>
      <trkpt lat="47.608382" lon="8.199409">
        <ele>371.794511</ele>
        <time>2021-11-22T13:34:31.440Z</time>
      </trkpt>
      <trkpt lat="47.608444" lon="8.199426">
        <ele>371.807132</ele>
        <time>2021-11-22T13:34:32.547Z</time>
      </trkpt>
      <trkpt lat="47.608496" lon="8.199444">
        <ele>371.817821</ele>
        <time>2021-11-22T13:34:33.443Z</time>
      </trkpt>
      <trkpt lat="47.608542" lon="8.199411">
        <ele>371.771222</ele>
        <time>2021-11-22T13:34:34.174Z</time>
      </trkpt>
      <trkpt lat="47.608784" lon="8.199573">
        <ele>371.399047</ele>
        <time>2021-11-22T13:34:37.535Z</time>
      </trkpt>
      <trkpt lat="47.609495" lon="8.200308">
        <ele>370.184222</ele>
        <time>2021-11-22T13:34:47.385Z</time>
      </trkpt>
      <trkpt lat="47.609802" lon="8.200799">
        <ele>369.551369</ele>
        <time>2021-11-22T13:34:52.666Z</time>
      </trkpt>
      <trkpt lat="47.609836" lon="8.200853">
        <ele>369.481543</ele>
        <time>2021-11-22T13:34:53.235Z</time>
      </trkpt>
      <trkpt lat="47.609983" lon="8.201179">
        <ele>369.102317</ele>
        <time>2021-11-22T13:34:56.465Z</time>
      </trkpt>
      <trkpt lat="47.610537" lon="8.202824">
        <ele>367.285535</ele>
        <time>2021-11-22T13:35:10.494Z</time>
      </trkpt>
      <trkpt lat="47.611231" lon="8.205135">
        <ele>365.378723</ele>
        <time>2021-11-22T13:35:30.963Z</time>
      </trkpt>
      <trkpt lat="47.611400" lon="8.205901">
        <ele>364.827110</ele>
        <time>2021-11-22T13:35:38.008Z</time>
      </trkpt>
      <trkpt lat="47.611471" lon="8.206640">
        <ele>364.193127</ele>
        <time>2021-11-22T13:35:44.471Z</time>
      </trkpt>
      <trkpt lat="47.611452" lon="8.207267">
        <ele>363.660071</ele>
        <time>2021-11-22T13:35:49.904Z</time>
      </trkpt>
      <trkpt lat="47.611077" lon="8.210742">
        <ele>358.977083</ele>
        <time>2021-11-22T13:36:16.154Z</time>
      </trkpt>
      <trkpt lat="47.610861" lon="8.211762">
        <ele>356.224713</ele>
        <time>2021-11-22T13:36:23.212Z</time>
      </trkpt>
      <trkpt lat="47.610756" lon="8.212079">
        <ele>355.105833</ele>
        <time>2021-11-22T13:36:25.484Z</time>
      </trkpt>
      <trkpt lat="47.610441" lon="8.212945">
        <ele>351.988595</ele>
        <time>2021-11-22T13:36:31.716Z</time>
      </trkpt>
      <trkpt lat="47.610145" lon="8.213773">
        <ele>348.956969</ele>
        <time>2021-11-22T13:36:37.602Z</time>
      </trkpt>
      <trkpt lat="47.609901" lon="8.214425">
        <ele>346.422555</ele>
        <time>2021-11-22T13:36:42.290Z</time>
      </trkpt>
      <trkpt lat="47.609160" lon="8.216342">
        <ele>338.672792</ele>
        <time>2021-11-22T13:36:56.427Z</time>
      </trkpt>
      <trkpt lat="47.608362" lon="8.218459">
        <ele>329.309698</ele>
        <time>2021-11-22T13:37:11.479Z</time>
      </trkpt>
      <trkpt lat="47.608306" lon="8.218670">
        <ele>328.384373</ele>
        <time>2021-11-22T13:37:12.833Z</time>
      </trkpt>
      <trkpt lat="47.608137" lon="8.219283">
        <ele>325.681883</ele>
        <time>2021-11-22T13:37:16.900Z</time>
      </trkpt>
      <trkpt lat="47.607919" lon="8.220106">
        <ele>322.073604</ele>
        <time>2021-11-22T13:37:22.318Z</time>
      </trkpt>
      <trkpt lat="47.607777" lon="8.220574">
        <ele>319.979365</ele>
        <time>2021-11-22T13:37:25.511Z</time>
      </trkpt>
      <trkpt lat="47.607566" lon="8.221007">
        <ele>318.697375</ele>
        <time>2021-11-22T13:37:28.923Z</time>
      </trkpt>
      <trkpt lat="47.607397" lon="8.221215">
        <ele>317.991275</ele>
        <time>2021-11-22T13:37:31.041Z</time>
      </trkpt>
      <trkpt lat="47.607239" lon="8.221350">
        <ele>317.404992</ele>
        <time>2021-11-22T13:37:32.879Z</time>
      </trkpt>
      <trkpt lat="47.606920" lon="8.221521">
        <ele>316.314379</ele>
        <time>2021-11-22T13:37:36.318Z</time>
      </trkpt>
      <trkpt lat="47.606437" lon="8.221655">
        <ele>314.734453</ele>
        <time>2021-11-22T13:37:41.605Z</time>
      </trkpt>
      <trkpt lat="47.606313" lon="8.221699">
        <ele>314.324504</ele>
        <time>2021-11-22T13:37:43.006Z</time>
      </trkpt>
      <trkpt lat="47.606170" lon="8.221766">
        <ele>313.922375</ele>
        <time>2021-11-22T13:37:44.774Z</time>
      </trkpt>
      <trkpt lat="47.606051" lon="8.221847">
        <ele>313.877165</ele>
        <time>2021-11-22T13:37:46.209Z</time>
      </trkpt>
      <trkpt lat="47.605876" lon="8.222038">
        <ele>313.802142</ele>
        <time>2021-11-22T13:37:48.994Z</time>
      </trkpt>
      <trkpt lat="47.605725" lon="8.222306">
        <ele>313.720833</ele>
        <time>2021-11-22T13:37:52.075Z</time>
      </trkpt>
      <trkpt lat="47.604714" lon="8.224208">
        <ele>313.793364</ele>
        <time>2021-11-22T13:38:17.089Z</time>
      </trkpt>
      <trkpt lat="47.604319" lon="8.224936">
        <ele>314.474957</ele>
        <time>2021-11-22T13:38:29.356Z</time>
      </trkpt>
      <trkpt lat="47.604139" lon="8.225315">
        <ele>314.813100</ele>
        <time>2021-11-22T13:38:35.516Z</time>
      </trkpt>
      <trkpt lat="47.604003" lon="8.225778">
        <ele>315.181475</ele>
        <time>2021-11-22T13:38:42.719Z</time>
      </trkpt>
      <trkpt lat="47.603947" lon="8.225968">
        <ele>315.496340</ele>
        <time>2021-11-22T13:38:45.776Z</time>
      </trkpt>
      <trkpt lat="47.603930" lon="8.226026">
        <ele>315.641809</ele>
        <time>2021-11-22T13:38:46.670Z</time>
      </trkpt>
      <trkpt lat="47.603853" lon="8.226391">
        <ele>316.521500</ele>
        <time>2021-11-22T13:38:52.569Z</time>
      </trkpt>
      <trkpt lat="47.603695" lon="8.227213">
        <ele>318.487562</ele>
        <time>2021-11-22T13:39:07.648Z</time>
      </trkpt>
      <trkpt lat="47.603657" lon="8.227409">
        <ele>318.956662</ele>
        <time>2021-11-22T13:39:11.292Z</time>
      </trkpt>
      <trkpt lat="47.603606" lon="8.227642">
        <ele>319.520134</ele>
        <time>2021-11-22T13:39:17.145Z</time>
      </trkpt>
      <trkpt lat="47.603515" lon="8.227950">
        <ele>320.293618</ele>
        <time>2021-11-22T13:39:23.734Z</time>
      </trkpt>
      <trkpt lat="47.603300" lon="8.228507">
        <ele>321.825787</ele>
        <time>2021-11-22T13:39:39.054Z</time>
      </trkpt>
      <trkpt lat="47.603288" lon="8.228537">
        <ele>321.917906</ele>
        <time>2021-11-22T13:39:40.697Z</time>
      </trkpt>
      <trkpt lat="47.603270" lon="8.228758">
        <ele>322.505791</ele>
        <time>2021-11-22T13:39:45.920Z</time>
      </trkpt>
      <trkpt lat="47.603340" lon="8.228899">
        <ele>322.968208</ele>
        <time>2021-11-22T13:39:49.966Z</time>
      </trkpt>
      <trkpt lat="47.603540" lon="8.229090">
        <ele>323.899911</ele>
        <time>2021-11-22T13:39:59.823Z</time>
      </trkpt>
      <trkpt lat="47.603676" lon="8.229162">
        <ele>324.465510</ele>
        <time>2021-11-22T13:40:04.326Z</time>
      </trkpt>
      <trkpt lat="47.603753" lon="8.229233">
        <ele>324.820636</ele>
        <time>2021-11-22T13:40:08.754Z</time>
      </trkpt>
      <trkpt lat="47.604460" lon="8.229811">
        <ele>327.982621</ele>
        <time>2021-11-22T13:40:31.662Z</time>
      </trkpt>
      <trkpt lat="47.604846" lon="8.230126">
        <ele>327.712778</ele>
        <time>2021-11-22T13:40:39.186Z</time>
      </trkpt>
      <trkpt lat="47.605278" lon="8.230558">
        <ele>326.548868</ele>
        <time>2021-11-22T13:40:45.379Z</time>
      </trkpt>
      <trkpt lat="47.605586" lon="8.230908">
        <ele>325.682093</ele>
        <time>2021-11-22T13:40:49.292Z</time>
      </trkpt>
      <trkpt lat="47.605832" lon="8.231231">
        <ele>324.948153</ele>
        <time>2021-11-22T13:40:52.461Z</time>
      </trkpt>
      <trkpt lat="47.606365" lon="8.231998">
        <ele>322.464072</ele>
        <time>2021-11-22T13:40:59.327Z</time>
      </trkpt>
      <trkpt lat="47.606443" lon="8.232162">
        <ele>321.941143</ele>
        <time>2021-11-22T13:41:00.638Z</time>
      </trkpt>
      <trkpt lat="47.606511" lon="8.232341">
        <ele>321.405812</ele>
        <time>2021-11-22T13:41:01.891Z</time>
      </trkpt>
      <trkpt lat="47.606487" lon="8.232374">
        <ele>321.279340</ele>
        <time>2021-11-22T13:41:02.382Z</time>
      </trkpt>
      <trkpt lat="47.606474" lon="8.232560">
        <ele>320.792112</ele>
        <time>2021-11-22T13:41:04.150Z</time>
      </trkpt>
      <trkpt lat="47.606493" lon="8.232600">
        <ele>320.664623</ele>
        <time>2021-11-22T13:41:04.687Z</time>
      </trkpt>
      <trkpt lat="47.606512" lon="8.232623">
        <ele>320.569846</ele>
        <time>2021-11-22T13:41:05.026Z</time>
      </trkpt>
      <trkpt lat="47.606556" lon="8.232650">
        <ele>320.385829</ele>
        <time>2021-11-22T13:41:05.678Z</time>
      </trkpt>
      <trkpt lat="47.606580" lon="8.232653">
        <ele>320.292751</ele>
        <time>2021-11-22T13:41:06.005Z</time>
      </trkpt>
      <trkpt lat="47.606616" lon="8.232643">
        <ele>320.151209</ele>
        <time>2021-11-22T13:41:06.483Z</time>
      </trkpt>
      <trkpt lat="47.606648" lon="8.232617">
        <ele>320.010205</ele>
        <time>2021-11-22T13:41:06.973Z</time>
      </trkpt>
      <trkpt lat="47.606823" lon="8.232670">
        <ele>319.319957</ele>
        <time>2021-11-22T13:41:08.869Z</time>
      </trkpt>
      <trkpt lat="47.606960" lon="8.232821">
        <ele>318.660338</ele>
        <time>2021-11-22T13:41:10.561Z</time>
      </trkpt>
      <trkpt lat="47.607086" lon="8.232988">
        <ele>318.007321</ele>
        <time>2021-11-22T13:41:12.461Z</time>
      </trkpt>
      <trkpt lat="47.607150" lon="8.233085">
        <ele>317.653702</ele>
        <time>2021-11-22T13:41:13.521Z</time>
      </trkpt>
      <trkpt lat="47.607235" lon="8.233204">
        <ele>317.407775</ele>
        <time>2021-11-22T13:41:14.693Z</time>
      </trkpt>
      <trkpt lat="47.607290" lon="8.233281">
        <ele>317.341078</ele>
        <time>2021-11-22T13:41:15.646Z</time>
      </trkpt>
      <trkpt lat="47.607378" lon="8.233411">
        <ele>317.231547</ele>
        <time>2021-11-22T13:41:17.443Z</time>
      </trkpt>
      <trkpt lat="47.607868" lon="8.234044">
        <ele>316.658508</ele>
        <time>2021-11-22T13:41:25.754Z</time>
      </trkpt>
      <trkpt lat="47.607909" lon="8.234097">
        <ele>316.610547</ele>
        <time>2021-11-22T13:41:26.465Z</time>
      </trkpt>
      <trkpt lat="47.608011" lon="8.234223">
        <ele>316.493485</ele>
        <time>2021-11-22T13:41:28.173Z</time>
      </trkpt>
      <trkpt lat="47.608120" lon="8.234362">
        <ele>316.366718</ele>
        <time>2021-11-22T13:41:30.087Z</time>
      </trkpt>
      <trkpt lat="47.608177" lon="8.234438">
        <ele>316.299126</ele>
        <time>2021-11-22T13:41:31.151Z</time>
      </trkpt>
      <trkpt lat="47.608311" lon="8.234618">
        <ele>316.139696</ele>
        <time>2021-11-22T13:41:33.519Z</time>
      </trkpt>
      <trkpt lat="47.608468" lon="8.234814">
        <ele>315.958728</ele>
        <time>2021-11-22T13:41:36.325Z</time>
      </trkpt>
      <trkpt lat="47.608541" lon="8.234934">
        <ele>315.867166</ele>
        <time>2021-11-22T13:41:37.678Z</time>
      </trkpt>
      <trkpt lat="47.608611" lon="8.235019">
        <ele>315.805656</ele>
        <time>2021-11-22T13:41:38.905Z</time>
      </trkpt>
      <trkpt lat="47.608915" lon="8.235317">
        <ele>315.557899</ele>
        <time>2021-11-22T13:41:43.692Z</time>
      </trkpt>
      <trkpt lat="47.608981" lon="8.235372">
        <ele>315.506427</ele>
        <time>2021-11-22T13:41:44.898Z</time>
      </trkpt>
      <trkpt lat="47.609179" lon="8.235505">
        <ele>315.358641</ele>
        <time>2021-11-22T13:41:47.578Z</time>
      </trkpt>
      <trkpt lat="47.609250" lon="8.235549">
        <ele>315.306322</ele>
        <time>2021-11-22T13:41:48.611Z</time>
      </trkpt>
      <trkpt lat="47.609532" lon="8.235715">
        <ele>315.100037</ele>
        <time>2021-11-22T13:41:52.503Z</time>
      </trkpt>
      <trkpt lat="47.609674" lon="8.235805">
        <ele>314.995043</ele>
        <time>2021-11-22T13:41:54.616Z</time>
      </trkpt>
      <trkpt lat="47.609747" lon="8.235833">
        <ele>314.943776</ele>
        <time>2021-11-22T13:41:55.463Z</time>
      </trkpt>
      <trkpt lat="47.609882" lon="8.235962">
        <ele>314.834589</ele>
        <time>2021-11-22T13:41:57.531Z</time>
      </trkpt>
      <trkpt lat="47.610430" lon="8.236623">
        <ele>314.673744</ele>
        <time>2021-11-22T13:42:06.113Z</time>
      </trkpt>
      <trkpt lat="47.610558" lon="8.236822">
        <ele>314.679630</ele>
        <time>2021-11-22T13:42:08.532Z</time>
      </trkpt>
      <trkpt lat="47.610707" lon="8.237095">
        <ele>314.687146</ele>
        <time>2021-11-22T13:42:12.008Z</time>
      </trkpt>
      <trkpt lat="47.610953" lon="8.237735">
        <ele>314.702912</ele>
        <time>2021-11-22T13:42:20.007Z</time>
      </trkpt>
      <trkpt lat="47.611080" lon="8.238371">
        <ele>314.751302</ele>
        <time>2021-11-22T13:42:28.115Z</time>
      </trkpt>
      <trkpt lat="47.611101" lon="8.238566">
        <ele>315.035990</ele>
        <time>2021-11-22T13:42:30.663Z</time>
      </trkpt>
      <trkpt lat="47.611151" lon="8.239208">
        <ele>315.967693</ele>
        <time>2021-11-22T13:42:39.484Z</time>
      </trkpt>
      <trkpt lat="47.611280" lon="8.240830">
        <ele>318.322282</ele>
        <time>2021-11-22T13:43:05.430Z</time>
      </trkpt>
      <trkpt lat="47.611603" lon="8.243064">
        <ele>324.693636</ele>
        <time>2021-11-22T13:43:54.967Z</time>
      </trkpt>
      <trkpt lat="47.611638" lon="8.243831">
        <ele>326.799458</ele>
        <time>2021-11-22T13:44:13.643Z</time>
      </trkpt>
      <trkpt lat="47.611712" lon="8.245081">
        <ele>329.745862</ele>
        <time>2021-11-22T13:44:41.198Z</time>
      </trkpt>
      <trkpt lat="47.611844" lon="8.245949">
        <ele>331.835209</ele>
        <time>2021-11-22T13:44:58.241Z</time>
      </trkpt>
      <trkpt lat="47.612843" lon="8.250766">
        <ele>333.652390</ele>
        <time>2021-11-22T13:45:52.579Z</time>
      </trkpt>
      <trkpt lat="47.613807" lon="8.253962">
        <ele>332.731969</ele>
        <time>2021-11-22T13:46:24.523Z</time>
      </trkpt>
      <trkpt lat="47.613951" lon="8.254567">
        <ele>332.270540</ele>
        <time>2021-11-22T13:46:29.546Z</time>
      </trkpt>
      <trkpt lat="47.614014" lon="8.254922">
        <ele>332.006533</ele>
        <time>2021-11-22T13:46:32.381Z</time>
      </trkpt>
      <trkpt lat="47.614051" lon="8.255386">
        <ele>331.670507</ele>
        <time>2021-11-22T13:46:35.876Z</time>
      </trkpt>
      <trkpt lat="47.614060" lon="8.256224">
        <ele>331.067759</ele>
        <time>2021-11-22T13:46:42.143Z</time>
      </trkpt>
      <trkpt lat="47.613995" lon="8.256687">
        <ele>331.566494</ele>
        <time>2021-11-22T13:46:47.599Z</time>
      </trkpt>
      <trkpt lat="47.613717" lon="8.257487">
        <ele>333.070110</ele>
        <time>2021-11-22T13:47:00.507Z</time>
      </trkpt>
      <trkpt lat="47.613412" lon="8.257877">
        <ele>334.068020</ele>
        <time>2021-11-22T13:47:13.303Z</time>
      </trkpt>
      <trkpt lat="47.613336" lon="8.257965">
        <ele>334.306949</ele>
        <time>2021-11-22T13:47:16.299Z</time>
      </trkpt>
      <trkpt lat="47.613117" lon="8.258125">
        <ele>334.911931</ele>
        <time>2021-11-22T13:47:23.915Z</time>
      </trkpt>
      <trkpt lat="47.612429" lon="8.258419">
        <ele>337.082335</ele>
        <time>2021-11-22T13:47:45.813Z</time>
      </trkpt>
      <trkpt lat="47.612281" lon="8.258565">
        <ele>337.662511</ele>
        <time>2021-11-22T13:47:51.998Z</time>
      </trkpt>
      <trkpt lat="47.611977" lon="8.258860">
        <ele>338.848299</ele>
        <time>2021-11-22T13:48:03.224Z</time>
      </trkpt>
      <trkpt lat="47.611012" lon="8.260011">
        <ele>342.287805</ele>
        <time>2021-11-22T13:48:31.719Z</time>
      </trkpt>
      <trkpt lat="47.609290" lon="8.261782">
        <ele>347.608263</ele>
        <time>2021-11-22T13:49:19.411Z</time>
      </trkpt>
      <trkpt lat="47.608587" lon="8.262859">
        <ele>351.055265</ele>
        <time>2021-11-22T13:49:52.716Z</time>
      </trkpt>
      <trkpt lat="47.608490" lon="8.263097">
        <ele>351.594208</ele>
        <time>2021-11-22T13:49:59.256Z</time>
      </trkpt>
      <trkpt lat="47.608165" lon="8.263895">
        <ele>353.388514</ele>
        <time>2021-11-22T13:50:19.340Z</time>
      </trkpt>
      <trkpt lat="47.607926" lon="8.264843">
        <ele>355.336438</ele>
        <time>2021-11-22T13:50:36.884Z</time>
      </trkpt>
      <trkpt lat="47.607820" lon="8.265587">
        <ele>355.785742</ele>
        <time>2021-11-22T13:50:46.299Z</time>
      </trkpt>
      <trkpt lat="47.607705" lon="8.267602">
        <ele>352.958808</ele>
        <time>2021-11-22T13:51:01.037Z</time>
      </trkpt>
      <trkpt lat="47.607609" lon="8.268126">
        <ele>351.743307</ele>
        <time>2021-11-22T13:51:04.515Z</time>
      </trkpt>
      <trkpt lat="47.607416" lon="8.268768">
        <ele>349.177540</ele>
        <time>2021-11-22T13:51:08.931Z</time>
      </trkpt>
      <trkpt lat="47.606983" lon="8.269721">
        <ele>344.982797</ele>
        <time>2021-11-22T13:51:16.060Z</time>
      </trkpt>
      <trkpt lat="47.606647" lon="8.270192">
        <ele>342.514495</ele>
        <time>2021-11-22T13:51:20.303Z</time>
      </trkpt>
      <trkpt lat="47.606345" lon="8.270519">
        <ele>340.754423</ele>
        <time>2021-11-22T13:51:23.766Z</time>
      </trkpt>
      <trkpt lat="47.605635" lon="8.270975">
        <ele>337.112450</ele>
        <time>2021-11-22T13:51:31.083Z</time>
      </trkpt>
      <trkpt lat="47.605210" lon="8.271131">
        <ele>335.051548</ele>
        <time>2021-11-22T13:51:35.383Z</time>
      </trkpt>
      <trkpt lat="47.605088" lon="8.271177">
        <ele>334.459006</ele>
        <time>2021-11-22T13:51:36.602Z</time>
      </trkpt>
      <trkpt lat="47.604800" lon="8.271344">
        <ele>333.776736</ele>
        <time>2021-11-22T13:51:39.735Z</time>
      </trkpt>
      <trkpt lat="47.604440" lon="8.271786">
        <ele>332.910770</ele>
        <time>2021-11-22T13:51:44.499Z</time>
      </trkpt>
      <trkpt lat="47.603956" lon="8.273121">
        <ele>331.017074</ele>
        <time>2021-11-22T13:51:56.543Z</time>
      </trkpt>
      <trkpt lat="47.603675" lon="8.273498">
        <ele>331.304141</ele>
        <time>2021-11-22T13:52:03.222Z</time>
      </trkpt>
      <trkpt lat="47.603357" lon="8.273732">
        <ele>331.677476</ele>
        <time>2021-11-22T13:52:10.105Z</time>
      </trkpt>
      <trkpt lat="47.602958" lon="8.273993">
        <ele>332.136099</ele>
        <time>2021-11-22T13:52:18.981Z</time>
      </trkpt>
      <trkpt lat="47.602936" lon="8.274007">
        <ele>332.161276</ele>
        <time>2021-11-22T13:52:20.034Z</time>
      </trkpt>
      <trkpt lat="47.602741" lon="8.274225">
        <ele>332.418090</ele>
        <time>2021-11-22T13:52:25.076Z</time>
      </trkpt>
      <trkpt lat="47.602566" lon="8.274466">
        <ele>332.669243</ele>
        <time>2021-11-22T13:52:30.468Z</time>
      </trkpt>
      <trkpt lat="47.602143" lon="8.275196">
        <ele>332.700436</ele>
        <time>2021-11-22T13:52:43.877Z</time>
      </trkpt>
      <trkpt lat="47.601955" lon="8.275513">
        <ele>332.620585</ele>
        <time>2021-11-22T13:52:48.011Z</time>
      </trkpt>
      <trkpt lat="47.601704" lon="8.275902">
        <ele>332.518747</ele>
        <time>2021-11-22T13:52:53.177Z</time>
      </trkpt>
      <trkpt lat="47.601473" lon="8.276369">
        <ele>332.409198</ele>
        <time>2021-11-22T13:52:57.645Z</time>
      </trkpt>
      <trkpt lat="47.601369" lon="8.276800">
        <ele>332.249368</ele>
        <time>2021-11-22T13:53:01.171Z</time>
      </trkpt>
      <trkpt lat="47.601324" lon="8.277028">
        <ele>331.888946</ele>
        <time>2021-11-22T13:53:02.815Z</time>
      </trkpt>
      <trkpt lat="47.601299" lon="8.277121">
        <ele>331.737053</ele>
        <time>2021-11-22T13:53:03.559Z</time>
      </trkpt>
      <trkpt lat="47.601215" lon="8.277426">
        <ele>331.237214</ele>
        <time>2021-11-22T13:53:05.920Z</time>
      </trkpt>
      <trkpt lat="47.601167" lon="8.277540">
        <ele>331.033309</ele>
        <time>2021-11-22T13:53:06.907Z</time>
      </trkpt>
      <trkpt lat="47.601040" lon="8.277855">
        <ele>330.476494</ele>
        <time>2021-11-22T13:53:09.451Z</time>
      </trkpt>
      <trkpt lat="47.600762" lon="8.278295">
        <ele>329.561689</ele>
        <time>2021-11-22T13:53:13.698Z</time>
      </trkpt>
      <trkpt lat="47.600663" lon="8.278494">
        <ele>329.186495</ele>
        <time>2021-11-22T13:53:15.585Z</time>
      </trkpt>
      <trkpt lat="47.600625" lon="8.278613">
        <ele>328.986731</ele>
        <time>2021-11-22T13:53:16.532Z</time>
      </trkpt>
      <trkpt lat="47.600606" lon="8.278687">
        <ele>328.866598</ele>
        <time>2021-11-22T13:53:17.027Z</time>
      </trkpt>
      <trkpt lat="47.600430" lon="8.279503">
        <ele>327.709594</ele>
        <time>2021-11-22T13:53:23.721Z</time>
      </trkpt>
      <trkpt lat="47.600326" lon="8.279743">
        <ele>327.362691</ele>
        <time>2021-11-22T13:53:25.759Z</time>
      </trkpt>
      <trkpt lat="47.600093" lon="8.280323">
        <ele>326.541742</ele>
        <time>2021-11-22T13:53:30.985Z</time>
      </trkpt>
      <trkpt lat="47.599805" lon="8.280928">
        <ele>325.641213</ele>
        <time>2021-11-22T13:53:36.529Z</time>
      </trkpt>
      <trkpt lat="47.599542" lon="8.281454">
        <ele>324.910622</ele>
        <time>2021-11-22T13:53:41.321Z</time>
      </trkpt>
      <trkpt lat="47.598817" lon="8.282737">
        <ele>323.551652</ele>
        <time>2021-11-22T13:53:54.538Z</time>
      </trkpt>
      <trkpt lat="47.598604" lon="8.282997">
        <ele>323.219512</ele>
        <time>2021-11-22T13:53:57.846Z</time>
      </trkpt>
      <trkpt lat="47.598331" lon="8.283263">
        <ele>322.896684</ele>
        <time>2021-11-22T13:54:02.073Z</time>
      </trkpt>
      <trkpt lat="47.598314" lon="8.283280">
        <ele>322.906207</ele>
        <time>2021-11-22T13:54:02.450Z</time>
      </trkpt>
      <trkpt lat="47.598019" lon="8.283508">
        <ele>323.060710</ele>
        <time>2021-11-22T13:54:06.989Z</time>
      </trkpt>
      <trkpt lat="47.596767" lon="8.284214">
        <ele>323.682817</ele>
        <time>2021-11-22T13:54:30.773Z</time>
      </trkpt>
      <trkpt lat="47.596337" lon="8.284551">
        <ele>324.468570</ele>
        <time>2021-11-22T13:54:40.504Z</time>
      </trkpt>
      <trkpt lat="47.596176" lon="8.284718">
        <ele>324.820140</ele>
        <time>2021-11-22T13:54:44.468Z</time>
      </trkpt>
      <trkpt lat="47.596026" lon="8.284885">
        <ele>325.155771</ele>
        <time>2021-11-22T13:54:48.188Z</time>
      </trkpt>
      <trkpt lat="47.595890" lon="8.285064">
        <ele>325.481154</ele>
        <time>2021-11-22T13:54:52.145Z</time>
      </trkpt>
      <trkpt lat="47.595744" lon="8.285248">
        <ele>325.824004</ele>
        <time>2021-11-22T13:54:56.664Z</time>
      </trkpt>
      <trkpt lat="47.595704" lon="8.285300">
        <ele>325.919189</ele>
        <time>2021-11-22T13:54:57.820Z</time>
      </trkpt>
      <trkpt lat="47.595577" lon="8.285479">
        <ele>326.232711</ele>
        <time>2021-11-22T13:55:01.570Z</time>
      </trkpt>
      <trkpt lat="47.595025" lon="8.286365">
        <ele>328.004512</ele>
        <time>2021-11-22T13:55:22.471Z</time>
      </trkpt>
      <trkpt lat="47.594969" lon="8.286496">
        <ele>328.269823</ele>
        <time>2021-11-22T13:55:25.541Z</time>
      </trkpt>
      <trkpt lat="47.594935" lon="8.286467">
        <ele>328.369313</ele>
        <time>2021-11-22T13:55:26.675Z</time>
      </trkpt>
      <trkpt lat="47.594822" lon="8.286483">
        <ele>328.657244</ele>
        <time>2021-11-22T13:55:29.188Z</time>
      </trkpt>
      <trkpt lat="47.594792" lon="8.286521">
        <ele>328.757323</ele>
        <time>2021-11-22T13:55:30.087Z</time>
      </trkpt>
      <trkpt lat="47.594718" lon="8.286430">
        <ele>329.001173</ele>
        <time>2021-11-22T13:55:32.681Z</time>
      </trkpt>
      <trkpt lat="47.594584" lon="8.286293">
        <ele>329.414024</ele>
        <time>2021-11-22T13:55:37.084Z</time>
      </trkpt>
      <trkpt lat="47.594407" lon="8.286225">
        <ele>329.877813</ele>
        <time>2021-11-22T13:55:41.205Z</time>
      </trkpt>
      <trkpt lat="47.594331" lon="8.286227">
        <ele>330.070619</ele>
        <time>2021-11-22T13:55:43.432Z</time>
      </trkpt>
      <trkpt lat="47.594240" lon="8.286249">
        <ele>330.304491</ele>
        <time>2021-11-22T13:55:45.777Z</time>
      </trkpt>
      <trkpt lat="47.594000" lon="8.286503">
        <ele>331.052404</ele>
        <time>2021-11-22T13:55:52.925Z</time>
      </trkpt>
      <trkpt lat="47.593476" lon="8.287491">
        <ele>332.680782</ele>
        <time>2021-11-22T13:56:13.190Z</time>
      </trkpt>
      <trkpt lat="47.593101" lon="8.288210">
        <ele>333.761045</ele>
        <time>2021-11-22T13:56:26.301Z</time>
      </trkpt>
      <trkpt lat="47.592736" lon="8.288920">
        <ele>334.769248</ele>
        <time>2021-11-22T13:56:38.236Z</time>
      </trkpt>
      <trkpt lat="47.592571" lon="8.289200">
        <ele>335.064400</ele>
        <time>2021-11-22T13:56:43.160Z</time>
      </trkpt>
      <trkpt lat="47.592438" lon="8.289378">
        <ele>335.275277</ele>
        <time>2021-11-22T13:56:46.595Z</time>
      </trkpt>
      <trkpt lat="47.592318" lon="8.289474">
        <ele>335.435764</ele>
        <time>2021-11-22T13:56:49.131Z</time>
      </trkpt>
      <trkpt lat="47.592208" lon="8.289565">
        <ele>335.584023</ele>
        <time>2021-11-22T13:56:51.324Z</time>
      </trkpt>
      <trkpt lat="47.592085" lon="8.289646">
        <ele>335.742431</ele>
        <time>2021-11-22T13:56:53.900Z</time>
      </trkpt>
      <trkpt lat="47.591871" lon="8.289770">
        <ele>336.012861</ele>
        <time>2021-11-22T13:56:58.129Z</time>
      </trkpt>
      <trkpt lat="47.591732" lon="8.289850">
        <ele>336.188358</ele>
        <time>2021-11-22T13:57:01.255Z</time>
      </trkpt>
      <trkpt lat="47.591353" lon="8.290077">
        <ele>336.669464</ele>
        <time>2021-11-22T13:57:09.470Z</time>
      </trkpt>
      <trkpt lat="47.591285" lon="8.290115">
        <ele>336.754997</ele>
        <time>2021-11-22T13:57:10.815Z</time>
      </trkpt>
      <trkpt lat="47.590971" lon="8.290292">
        <ele>337.257870</ele>
        <time>2021-11-22T13:57:17.875Z</time>
      </trkpt>
      <trkpt lat="47.590830" lon="8.290418">
        <ele>337.507869</ele>
        <time>2021-11-22T13:57:21.118Z</time>
      </trkpt>
      <trkpt lat="47.590791" lon="8.290459">
        <ele>337.580470</ele>
        <time>2021-11-22T13:57:22.128Z</time>
      </trkpt>
      <trkpt lat="47.590745" lon="8.290506">
        <ele>337.665303</ele>
        <time>2021-11-22T13:57:23.400Z</time>
      </trkpt>
      <trkpt lat="47.590626" lon="8.290661">
        <ele>337.905838</ele>
        <time>2021-11-22T13:57:26.567Z</time>
      </trkpt>
      <trkpt lat="47.590420" lon="8.290963">
        <ele>338.345755</ele>
        <time>2021-11-22T13:57:32.693Z</time>
      </trkpt>
      <trkpt lat="47.589950" lon="8.291436">
        <ele>339.208363</ele>
        <time>2021-11-22T13:57:44.467Z</time>
      </trkpt>
      <trkpt lat="47.589791" lon="8.291590">
        <ele>339.496768</ele>
        <time>2021-11-22T13:57:48.755Z</time>
      </trkpt>
      <trkpt lat="47.589719" lon="8.291671">
        <ele>339.632768</ele>
        <time>2021-11-22T13:57:50.600Z</time>
      </trkpt>
      <trkpt lat="47.589661" lon="8.291749">
        <ele>339.750468</ele>
        <time>2021-11-22T13:57:52.235Z</time>
      </trkpt>
      <trkpt lat="47.589392" lon="8.292079">
        <ele>340.275264</ele>
        <time>2021-11-22T13:58:00.175Z</time>
      </trkpt>
      <trkpt lat="47.589081" lon="8.292511">
        <ele>340.915834</ele>
        <time>2021-11-22T13:58:09.350Z</time>
      </trkpt>
      <trkpt lat="47.588953" lon="8.292728">
        <ele>341.208090</ele>
        <time>2021-11-22T13:58:13.317Z</time>
      </trkpt>
      <trkpt lat="47.588913" lon="8.292796">
        <ele>341.299563</ele>
        <time>2021-11-22T13:58:14.616Z</time>
      </trkpt>
      <trkpt lat="47.588718" lon="8.293127">
        <ele>341.745113</ele>
        <time>2021-11-22T13:58:20.811Z</time>
      </trkpt>
      <trkpt lat="47.588655" lon="8.293248">
        <ele>341.900081</ele>
        <time>2021-11-22T13:58:23.203Z</time>
      </trkpt>
      <trkpt lat="47.588574" lon="8.293403">
        <ele>342.098866</ele>
        <time>2021-11-22T13:58:25.630Z</time>
      </trkpt>
      <trkpt lat="47.588502" lon="8.293536">
        <ele>342.213988</ele>
        <time>2021-11-22T13:58:27.581Z</time>
      </trkpt>
      <trkpt lat="47.588478" lon="8.293617">
        <ele>342.212416</ele>
        <time>2021-11-22T13:58:28.570Z</time>
      </trkpt>
      <trkpt lat="47.588443" lon="8.293617">
        <ele>342.211494</ele>
        <time>2021-11-22T13:58:29.572Z</time>
      </trkpt>
      <trkpt lat="47.588282" lon="8.293628">
        <ele>342.207247</ele>
        <time>2021-11-22T13:58:32.390Z</time>
      </trkpt>
      <trkpt lat="47.587750" lon="8.293308">
        <ele>342.192118</ele>
        <time>2021-11-22T13:58:42.082Z</time>
      </trkpt>
      <trkpt lat="47.587721" lon="8.293310">
        <ele>342.191353</ele>
        <time>2021-11-22T13:58:42.879Z</time>
      </trkpt>
      <trkpt lat="47.587722" lon="8.293330">
        <ele>342.190997</ele>
        <time>2021-11-22T13:58:43.021Z</time>
      </trkpt>
      <trkpt lat="47.587625" lon="8.293573">
        <ele>342.185979</ele>
        <time>2021-11-22T13:58:45.310Z</time>
      </trkpt>
      <trkpt lat="47.587504" lon="8.293846">
        <ele>342.180173</ele>
        <time>2021-11-22T13:58:48.398Z</time>
      </trkpt>
      <trkpt lat="47.587360" lon="8.294138">
        <ele>342.173744</ele>
        <time>2021-11-22T13:58:51.353Z</time>
      </trkpt>
      <trkpt lat="47.587165" lon="8.294461">
        <ele>342.098460</ele>
        <time>2021-11-22T13:58:54.869Z</time>
      </trkpt>
      <trkpt lat="47.587045" lon="8.294658">
        <ele>341.887854</ele>
        <time>2021-11-22T13:58:57.171Z</time>
      </trkpt>
      <trkpt lat="47.586793" lon="8.295010">
        <ele>341.480587</ele>
        <time>2021-11-22T13:59:01.441Z</time>
      </trkpt>
      <trkpt lat="47.586748" lon="8.295061">
        <ele>341.413958</ele>
        <time>2021-11-22T13:59:02.054Z</time>
      </trkpt>
      <trkpt lat="47.586566" lon="8.295313">
        <ele>341.121026</ele>
        <time>2021-11-22T13:59:05.080Z</time>
      </trkpt>
      <trkpt lat="47.586566" lon="8.295313">
        <ele>341.121026</ele>
        <time>2021-11-22T13:59:05.084Z</time>
      </trkpt>
      <trkpt lat="47.586514" lon="8.295413">
        <ele>341.020844</ele>
        <time>2021-11-22T13:59:06.138Z</time>
      </trkpt>
      <trkpt lat="47.586485" lon="8.295476">
        <ele>340.960329</ele>
        <time>2021-11-22T13:59:06.695Z</time>
      </trkpt>
      <trkpt lat="47.586222" lon="8.296172">
        <ele>340.327363</ele>
        <time>2021-11-22T13:59:12.977Z</time>
      </trkpt>
      <trkpt lat="47.586124" lon="8.296426">
        <ele>340.095196</ele>
        <time>2021-11-22T13:59:15.262Z</time>
      </trkpt>
      <trkpt lat="47.586051" lon="8.296617">
        <ele>339.937033</ele>
        <time>2021-11-22T13:59:17.023Z</time>
      </trkpt>
      <trkpt lat="47.585980" lon="8.296808">
        <ele>339.785190</ele>
        <time>2021-11-22T13:59:18.810Z</time>
      </trkpt>
      <trkpt lat="47.585950" lon="8.296889">
        <ele>339.720850</ele>
        <time>2021-11-22T13:59:19.514Z</time>
      </trkpt>
      <trkpt lat="47.585758" lon="8.297376">
        <ele>339.328099</ele>
        <time>2021-11-22T13:59:24.163Z</time>
      </trkpt>
      <trkpt lat="47.585705" lon="8.297501">
        <ele>339.225300</ele>
        <time>2021-11-22T13:59:25.408Z</time>
      </trkpt>
      <trkpt lat="47.585519" lon="8.297997">
        <ele>338.830172</ele>
        <time>2021-11-22T13:59:30.513Z</time>
      </trkpt>
      <trkpt lat="47.585459" lon="8.298176">
        <ele>338.691000</ele>
        <time>2021-11-22T13:59:32.286Z</time>
      </trkpt>
      <trkpt lat="47.585399" lon="8.298333">
        <ele>338.565361</ele>
        <time>2021-11-22T13:59:33.869Z</time>
      </trkpt>
      <trkpt lat="47.585335" lon="8.298493">
        <ele>338.435843</ele>
        <time>2021-11-22T13:59:35.444Z</time>
      </trkpt>
      <trkpt lat="47.585214" lon="8.298789">
        <ele>338.194617</ele>
        <time>2021-11-22T13:59:38.225Z</time>
      </trkpt>
      <trkpt lat="47.585214" lon="8.298789">
        <ele>338.194617</ele>
        <time>2021-11-22T13:59:38.226Z</time>
      </trkpt>
      <trkpt lat="47.584934" lon="8.299472">
        <ele>337.138672</ele>
        <time>2021-11-22T13:59:44.317Z</time>
      </trkpt>
      <trkpt lat="47.584880" lon="8.299689">
        <ele>336.833092</ele>
        <time>2021-11-22T13:59:45.919Z</time>
      </trkpt>
      <trkpt lat="47.584895" lon="8.299939">
        <ele>336.501499</ele>
        <time>2021-11-22T13:59:47.836Z</time>
      </trkpt>
      <trkpt lat="47.584929" lon="8.300127">
        <ele>336.244348</ele>
        <time>2021-11-22T13:59:49.291Z</time>
      </trkpt>
      <trkpt lat="47.585029" lon="8.300672">
        <ele>335.498153</ele>
        <time>2021-11-22T13:59:53.383Z</time>
      </trkpt>
      <trkpt lat="47.585075" lon="8.300924">
        <ele>335.153246</ele>
        <time>2021-11-22T13:59:55.312Z</time>
      </trkpt>
      <trkpt lat="47.585341" lon="8.301559">
        <ele>333.992602</ele>
        <time>2021-11-22T14:00:00.789Z</time>
      </trkpt>
      <trkpt lat="47.585344" lon="8.301615">
        <ele>333.893016</ele>
        <time>2021-11-22T14:00:01.138Z</time>
      </trkpt>
      <trkpt lat="47.585343" lon="8.301691">
        <ele>333.758262</ele>
        <time>2021-11-22T14:00:01.640Z</time>
      </trkpt>
      <trkpt lat="47.585292" lon="8.301846">
        <ele>333.452537</ele>
        <time>2021-11-22T14:00:02.891Z</time>
      </trkpt>
      <trkpt lat="47.585246" lon="8.301988">
        <ele>333.173281</ele>
        <time>2021-11-22T14:00:04.068Z</time>
      </trkpt>
      <trkpt lat="47.585020" lon="8.302336">
        <ele>332.316891</ele>
        <time>2021-11-22T14:00:07.416Z</time>
      </trkpt>
      <trkpt lat="47.584675" lon="8.302750">
        <ele>331.150344</ele>
        <time>2021-11-22T14:00:12.020Z</time>
      </trkpt>
      <trkpt lat="47.584106" lon="8.303408">
        <ele>329.340118</ele>
        <time>2021-11-22T14:00:19.574Z</time>
      </trkpt>
      <trkpt lat="47.583795" lon="8.303805">
        <ele>328.396323</ele>
        <time>2021-11-22T14:00:23.972Z</time>
      </trkpt>
      <trkpt lat="47.583671" lon="8.303943">
        <ele>328.039755</ele>
        <time>2021-11-22T14:00:25.546Z</time>
      </trkpt>
      <trkpt lat="47.583523" lon="8.304130">
        <ele>327.592561</ele>
        <time>2021-11-22T14:00:27.728Z</time>
      </trkpt>
      <trkpt lat="47.583330" lon="8.304399">
        <ele>326.983373</ele>
        <time>2021-11-22T14:00:30.514Z</time>
      </trkpt>
      <trkpt lat="47.583199" lon="8.304600">
        <ele>326.549817</ele>
        <time>2021-11-22T14:00:32.576Z</time>
      </trkpt>
      <trkpt lat="47.583199" lon="8.304600">
        <ele>326.549817</ele>
        <time>2021-11-22T14:00:32.578Z</time>
      </trkpt>
      <trkpt lat="47.583087" lon="8.304770">
        <ele>326.181198</ele>
        <time>2021-11-22T14:00:34.313Z</time>
      </trkpt>
      <trkpt lat="47.583035" lon="8.304851">
        <ele>326.007741</ele>
        <time>2021-11-22T14:00:35.203Z</time>
      </trkpt>
      <trkpt lat="47.582919" lon="8.305012">
        <ele>325.731420</ele>
        <time>2021-11-22T14:00:36.926Z</time>
      </trkpt>
      <trkpt lat="47.582830" lon="8.305110">
        <ele>325.613228</ele>
        <time>2021-11-22T14:00:38.169Z</time>
      </trkpt>
      <trkpt lat="47.582540" lon="8.305337">
        <ele>325.263609</ele>
        <time>2021-11-22T14:00:41.854Z</time>
      </trkpt>
      <trkpt lat="47.582260" lon="8.305439">
        <ele>324.956220</ele>
        <time>2021-11-22T14:00:45.336Z</time>
      </trkpt>
      <trkpt lat="47.581924" lon="8.305548">
        <ele>324.589532</ele>
        <time>2021-11-22T14:00:49.465Z</time>
      </trkpt>
      <trkpt lat="47.581818" lon="8.305598">
        <ele>324.470943</ele>
        <time>2021-11-22T14:00:50.832Z</time>
      </trkpt>
      <trkpt lat="47.581641" lon="8.305806">
        <ele>324.230149</ele>
        <time>2021-11-22T14:00:53.757Z</time>
      </trkpt>
      <trkpt lat="47.581578" lon="8.306090">
        <ele>324.015155</ele>
        <time>2021-11-22T14:00:56.480Z</time>
      </trkpt>
      <trkpt lat="47.581592" lon="8.306205">
        <ele>323.931119</ele>
        <time>2021-11-22T14:00:57.583Z</time>
      </trkpt>
      <trkpt lat="47.581629" lon="8.306307">
        <ele>323.903507</ele>
        <time>2021-11-22T14:00:58.810Z</time>
      </trkpt>
      <trkpt lat="47.582021" lon="8.306927">
        <ele>324.082728</ele>
        <time>2021-11-22T14:01:07.800Z</time>
      </trkpt>
      <trkpt lat="47.582006" lon="8.306969">
        <ele>324.092751</ele>
        <time>2021-11-22T14:01:08.233Z</time>
      </trkpt>
      <trkpt lat="47.582002" lon="8.307015">
        <ele>324.102532</ele>
        <time>2021-11-22T14:01:08.693Z</time>
      </trkpt>
      <trkpt lat="47.582007" lon="8.307061">
        <ele>324.112359</ele>
        <time>2021-11-22T14:01:09.171Z</time>
      </trkpt>
      <trkpt lat="47.582022" lon="8.307102">
        <ele>324.122196</ele>
        <time>2021-11-22T14:01:09.683Z</time>
      </trkpt>
      <trkpt lat="47.582045" lon="8.307134">
        <ele>324.132058</ele>
        <time>2021-11-22T14:01:10.187Z</time>
      </trkpt>
      <trkpt lat="47.581836" lon="8.307521">
        <ele>324.236614</ele>
        <time>2021-11-22T14:01:15.511Z</time>
      </trkpt>
      <trkpt lat="47.581642" lon="8.307841">
        <ele>324.327355</ele>
        <time>2021-11-22T14:01:20.324Z</time>
      </trkpt>
      <trkpt lat="47.581488" lon="8.308069">
        <ele>324.395404</ele>
        <time>2021-11-22T14:01:24.183Z</time>
      </trkpt>
      <trkpt lat="47.581381" lon="8.308222">
        <ele>324.441885</ele>
        <time>2021-11-22T14:01:26.681Z</time>
      </trkpt>
      <trkpt lat="47.581263" lon="8.308384">
        <ele>324.624719</ele>
        <time>2021-11-22T14:01:29.668Z</time>
      </trkpt>
      <trkpt lat="47.581094" lon="8.308614">
        <ele>324.940747</ele>
        <time>2021-11-22T14:01:33.740Z</time>
      </trkpt>
      <trkpt lat="47.580917" lon="8.308850">
        <ele>325.268682</ele>
        <time>2021-11-22T14:01:38.296Z</time>
      </trkpt>
      <trkpt lat="47.579912" lon="8.310195">
        <ele>327.292138</ele>
        <time>2021-11-22T14:02:06.792Z</time>
      </trkpt>
      <trkpt lat="47.579280" lon="8.311055">
        <ele>329.396372</ele>
        <time>2021-11-22T14:02:28.326Z</time>
      </trkpt>
      <trkpt lat="47.578237" lon="8.312418">
        <ele>332.489756</ele>
        <time>2021-11-22T14:03:04.202Z</time>
      </trkpt>
      <trkpt lat="47.577230" lon="8.313774">
        <ele>334.806098</ele>
        <time>2021-11-22T14:03:33.474Z</time>
      </trkpt>
      <trkpt lat="47.577015" lon="8.314083">
        <ele>334.819219</ele>
        <time>2021-11-22T14:03:38.199Z</time>
      </trkpt>
      <trkpt lat="47.576896" lon="8.314255">
        <ele>334.826502</ele>
        <time>2021-11-22T14:03:40.594Z</time>
      </trkpt>
      <trkpt lat="47.576703" lon="8.314547">
        <ele>334.838585</ele>
        <time>2021-11-22T14:03:44.423Z</time>
      </trkpt>
      <trkpt lat="47.576652" lon="8.314624">
        <ele>334.841775</ele>
        <time>2021-11-22T14:03:45.421Z</time>
      </trkpt>
      <trkpt lat="47.576568" lon="8.314750">
        <ele>334.847011</ele>
        <time>2021-11-22T14:03:47.058Z</time>
      </trkpt>
      <trkpt lat="47.576495" lon="8.314860">
        <ele>334.851572</ele>
        <time>2021-11-22T14:03:48.469Z</time>
      </trkpt>
      <trkpt lat="47.576260" lon="8.315214">
        <ele>334.866253</ele>
        <time>2021-11-22T14:03:52.999Z</time>
      </trkpt>
      <trkpt lat="47.575988" lon="8.315525">
        <ele>334.856386</ele>
        <time>2021-11-22T14:03:57.530Z</time>
      </trkpt>
      <trkpt lat="47.575642" lon="8.315919">
        <ele>334.733296</ele>
        <time>2021-11-22T14:04:03.120Z</time>
      </trkpt>
      <trkpt lat="47.575120" lon="8.316530">
        <ele>334.545652</ele>
        <time>2021-11-22T14:04:11.838Z</time>
      </trkpt>
      <trkpt lat="47.574755" lon="8.316956">
        <ele>334.414590</ele>
        <time>2021-11-22T14:04:18.575Z</time>
      </trkpt>
      <trkpt lat="47.574672" lon="8.317053">
        <ele>334.384772</ele>
        <time>2021-11-22T14:04:20.362Z</time>
      </trkpt>
      <trkpt lat="47.574451" lon="8.317295">
        <ele>334.540896</ele>
        <time>2021-11-22T14:04:24.912Z</time>
      </trkpt>
      <trkpt lat="47.573284" lon="8.318609">
        <ele>335.654278</ele>
        <time>2021-11-22T14:04:51.729Z</time>
      </trkpt>
      <trkpt lat="47.572687" lon="8.319346">
        <ele>336.287230</ele>
        <time>2021-11-22T14:05:06.615Z</time>
      </trkpt>
      <trkpt lat="47.572444" lon="8.319790">
        <ele>336.604918</ele>
        <time>2021-11-22T14:05:13.636Z</time>
      </trkpt>
      <trkpt lat="47.572258" lon="8.320190">
        <ele>336.874865</ele>
        <time>2021-11-22T14:05:19.462Z</time>
      </trkpt>
      <trkpt lat="47.572208" lon="8.320305">
        <ele>336.950887</ele>
        <time>2021-11-22T14:05:21.065Z</time>
      </trkpt>
      <trkpt lat="47.571854" lon="8.321128">
        <ele>337.319225</ele>
        <time>2021-11-22T14:05:32.293Z</time>
      </trkpt>
      <trkpt lat="47.571732" lon="8.321400">
        <ele>337.385805</ele>
        <time>2021-11-22T14:05:35.956Z</time>
      </trkpt>
      <trkpt lat="47.571495" lon="8.321929">
        <ele>337.515246</ele>
        <time>2021-11-22T14:05:42.956Z</time>
      </trkpt>
      <trkpt lat="47.570903" lon="8.323402">
        <ele>337.715092</ele>
        <time>2021-11-22T14:06:00.484Z</time>
      </trkpt>
      <trkpt lat="47.570746" lon="8.324033">
        <ele>337.652814</ele>
        <time>2021-11-22T14:06:07.105Z</time>
      </trkpt>
      <trkpt lat="47.570615" lon="8.324938">
        <ele>337.567104</ele>
        <time>2021-11-22T14:06:15.961Z</time>
      </trkpt>
      <trkpt lat="47.570567" lon="8.325388">
        <ele>337.524916</ele>
        <time>2021-11-22T14:06:20.186Z</time>
      </trkpt>
      <trkpt lat="47.570344" lon="8.327679">
        <ele>336.859330</ele>
        <time>2021-11-22T14:06:41.024Z</time>
      </trkpt>
      <trkpt lat="47.570148" lon="8.329561">
        <ele>336.741586</ele>
        <time>2021-11-22T14:06:58.635Z</time>
      </trkpt>
      <trkpt lat="47.569945" lon="8.331447">
        <ele>337.268573</ele>
        <time>2021-11-22T14:07:19.698Z</time>
      </trkpt>
      <trkpt lat="47.569841" lon="8.332389">
        <ele>337.976366</ele>
        <time>2021-11-22T14:07:32.062Z</time>
      </trkpt>
      <trkpt lat="47.569747" lon="8.333347">
        <ele>338.694207</ele>
        <time>2021-11-22T14:07:45.594Z</time>
      </trkpt>
      <trkpt lat="47.569721" lon="8.333853">
        <ele>339.264888</ele>
        <time>2021-11-22T14:07:53.112Z</time>
      </trkpt>
      <trkpt lat="47.569685" lon="8.334534">
        <ele>340.063964</ele>
        <time>2021-11-22T14:08:03.664Z</time>
      </trkpt>
      <trkpt lat="47.569621" lon="8.335708">
        <ele>341.441788</ele>
        <time>2021-11-22T14:08:21.565Z</time>
      </trkpt>
      <trkpt lat="47.569563" lon="8.337000">
        <ele>342.325745</ele>
        <time>2021-11-22T14:08:39.044Z</time>
      </trkpt>
      <trkpt lat="47.569540" lon="8.337703">
        <ele>342.678681</ele>
        <time>2021-11-22T14:08:47.712Z</time>
      </trkpt>
      <trkpt lat="47.569526" lon="8.339098">
        <ele>343.055242</ele>
        <time>2021-11-22T14:09:02.344Z</time>
      </trkpt>
      <trkpt lat="47.569517" lon="8.339689">
        <ele>342.844983</ele>
        <time>2021-11-22T14:09:07.523Z</time>
      </trkpt>
      <trkpt lat="47.569380" lon="8.342646">
        <ele>342.049020</ele>
        <time>2021-11-22T14:09:32.859Z</time>
      </trkpt>
      <trkpt lat="47.569350" lon="8.343555">
        <ele>341.910950</ele>
        <time>2021-11-22T14:09:41.729Z</time>
      </trkpt>
      <trkpt lat="47.569296" lon="8.344960">
        <ele>342.512532</ele>
        <time>2021-11-22T14:09:58.438Z</time>
      </trkpt>
      <trkpt lat="47.569288" lon="8.345992">
        <ele>343.272659</ele>
        <time>2021-11-22T14:10:12.630Z</time>
      </trkpt>
      <trkpt lat="47.569286" lon="8.346589">
        <ele>343.712359</ele>
        <time>2021-11-22T14:10:20.979Z</time>
      </trkpt>
      <trkpt lat="47.569284" lon="8.346782">
        <ele>343.862321</ele>
        <time>2021-11-22T14:10:23.760Z</time>
      </trkpt>
      <trkpt lat="47.569266" lon="8.347784">
        <ele>344.706329</ele>
        <time>2021-11-22T14:10:37.182Z</time>
      </trkpt>
      <trkpt lat="47.569258" lon="8.348128">
        <ele>344.996158</ele>
        <time>2021-11-22T14:10:41.675Z</time>
      </trkpt>
      <trkpt lat="47.569248" lon="8.348519">
        <ele>345.325626</ele>
        <time>2021-11-22T14:10:46.812Z</time>
      </trkpt>
      <trkpt lat="47.569202" lon="8.349358">
        <ele>346.034415</ele>
        <time>2021-11-22T14:10:57.976Z</time>
      </trkpt>
      <trkpt lat="47.569070" lon="8.350270">
        <ele>346.644108</ele>
        <time>2021-11-22T14:11:10.219Z</time>
      </trkpt>
      <trkpt lat="47.568975" lon="8.350827">
        <ele>347.018195</ele>
        <time>2021-11-22T14:11:17.410Z</time>
      </trkpt>
      <trkpt lat="47.568888" lon="8.351175">
        <ele>347.259844</ele>
        <time>2021-11-22T14:11:22.251Z</time>
      </trkpt>
      <trkpt lat="47.568593" lon="8.352495">
        <ele>347.723347</ele>
        <time>2021-11-22T14:11:39.315Z</time>
      </trkpt>
      <trkpt lat="47.568488" lon="8.353622">
        <ele>347.613079</ele>
        <time>2021-11-22T14:11:50.320Z</time>
      </trkpt>
      <trkpt lat="47.568479" lon="8.353830">
        <ele>347.592878</ele>
        <time>2021-11-22T14:11:51.909Z</time>
      </trkpt>
      <trkpt lat="47.568480" lon="8.354402">
        <ele>347.537438</ele>
        <time>2021-11-22T14:11:56.836Z</time>
      </trkpt>
      <trkpt lat="47.568490" lon="8.354797">
        <ele>347.466357</ele>
        <time>2021-11-22T14:12:00.488Z</time>
      </trkpt>
      <trkpt lat="47.568492" lon="8.354895">
        <ele>347.443374</ele>
        <time>2021-11-22T14:12:01.148Z</time>
      </trkpt>
      <trkpt lat="47.568538" lon="8.356734">
        <ele>347.011992</ele>
        <time>2021-11-22T14:12:17.014Z</time>
      </trkpt>
      <trkpt lat="47.568473" lon="8.357323">
        <ele>347.357123</ele>
        <time>2021-11-22T14:12:22.843Z</time>
      </trkpt>
      <trkpt lat="47.568278" lon="8.358109">
        <ele>350.933502</ele>
        <time>2021-11-22T14:12:36.214Z</time>
      </trkpt>
      <trkpt lat="47.568153" lon="8.358428">
        <ele>352.508894</ele>
        <time>2021-11-22T14:12:43.557Z</time>
      </trkpt>
      <trkpt lat="47.568086" lon="8.358533">
        <ele>353.126073</ele>
        <time>2021-11-22T14:12:47.637Z</time>
      </trkpt>
      <trkpt lat="47.567738" lon="8.359318">
        <ele>357.137352</ele>
        <time>2021-11-22T14:13:20.522Z</time>
      </trkpt>
      <trkpt lat="47.567666" lon="8.359552">
        <ele>358.235681</ele>
        <time>2021-11-22T14:13:32.412Z</time>
      </trkpt>
      <trkpt lat="47.567637" lon="8.359600">
        <ele>358.764743</ele>
        <time>2021-11-22T14:13:35.987Z</time>
      </trkpt>
      <trkpt lat="47.567574" lon="8.359795">
        <ele>360.711485</ele>
        <time>2021-11-22T14:13:45.321Z</time>
      </trkpt>
      <trkpt lat="47.567551" lon="8.359859">
        <ele>361.364404</ele>
        <time>2021-11-22T14:13:49.456Z</time>
      </trkpt>
      <trkpt lat="47.567514" lon="8.359898">
        <ele>361.970316</ele>
        <time>2021-11-22T14:13:53.079Z</time>
      </trkpt>
      <trkpt lat="47.567485" lon="8.359927">
        <ele>362.437181</ele>
        <time>2021-11-22T14:13:55.294Z</time>
      </trkpt>
      <trkpt lat="47.567436" lon="8.359956">
        <ele>363.141305</ele>
        <time>2021-11-22T14:13:59.736Z</time>
      </trkpt>
      <trkpt lat="47.567343" lon="8.359931">
        <ele>364.402657</ele>
        <time>2021-11-22T14:14:06.184Z</time>
      </trkpt>
      <trkpt lat="47.567302" lon="8.359966">
        <ele>365.034081</ele>
        <time>2021-11-22T14:14:09.424Z</time>
      </trkpt>
      <trkpt lat="47.567209" lon="8.359924">
        <ele>366.331524</ele>
        <time>2021-11-22T14:14:16.834Z</time>
      </trkpt>
      <trkpt lat="47.567141" lon="8.359888">
        <ele>367.295156</ele>
        <time>2021-11-22T14:14:21.940Z</time>
      </trkpt>
      <trkpt lat="47.566786" lon="8.359699">
        <ele>372.329095</ele>
        <time>2021-11-22T14:14:48.926Z</time>
      </trkpt>
      <trkpt lat="47.566127" lon="8.359215">
        <ele>382.144211</ele>
        <time>2021-11-22T14:15:40.978Z</time>
      </trkpt>
      <trkpt lat="47.565501" lon="8.358709">
        <ele>387.320534</ele>
        <time>2021-11-22T14:16:23.820Z</time>
      </trkpt>
      <trkpt lat="47.565149" lon="8.358509">
        <ele>390.022734</ele>
        <time>2021-11-22T14:16:39.349Z</time>
      </trkpt>
      <trkpt lat="47.564693" lon="8.358382">
        <ele>393.348550</ele>
        <time>2021-11-22T14:16:52.973Z</time>
      </trkpt>
      <trkpt lat="47.564414" lon="8.358344">
        <ele>395.203749</ele>
        <time>2021-11-22T14:16:59.126Z</time>
      </trkpt>
      <trkpt lat="47.563613" lon="8.358427">
        <ele>396.041746</ele>
        <time>2021-11-22T14:17:16.289Z</time>
      </trkpt>
      <trkpt lat="47.562983" lon="8.358347">
        <ele>396.701648</ele>
        <time>2021-11-22T14:17:27.207Z</time>
      </trkpt>
      <trkpt lat="47.561974" lon="8.358081">
        <ele>396.569242</ele>
        <time>2021-11-22T14:17:41.482Z</time>
      </trkpt>
      <trkpt lat="47.561702" lon="8.358115">
        <ele>396.376165</ele>
        <time>2021-11-22T14:17:45.141Z</time>
      </trkpt>
      <trkpt lat="47.561555" lon="8.358159">
        <ele>396.270087</ele>
        <time>2021-11-22T14:17:46.746Z</time>
      </trkpt>
      <trkpt lat="47.561494" lon="8.358178">
        <ele>396.225997</ele>
        <time>2021-11-22T14:17:47.910Z</time>
      </trkpt>
      <trkpt lat="47.560811" lon="8.358683">
        <ele>395.612667</ele>
        <time>2021-11-22T14:17:57.143Z</time>
      </trkpt>
      <trkpt lat="47.559916" lon="8.359170">
        <ele>394.424924</ele>
        <time>2021-11-22T14:18:07.972Z</time>
      </trkpt>
      <trkpt lat="47.559402" lon="8.359549">
        <ele>393.709715</ele>
        <time>2021-11-22T14:18:14.888Z</time>
      </trkpt>
      <trkpt lat="47.559241" lon="8.359754">
        <ele>393.600037</ele>
        <time>2021-11-22T14:18:17.377Z</time>
      </trkpt>
      <trkpt lat="47.559089" lon="8.360004">
        <ele>393.770332</ele>
        <time>2021-11-22T14:18:20.226Z</time>
      </trkpt>
      <trkpt lat="47.558950" lon="8.360282">
        <ele>393.945430</ele>
        <time>2021-11-22T14:18:23.870Z</time>
      </trkpt>
      <trkpt lat="47.558752" lon="8.360672">
        <ele>394.192418</ele>
        <time>2021-11-22T14:18:29.517Z</time>
      </trkpt>
      <trkpt lat="47.558606" lon="8.360956">
        <ele>394.373097</ele>
        <time>2021-11-22T14:18:33.944Z</time>
      </trkpt>
      <trkpt lat="47.558229" lon="8.361583">
        <ele>394.798091</ele>
        <time>2021-11-22T14:18:45.318Z</time>
      </trkpt>
      <trkpt lat="47.558083" lon="8.361755">
        <ele>395.118601</ele>
        <time>2021-11-22T14:18:49.296Z</time>
      </trkpt>
      <trkpt lat="47.557959" lon="8.361862">
        <ele>395.637768</ele>
        <time>2021-11-22T14:18:53.079Z</time>
      </trkpt>
      <trkpt lat="47.557875" lon="8.361925">
        <ele>395.978398</ele>
        <time>2021-11-22T14:18:55.710Z</time>
      </trkpt>
      <trkpt lat="47.556887" lon="8.362665">
        <ele>399.983760</ele>
        <time>2021-11-22T14:19:29.261Z</time>
      </trkpt>
      <trkpt lat="47.556570" lon="8.363057">
        <ele>401.493205</ele>
        <time>2021-11-22T14:19:42.904Z</time>
      </trkpt>
      <trkpt lat="47.556512" lon="8.363147">
        <ele>401.856871</ele>
        <time>2021-11-22T14:19:46.028Z</time>
      </trkpt>
      <trkpt lat="47.556425" lon="8.363327">
        <ele>402.503883</ele>
        <time>2021-11-22T14:19:50.610Z</time>
      </trkpt>
      <trkpt lat="47.555886" lon="8.364450">
        <ele>406.531016</ele>
        <time>2021-11-22T14:20:21.216Z</time>
      </trkpt>
      <trkpt lat="47.555762" lon="8.364635">
        <ele>407.292992</ele>
        <time>2021-11-22T14:20:27.318Z</time>
      </trkpt>
      <trkpt lat="47.555605" lon="8.364867">
        <ele>408.253132</ele>
        <time>2021-11-22T14:20:34.757Z</time>
      </trkpt>
      <trkpt lat="47.555465" lon="8.365126">
        <ele>409.213026</ele>
        <time>2021-11-22T14:20:41.025Z</time>
      </trkpt>
      <trkpt lat="47.555402" lon="8.365293">
        <ele>409.618658</ele>
        <time>2021-11-22T14:20:44.591Z</time>
      </trkpt>
      <trkpt lat="47.555402" lon="8.365293">
        <ele>409.618658</ele>
        <time>2021-11-22T14:20:44.685Z</time>
      </trkpt>
      <trkpt lat="47.555359" lon="8.365464">
        <ele>410.005557</ele>
        <time>2021-11-22T14:20:48.244Z</time>
      </trkpt>
      <trkpt lat="47.555312" lon="8.365815">
        <ele>410.764247</ele>
        <time>2021-11-22T14:20:54.935Z</time>
      </trkpt>
      <trkpt lat="47.555280" lon="8.367002">
        <ele>413.282908</ele>
        <time>2021-11-22T14:21:17.039Z</time>
      </trkpt>
      <trkpt lat="47.554800" lon="8.368720">
        <ele>416.862129</ele>
        <time>2021-11-22T14:21:48.442Z</time>
      </trkpt>
      <trkpt lat="47.554687" lon="8.369162">
        <ele>417.711862</ele>
        <time>2021-11-22T14:21:56.506Z</time>
      </trkpt>
      <trkpt lat="47.554604" lon="8.369566">
        <ele>418.471084</ele>
        <time>2021-11-22T14:22:03.938Z</time>
      </trkpt>
      <trkpt lat="47.554414" lon="8.370893">
        <ele>420.597596</ele>
        <time>2021-11-22T14:22:27.705Z</time>
      </trkpt>
      <trkpt lat="47.554364" lon="8.372612">
        <ele>422.936818</ele>
        <time>2021-11-22T14:22:52.499Z</time>
      </trkpt>
      <trkpt lat="47.554388" lon="8.373028">
        <ele>423.475886</ele>
        <time>2021-11-22T14:22:59.316Z</time>
      </trkpt>
      <trkpt lat="47.554404" lon="8.373245">
        <ele>423.739058</ele>
        <time>2021-11-22T14:23:02.090Z</time>
      </trkpt>
      <trkpt lat="47.554425" lon="8.373526">
        <ele>424.079902</ele>
        <time>2021-11-22T14:23:06.816Z</time>
      </trkpt>
      <trkpt lat="47.554435" lon="8.373663">
        <ele>424.246032</ele>
        <time>2021-11-22T14:23:08.119Z</time>
      </trkpt>
      <trkpt lat="47.554443" lon="8.374144">
        <ele>424.826101</ele>
        <time>2021-11-22T14:23:15.365Z</time>
      </trkpt>
      <trkpt lat="47.554426" lon="8.374368">
        <ele>425.097857</ele>
        <time>2021-11-22T14:23:18.683Z</time>
      </trkpt>
      <trkpt lat="47.554376" lon="8.374667">
        <ele>425.469232</ele>
        <time>2021-11-22T14:23:23.310Z</time>
      </trkpt>
      <trkpt lat="47.554318" lon="8.374792">
        <ele>425.652113</ele>
        <time>2021-11-22T14:23:25.471Z</time>
      </trkpt>
      <trkpt lat="47.554232" lon="8.374978">
        <ele>425.923933</ele>
        <time>2021-11-22T14:23:29.413Z</time>
      </trkpt>
      <trkpt lat="47.553741" lon="8.375775">
        <ele>427.237949</ele>
        <time>2021-11-22T14:23:45.046Z</time>
      </trkpt>
      <trkpt lat="47.553640" lon="8.375939">
        <ele>427.510205</ele>
        <time>2021-11-22T14:23:48.503Z</time>
      </trkpt>
      <trkpt lat="47.553240" lon="8.376794">
        <ele>428.785953</ele>
        <time>2021-11-22T14:24:04.577Z</time>
      </trkpt>
      <trkpt lat="47.553207" lon="8.376864">
        <ele>428.890662</ele>
        <time>2021-11-22T14:24:05.600Z</time>
      </trkpt>
      <trkpt lat="47.553032" lon="8.377160">
        <ele>429.373221</ele>
        <time>2021-11-22T14:24:10.780Z</time>
      </trkpt>
      <trkpt lat="47.552190" lon="8.378246">
        <ele>431.677462</ele>
        <time>2021-11-22T14:24:35.615Z</time>
      </trkpt>
      <trkpt lat="47.551779" lon="8.378935">
        <ele>432.991602</ele>
        <time>2021-11-22T14:24:50.141Z</time>
      </trkpt>
      <trkpt lat="47.551568" lon="8.379229">
        <ele>433.632399</ele>
        <time>2021-11-22T14:24:57.800Z</time>
      </trkpt>
      <trkpt lat="47.551337" lon="8.379438">
        <ele>434.455481</ele>
        <time>2021-11-22T14:25:04.904Z</time>
      </trkpt>
      <trkpt lat="47.550794" lon="8.379648">
        <ele>436.162055</ele>
        <time>2021-11-22T14:25:20.176Z</time>
      </trkpt>
      <trkpt lat="47.549929" lon="8.379656">
        <ele>438.792549</ele>
        <time>2021-11-22T14:25:44.965Z</time>
      </trkpt>
      <trkpt lat="47.549509" lon="8.379675">
        <ele>439.710714</ele>
        <time>2021-11-22T14:25:55.524Z</time>
      </trkpt>
      <trkpt lat="47.549396" lon="8.379694">
        <ele>439.939082</ele>
        <time>2021-11-22T14:25:58.303Z</time>
      </trkpt>
      <trkpt lat="47.549259" lon="8.379724">
        <ele>440.217177</ele>
        <time>2021-11-22T14:26:02.129Z</time>
      </trkpt>
      <trkpt lat="47.547912" lon="8.380138">
        <ele>442.934917</ele>
        <time>2021-11-22T14:26:31.717Z</time>
      </trkpt>
      <trkpt lat="47.547590" lon="8.380207">
        <ele>443.506241</ele>
        <time>2021-11-22T14:26:36.774Z</time>
      </trkpt>
      <trkpt lat="47.547554" lon="8.380212">
        <ele>443.569735</ele>
        <time>2021-11-22T14:26:37.328Z</time>
      </trkpt>
      <trkpt lat="47.547379" lon="8.380229">
        <ele>443.877700</ele>
        <time>2021-11-22T14:26:40.549Z</time>
      </trkpt>
      <trkpt lat="47.547263" lon="8.380226">
        <ele>444.081430</ele>
        <time>2021-11-22T14:26:42.552Z</time>
      </trkpt>
      <trkpt lat="47.547092" lon="8.380215">
        <ele>444.381993</ele>
        <time>2021-11-22T14:26:45.432Z</time>
      </trkpt>
      <trkpt lat="47.546769" lon="8.380177">
        <ele>444.950975</ele>
        <time>2021-11-22T14:26:51.139Z</time>
      </trkpt>
      <trkpt lat="47.546571" lon="8.380156">
        <ele>445.299559</ele>
        <time>2021-11-22T14:26:56.322Z</time>
      </trkpt>
      <trkpt lat="47.546144" lon="8.380109">
        <ele>446.575692</ele>
        <time>2021-11-22T14:27:09.561Z</time>
      </trkpt>
      <trkpt lat="47.545881" lon="8.380069">
        <ele>447.942581</ele>
        <time>2021-11-22T14:27:18.565Z</time>
      </trkpt>
      <trkpt lat="47.545303" lon="8.379881">
        <ele>451.002089</ele>
        <time>2021-11-22T14:27:39.799Z</time>
      </trkpt>
      <trkpt lat="47.545208" lon="8.379836">
        <ele>451.517746</ele>
        <time>2021-11-22T14:27:44.159Z</time>
      </trkpt>
      <trkpt lat="47.545123" lon="8.379797">
        <ele>451.977801</ele>
        <time>2021-11-22T14:27:47.410Z</time>
      </trkpt>
      <trkpt lat="47.544922" lon="8.379690">
        <ele>453.082050</ele>
        <time>2021-11-22T14:27:55.886Z</time>
      </trkpt>
      <trkpt lat="47.544734" lon="8.379557">
        <ele>454.159173</ele>
        <time>2021-11-22T14:28:03.927Z</time>
      </trkpt>
      <trkpt lat="47.544602" lon="8.379439">
        <ele>454.956252</ele>
        <time>2021-11-22T14:28:10.152Z</time>
      </trkpt>
      <trkpt lat="47.544066" lon="8.378888">
        <ele>457.681643</ele>
        <time>2021-11-22T14:28:33.842Z</time>
      </trkpt>
      <trkpt lat="47.543749" lon="8.378536">
        <ele>459.321500</ele>
        <time>2021-11-22T14:28:47.813Z</time>
      </trkpt>
      <trkpt lat="47.543651" lon="8.378428">
        <ele>459.827089</ele>
        <time>2021-11-22T14:28:50.511Z</time>
      </trkpt>
      <trkpt lat="47.543209" lon="8.377909">
        <ele>462.161694</ele>
        <time>2021-11-22T14:29:05.217Z</time>
      </trkpt>
      <trkpt lat="47.543099" lon="8.377743">
        <ele>462.737537</ele>
        <time>2021-11-22T14:29:07.784Z</time>
      </trkpt>
      <trkpt lat="47.543006" lon="8.377547">
        <ele>463.233133</ele>
        <time>2021-11-22T14:29:12.991Z</time>
      </trkpt>
      <trkpt lat="47.542743" lon="8.376799">
        <ele>464.977796</ele>
        <time>2021-11-22T14:29:25.548Z</time>
      </trkpt>
      <trkpt lat="47.542733" lon="8.376772">
        <ele>465.041504</ele>
        <time>2021-11-22T14:29:26.597Z</time>
      </trkpt>
      <trkpt lat="47.542601" lon="8.376414">
        <ele>465.885355</ele>
        <time>2021-11-22T14:29:33.595Z</time>
      </trkpt>
      <trkpt lat="47.542566" lon="8.376341">
        <ele>466.070581</ele>
        <time>2021-11-22T14:29:35.013Z</time>
      </trkpt>
      <trkpt lat="47.542492" lon="8.376176">
        <ele>466.480375</ele>
        <time>2021-11-22T14:29:39.679Z</time>
      </trkpt>
      <trkpt lat="47.542352" lon="8.375948">
        <ele>467.117966</ele>
        <time>2021-11-22T14:29:44.600Z</time>
      </trkpt>
      <trkpt lat="47.542229" lon="8.375754">
        <ele>467.668544</ele>
        <time>2021-11-22T14:29:50.990Z</time>
      </trkpt>
      <trkpt lat="47.541175" lon="8.374430">
        <ele>473.705897</ele>
        <time>2021-11-22T14:30:36.260Z</time>
      </trkpt>
      <trkpt lat="47.540889" lon="8.374106">
        <ele>475.323761</ele>
        <time>2021-11-22T14:30:48.201Z</time>
      </trkpt>
      <trkpt lat="47.540660" lon="8.373895">
        <ele>476.599358</ele>
        <time>2021-11-22T14:30:56.873Z</time>
      </trkpt>
      <trkpt lat="47.540088" lon="8.373567">
        <ele>479.778701</ele>
        <time>2021-11-22T14:31:18.794Z</time>
      </trkpt>
      <trkpt lat="47.539978" lon="8.373503">
        <ele>480.391286</ele>
        <time>2021-11-22T14:31:22.617Z</time>
      </trkpt>
      <trkpt lat="47.539872" lon="8.373476">
        <ele>480.948799</ele>
        <time>2021-11-22T14:31:26.967Z</time>
      </trkpt>
      <trkpt lat="47.539768" lon="8.373453">
        <ele>481.493855</ele>
        <time>2021-11-22T14:31:31.266Z</time>
      </trkpt>
      <trkpt lat="47.539280" lon="8.373398">
        <ele>484.030701</ele>
        <time>2021-11-22T14:31:48.866Z</time>
      </trkpt>
      <trkpt lat="47.539086" lon="8.373386">
        <ele>485.037171</ele>
        <time>2021-11-22T14:31:56.262Z</time>
      </trkpt>
      <trkpt lat="47.538769" lon="8.373368">
        <ele>486.585909</ele>
        <time>2021-11-22T14:32:07.017Z</time>
      </trkpt>
      <trkpt lat="47.538009" lon="8.373343">
        <ele>490.221960</ele>
        <time>2021-11-22T14:32:33.242Z</time>
      </trkpt>
      <trkpt lat="47.536848" lon="8.373366">
        <ele>495.649227</ele>
        <time>2021-11-22T14:33:11.605Z</time>
      </trkpt>
      <trkpt lat="47.536591" lon="8.373371">
        <ele>496.788715</ele>
        <time>2021-11-22T14:33:20.061Z</time>
      </trkpt>
      <trkpt lat="47.535899" lon="8.373469">
        <ele>499.870636</ele>
        <time>2021-11-22T14:33:42.067Z</time>
      </trkpt>
      <trkpt lat="47.535815" lon="8.373488">
        <ele>500.247360</ele>
        <time>2021-11-22T14:33:45.109Z</time>
      </trkpt>
      <trkpt lat="47.534527" lon="8.373801">
        <ele>504.915263</ele>
        <time>2021-11-22T14:34:27.866Z</time>
      </trkpt>
      <trkpt lat="47.534342" lon="8.373842">
        <ele>505.513407</ele>
        <time>2021-11-22T14:34:33.414Z</time>
      </trkpt>
      <trkpt lat="47.534172" lon="8.373867">
        <ele>506.059673</ele>
        <time>2021-11-22T14:34:37.826Z</time>
      </trkpt>
      <trkpt lat="47.533502" lon="8.373734">
        <ele>507.693400</ele>
        <time>2021-11-22T14:34:52.560Z</time>
      </trkpt>
      <trkpt lat="47.532383" lon="8.373267">
        <ele>507.042374</ele>
        <time>2021-11-22T14:35:07.723Z</time>
      </trkpt>
      <trkpt lat="47.532352" lon="8.373254">
        <ele>507.024332</ele>
        <time>2021-11-22T14:35:07.987Z</time>
      </trkpt>
      <trkpt lat="47.531748" lon="8.372995">
        <ele>506.417185</ele>
        <time>2021-11-22T14:35:16.138Z</time>
      </trkpt>
      <trkpt lat="47.531721" lon="8.372983">
        <ele>506.357941</ele>
        <time>2021-11-22T14:35:16.406Z</time>
      </trkpt>
      <trkpt lat="47.531072" lon="8.372724">
        <ele>504.945336</ele>
        <time>2021-11-22T14:35:23.946Z</time>
      </trkpt>
      <trkpt lat="47.530961" lon="8.372679">
        <ele>504.703473</ele>
        <time>2021-11-22T14:35:24.978Z</time>
      </trkpt>
      <trkpt lat="47.530180" lon="8.372374">
        <ele>503.005997</ele>
        <time>2021-11-22T14:35:34.039Z</time>
      </trkpt>
      <trkpt lat="47.529750" lon="8.372195">
        <ele>501.512189</ele>
        <time>2021-11-22T14:35:38.764Z</time>
      </trkpt>
      <trkpt lat="47.529511" lon="8.372086">
        <ele>500.668649</ele>
        <time>2021-11-22T14:35:41.326Z</time>
      </trkpt>
      <trkpt lat="47.529319" lon="8.371963">
        <ele>499.963013</ele>
        <time>2021-11-22T14:35:43.494Z</time>
      </trkpt>
      <trkpt lat="47.529189" lon="8.371858">
        <ele>499.463532</ele>
        <time>2021-11-22T14:35:44.944Z</time>
      </trkpt>
      <trkpt lat="47.528599" lon="8.371218">
        <ele>496.996647</ele>
        <time>2021-11-22T14:35:51.997Z</time>
      </trkpt>
      <trkpt lat="47.527198" lon="8.369117">
        <ele>488.953947</ele>
        <time>2021-11-22T14:36:11.347Z</time>
      </trkpt>
      <trkpt lat="47.526717" lon="8.368685">
        <ele>487.064215</ele>
        <time>2021-11-22T14:36:17.008Z</time>
      </trkpt>
      <trkpt lat="47.526176" lon="8.368417">
        <ele>485.147866</ele>
        <time>2021-11-22T14:36:22.786Z</time>
      </trkpt>
      <trkpt lat="47.525613" lon="8.368266">
        <ele>483.257835</ele>
        <time>2021-11-22T14:36:28.653Z</time>
      </trkpt>
      <trkpt lat="47.525480" lon="8.368230">
        <ele>482.858914</ele>
        <time>2021-11-22T14:36:30.055Z</time>
      </trkpt>
      <trkpt lat="47.525152" lon="8.368143">
        <ele>481.875742</ele>
        <time>2021-11-22T14:36:33.496Z</time>
      </trkpt>
      <trkpt lat="47.523036" lon="8.367539">
        <ele>475.646682</ele>
        <time>2021-11-22T14:36:55.610Z</time>
      </trkpt>
      <trkpt lat="47.522176" lon="8.367120">
        <ele>473.131293</ele>
        <time>2021-11-22T14:37:04.867Z</time>
      </trkpt>
      <trkpt lat="47.521465" lon="8.366651">
        <ele>473.052014</ele>
        <time>2021-11-22T14:37:14.011Z</time>
      </trkpt>
      <trkpt lat="47.521120" lon="8.366413">
        <ele>473.013248</ele>
        <time>2021-11-22T14:37:19.732Z</time>
      </trkpt>
      <trkpt lat="47.520973" lon="8.366320">
        <ele>472.996966</ele>
        <time>2021-11-22T14:37:22.437Z</time>
      </trkpt>
      <trkpt lat="47.520968" lon="8.365411">
        <ele>473.538659</ele>
        <time>2021-11-22T14:37:35.258Z</time>
      </trkpt>
      <trkpt lat="47.520969" lon="8.364009">
        <ele>477.420572</ele>
        <time>2021-11-22T14:38:04.250Z</time>
      </trkpt>
      <trkpt lat="47.520877" lon="8.363517">
        <ele>478.834099</ele>
        <time>2021-11-22T14:38:16.953Z</time>
      </trkpt>
      <trkpt lat="47.520735" lon="8.363313">
        <ele>479.645279</ele>
        <time>2021-11-22T14:38:24.549Z</time>
      </trkpt>
      <trkpt lat="47.520551" lon="8.363169">
        <ele>480.489173</ele>
        <time>2021-11-22T14:38:31.559Z</time>
      </trkpt>
      <trkpt lat="47.520425" lon="8.363160">
        <ele>480.978608</ele>
        <time>2021-11-22T14:38:36.962Z</time>
      </trkpt>
      <trkpt lat="47.519789" lon="8.363149">
        <ele>483.446389</ele>
        <time>2021-11-22T14:38:58.466Z</time>
      </trkpt>
      <trkpt lat="47.519708" lon="8.363119">
        <ele>483.770342</ele>
        <time>2021-11-22T14:39:02.120Z</time>
      </trkpt>
      <trkpt lat="47.519815" lon="8.362762">
        <ele>484.793750</ele>
        <time>2021-11-22T14:39:09.064Z</time>
      </trkpt>
      <trkpt lat="47.519851" lon="8.362594">
        <ele>485.255577</ele>
        <time>2021-11-22T14:39:13.274Z</time>
      </trkpt>
      <trkpt lat="47.519897" lon="8.362385">
        <ele>485.831554</ele>
        <time>2021-11-22T14:39:16.999Z</time>
      </trkpt>
      <trkpt lat="47.519923" lon="8.362220">
        <ele>486.275503</ele>
        <time>2021-11-22T14:39:19.963Z</time>
      </trkpt>
      <trkpt lat="47.519958" lon="8.361994">
        <ele>486.883045</ele>
        <time>2021-11-22T14:39:24.481Z</time>
      </trkpt>
      <trkpt lat="47.519947" lon="8.361877">
        <ele>487.192567</ele>
        <time>2021-11-22T14:39:25.938Z</time>
      </trkpt>
      <trkpt lat="47.519931" lon="8.361794">
        <ele>487.285413</ele>
        <time>2021-11-22T14:39:26.855Z</time>
      </trkpt>
      <trkpt lat="47.519922" lon="8.361744">
        <ele>487.265973</ele>
        <time>2021-11-22T14:39:27.430Z</time>
      </trkpt>
      <trkpt lat="47.519929" lon="8.361598">
        <ele>487.210984</ele>
        <time>2021-11-22T14:39:30.042Z</time>
      </trkpt>
      <trkpt lat="47.519898" lon="8.361550">
        <ele>487.186033</ele>
        <time>2021-11-22T14:39:31.199Z</time>
      </trkpt>
      <trkpt lat="47.519859" lon="8.361513">
        <ele>487.160266</ele>
        <time>2021-11-22T14:39:32.203Z</time>
      </trkpt>
      <trkpt lat="47.519823" lon="8.361482">
        <ele>487.137099</ele>
        <time>2021-11-22T14:39:33.117Z</time>
      </trkpt>
      <trkpt lat="47.519705" lon="8.361455">
        <ele>487.070676</ele>
        <time>2021-11-22T14:39:35.340Z</time>
      </trkpt>
      <trkpt lat="47.519586" lon="8.361479">
        <ele>487.003866</ele>
        <time>2021-11-22T14:39:38.673Z</time>
      </trkpt>
      <trkpt lat="47.519359" lon="8.361509">
        <ele>486.877084</ele>
        <time>2021-11-22T14:39:42.896Z</time>
      </trkpt>
      <trkpt lat="47.519359" lon="8.361510">
        <ele>486.876708</ele>
        <time>2021-11-22T14:39:42.910Z</time>
      </trkpt>
      <trkpt lat="47.519359" lon="8.361509">
        <ele>486.876332</ele>
        <time>2021-11-22T14:39:43.044Z</time>
      </trkpt>
      <trkpt lat="47.519308" lon="8.361317">
        <ele>486.798820</ele>
        <time>2021-11-22T14:39:45.631Z</time>
      </trkpt>
      <trkpt lat="47.519160" lon="8.360575">
        <ele>486.508152</ele>
        <time>2021-11-22T14:39:54.398Z</time>
      </trkpt>
      <trkpt lat="47.519089" lon="8.360168">
        <ele>486.350226</ele>
        <time>2021-11-22T14:39:58.719Z</time>
      </trkpt>
      <trkpt lat="47.519000" lon="8.359657">
        <ele>485.582529</ele>
        <time>2021-11-22T14:40:03.990Z</time>
      </trkpt>
      <trkpt lat="47.518765" lon="8.358130">
        <ele>482.754213</ele>
        <time>2021-11-22T14:40:19.739Z</time>
      </trkpt>
      <trkpt lat="47.518717" lon="8.357254">
        <ele>481.228468</ele>
        <time>2021-11-22T14:40:28.623Z</time>
      </trkpt>
      <trkpt lat="47.518858" lon="8.356269">
        <ele>479.753990</ele>
        <time>2021-11-22T14:40:39.069Z</time>
      </trkpt>
      <trkpt lat="47.518870" lon="8.356152">
        <ele>479.580692</ele>
        <time>2021-11-22T14:40:40.336Z</time>
      </trkpt>
      <trkpt lat="47.518874" lon="8.355823">
        <ele>479.098828</ele>
        <time>2021-11-22T14:40:43.737Z</time>
      </trkpt>
      <trkpt lat="47.518415" lon="8.353934">
        <ele>477.024610</ele>
        <time>2021-11-22T14:41:05.497Z</time>
      </trkpt>
      <trkpt lat="47.518268" lon="8.353148">
        <ele>476.551828</ele>
        <time>2021-11-22T14:41:15.409Z</time>
      </trkpt>
      <trkpt lat="47.518256" lon="8.353057">
        <ele>476.498080</ele>
        <time>2021-11-22T14:41:16.597Z</time>
      </trkpt>
      <trkpt lat="47.518125" lon="8.350109">
        <ele>476.190295</ele>
        <time>2021-11-22T14:41:57.367Z</time>
      </trkpt>
      <trkpt lat="47.518164" lon="8.349525">
        <ele>476.251966</ele>
        <time>2021-11-22T14:42:05.715Z</time>
      </trkpt>
      <trkpt lat="47.518283" lon="8.347896">
        <ele>476.735588</ele>
        <time>2021-11-22T14:42:30.003Z</time>
      </trkpt>
      <trkpt lat="47.518402" lon="8.346421">
        <ele>477.061754</ele>
        <time>2021-11-22T14:42:52.415Z</time>
      </trkpt>
      <trkpt lat="47.518445" lon="8.346000">
        <ele>477.102382</ele>
        <time>2021-11-22T14:42:59.338Z</time>
      </trkpt>
      <trkpt lat="47.518602" lon="8.345322">
        <ele>477.170772</ele>
        <time>2021-11-22T14:43:10.963Z</time>
      </trkpt>
      <trkpt lat="47.518794" lon="8.344927">
        <ele>477.217209</ele>
        <time>2021-11-22T14:43:17.474Z</time>
      </trkpt>
      <trkpt lat="47.519427" lon="8.343865">
        <ele>475.301063</ele>
        <time>2021-11-22T14:43:33.337Z</time>
      </trkpt>
      <trkpt lat="47.519781" lon="8.343221">
        <ele>473.577039</ele>
        <time>2021-11-22T14:43:41.843Z</time>
      </trkpt>
      <trkpt lat="47.520114" lon="8.342442">
        <ele>471.574877</ele>
        <time>2021-11-22T14:43:50.269Z</time>
      </trkpt>
      <trkpt lat="47.520256" lon="8.342102">
        <ele>469.696517</ele>
        <time>2021-11-22T14:43:53.800Z</time>
      </trkpt>
      <trkpt lat="47.520607" lon="8.341768">
        <ele>466.793637</ele>
        <time>2021-11-22T14:43:59.172Z</time>
      </trkpt>
      <trkpt lat="47.520744" lon="8.341689">
        <ele>465.770727</ele>
        <time>2021-11-22T14:44:01.095Z</time>
      </trkpt>
      <trkpt lat="47.520576" lon="8.341313">
        <ele>463.652376</ele>
        <time>2021-11-22T14:44:05.006Z</time>
      </trkpt>
      <trkpt lat="47.520286" lon="8.340841">
        <ele>460.654123</ele>
        <time>2021-11-22T14:44:10.412Z</time>
      </trkpt>
      <trkpt lat="47.519888" lon="8.339966">
        <ele>455.217295</ele>
        <time>2021-11-22T14:44:19.297Z</time>
      </trkpt>
      <trkpt lat="47.519725" lon="8.339165">
        <ele>450.750754</ele>
        <time>2021-11-22T14:44:26.419Z</time>
      </trkpt>
      <trkpt lat="47.519714" lon="8.339077">
        <ele>450.272933</ele>
        <time>2021-11-22T14:44:27.132Z</time>
      </trkpt>
      <trkpt lat="47.519706" lon="8.339008">
        <ele>449.899146</ele>
        <time>2021-11-22T14:44:27.751Z</time>
      </trkpt>
      <trkpt lat="47.519683" lon="8.338832">
        <ele>448.942033</ele>
        <time>2021-11-22T14:44:29.286Z</time>
      </trkpt>
      <trkpt lat="47.520048" lon="8.338409">
        <ele>445.277697</ele>
        <time>2021-11-22T14:44:35.236Z</time>
      </trkpt>
      <trkpt lat="47.520263" lon="8.337826">
        <ele>442.308558</ele>
        <time>2021-11-22T14:44:40.891Z</time>
      </trkpt>
      <trkpt lat="47.520251" lon="8.337639">
        <ele>441.482881</ele>
        <time>2021-11-22T14:44:42.522Z</time>
      </trkpt>
      <trkpt lat="47.520048" lon="8.337047">
        <ele>438.564457</ele>
        <time>2021-11-22T14:44:48.295Z</time>
      </trkpt>
      <trkpt lat="47.519864" lon="8.336285">
        <ele>435.007332</ele>
        <time>2021-11-22T14:44:55.527Z</time>
      </trkpt>
      <trkpt lat="47.519972" lon="8.335714">
        <ele>432.567797</ele>
        <time>2021-11-22T14:45:00.779Z</time>
      </trkpt>
      <trkpt lat="47.520042" lon="8.334305">
        <ele>427.521519</ele>
        <time>2021-11-22T14:45:13.540Z</time>
      </trkpt>
      <trkpt lat="47.519998" lon="8.334232">
        <ele>427.172030</ele>
        <time>2021-11-22T14:45:14.343Z</time>
      </trkpt>
      <trkpt lat="47.520302" lon="8.333306">
        <ele>423.603119</ele>
        <time>2021-11-22T14:45:20.987Z</time>
      </trkpt>
      <trkpt lat="47.520606" lon="8.332756">
        <ele>422.035212</ele>
        <time>2021-11-22T14:45:25.598Z</time>
      </trkpt>
      <trkpt lat="47.520715" lon="8.332539">
        <ele>421.438600</ele>
        <time>2021-11-22T14:45:27.435Z</time>
      </trkpt>
      <trkpt lat="47.520875" lon="8.332223">
        <ele>420.567316</ele>
        <time>2021-11-22T14:45:30.008Z</time>
      </trkpt>
      <trkpt lat="47.520965" lon="8.332031">
        <ele>420.051723</ele>
        <time>2021-11-22T14:45:31.628Z</time>
      </trkpt>
      <trkpt lat="47.521201" lon="8.331528">
        <ele>418.700572</ele>
        <time>2021-11-22T14:45:36.080Z</time>
      </trkpt>
      <trkpt lat="47.521326" lon="8.331263">
        <ele>417.987491</ele>
        <time>2021-11-22T14:45:38.561Z</time>
      </trkpt>
      <trkpt lat="47.521379" lon="8.331060">
        <ele>417.746140</ele>
        <time>2021-11-22T14:45:40.299Z</time>
      </trkpt>
      <trkpt lat="47.521379" lon="8.330843">
        <ele>417.556243</ele>
        <time>2021-11-22T14:45:42.044Z</time>
      </trkpt>
      <trkpt lat="47.521296" lon="8.330543">
        <ele>417.272535</ele>
        <time>2021-11-22T14:45:44.565Z</time>
      </trkpt>
      <trkpt lat="47.521124" lon="8.330264">
        <ele>416.941947</ele>
        <time>2021-11-22T14:45:47.612Z</time>
      </trkpt>
      <trkpt lat="47.521039" lon="8.330126">
        <ele>416.778495</ele>
        <time>2021-11-22T14:45:49.044Z</time>
      </trkpt>
      <trkpt lat="47.520781" lon="8.329897">
        <ele>416.388708</ele>
        <time>2021-11-22T14:45:52.530Z</time>
      </trkpt>
      <trkpt lat="47.520716" lon="8.329821">
        <ele>416.281386</ele>
        <time>2021-11-22T14:45:53.545Z</time>
      </trkpt>
      <trkpt lat="47.520652" lon="8.329741">
        <ele>416.172853</ele>
        <time>2021-11-22T14:45:54.552Z</time>
      </trkpt>
      <trkpt lat="47.520581" lon="8.329647">
        <ele>416.049437</ele>
        <time>2021-11-22T14:45:55.668Z</time>
      </trkpt>
      <trkpt lat="47.520567" lon="8.329628">
        <ele>416.024828</ele>
        <time>2021-11-22T14:45:55.894Z</time>
      </trkpt>
      <trkpt lat="47.520573" lon="8.329617">
        <ele>416.012454</ele>
        <time>2021-11-22T14:45:56.094Z</time>
      </trkpt>
      <trkpt lat="47.520574" lon="8.329485">
        <ele>415.896932</ele>
        <time>2021-11-22T14:45:57.131Z</time>
      </trkpt>
      <trkpt lat="47.520562" lon="8.329462">
        <ele>415.871497</ele>
        <time>2021-11-22T14:45:57.434Z</time>
      </trkpt>
      <trkpt lat="47.520625" lon="8.329374">
        <ele>415.759268</ele>
        <time>2021-11-22T14:45:58.519Z</time>
      </trkpt>
      <trkpt lat="47.520902" lon="8.329005">
        <ele>415.340271</ele>
        <time>2021-11-22T14:46:03.115Z</time>
      </trkpt>
      <trkpt lat="47.521030" lon="8.328833">
        <ele>415.164596</ele>
        <time>2021-11-22T14:46:05.362Z</time>
      </trkpt>
      <trkpt lat="47.521139" lon="8.328699">
        <ele>415.020610</ele>
        <time>2021-11-22T14:46:07.120Z</time>
      </trkpt>
      <trkpt lat="47.521298" lon="8.328510">
        <ele>414.813383</ele>
        <time>2021-11-22T14:46:09.810Z</time>
      </trkpt>
      <trkpt lat="47.521717" lon="8.328006">
        <ele>414.264732</ele>
        <time>2021-11-22T14:46:16.435Z</time>
      </trkpt>
      <trkpt lat="47.522032" lon="8.327663">
        <ele>413.867339</ele>
        <time>2021-11-22T14:46:20.981Z</time>
      </trkpt>
      <trkpt lat="47.522338" lon="8.327333">
        <ele>413.520503</ele>
        <time>2021-11-22T14:46:25.390Z</time>
      </trkpt>
      <trkpt lat="47.522353" lon="8.327317">
        <ele>413.504436</ele>
        <time>2021-11-22T14:46:25.603Z</time>
      </trkpt>
      <trkpt lat="47.522470" lon="8.327192">
        <ele>413.379041</ele>
        <time>2021-11-22T14:46:27.349Z</time>
      </trkpt>
      <trkpt lat="47.522692" lon="8.326959">
        <ele>413.142539</ele>
        <time>2021-11-22T14:46:30.713Z</time>
      </trkpt>
      <trkpt lat="47.522894" lon="8.326771">
        <ele>412.935173</ele>
        <time>2021-11-22T14:46:33.728Z</time>
      </trkpt>
      <trkpt lat="47.522974" lon="8.326697">
        <ele>412.853191</ele>
        <time>2021-11-22T14:46:34.923Z</time>
      </trkpt>
      <trkpt lat="47.523193" lon="8.326532">
        <ele>412.639626</ele>
        <time>2021-11-22T14:46:38.140Z</time>
      </trkpt>
      <trkpt lat="47.523587" lon="8.326236">
        <ele>412.255630</ele>
        <time>2021-11-22T14:46:43.851Z</time>
      </trkpt>
      <trkpt lat="47.523894" lon="8.326028">
        <ele>411.969257</ele>
        <time>2021-11-22T14:46:48.360Z</time>
      </trkpt>
      <trkpt lat="47.525174" lon="8.325210">
        <ele>410.796656</ele>
        <time>2021-11-22T14:47:05.831Z</time>
      </trkpt>
      <trkpt lat="47.525744" lon="8.324724">
        <ele>410.027351</ele>
        <time>2021-11-22T14:47:13.701Z</time>
      </trkpt>
      <trkpt lat="47.525795" lon="8.324675">
        <ele>409.950202</ele>
        <time>2021-11-22T14:47:14.317Z</time>
      </trkpt>
      <trkpt lat="47.525844" lon="8.324625">
        <ele>409.874685</ele>
        <time>2021-11-22T14:47:14.985Z</time>
      </trkpt>
      <trkpt lat="47.526095" lon="8.324339">
        <ele>409.472778</ele>
        <time>2021-11-22T14:47:18.753Z</time>
      </trkpt>
      <trkpt lat="47.526168" lon="8.324248">
        <ele>409.351685</ele>
        <time>2021-11-22T14:47:19.797Z</time>
      </trkpt>
      <trkpt lat="47.526303" lon="8.324073">
        <ele>409.124000</ele>
        <time>2021-11-22T14:47:22.265Z</time>
      </trkpt>
      <trkpt lat="47.526515" lon="8.323768">
        <ele>408.748909</ele>
        <time>2021-11-22T14:47:25.647Z</time>
      </trkpt>
      <trkpt lat="47.526942" lon="8.323021">
        <ele>408.113896</ele>
        <time>2021-11-22T14:47:33.285Z</time>
      </trkpt>
      <trkpt lat="47.527313" lon="8.322145">
        <ele>407.607476</ele>
        <time>2021-11-22T14:47:42.095Z</time>
      </trkpt>
      <trkpt lat="47.527315" lon="8.322139">
        <ele>407.604199</ele>
        <time>2021-11-22T14:47:42.149Z</time>
      </trkpt>
      <trkpt lat="47.527602" lon="8.321300">
        <ele>407.143587</ele>
        <time>2021-11-22T14:47:50.986Z</time>
      </trkpt>
      <trkpt lat="47.527797" lon="8.320696">
        <ele>407.019338</ele>
        <time>2021-11-22T14:47:57.357Z</time>
      </trkpt>
      <trkpt lat="47.528090" lon="8.319773">
        <ele>406.903203</ele>
        <time>2021-11-22T14:48:07.361Z</time>
      </trkpt>
      <trkpt lat="47.528199" lon="8.319432">
        <ele>406.860243</ele>
        <time>2021-11-22T14:48:11.073Z</time>
      </trkpt>
      <trkpt lat="47.528378" lon="8.318890">
        <ele>406.791540</ele>
        <time>2021-11-22T14:48:16.804Z</time>
      </trkpt>
      <trkpt lat="47.528476" lon="8.318597">
        <ele>406.711937</ele>
        <time>2021-11-22T14:48:19.932Z</time>
      </trkpt>
      <trkpt lat="47.528881" lon="8.317506">
        <ele>406.313497</ele>
        <time>2021-11-22T14:48:31.297Z</time>
      </trkpt>
      <trkpt lat="47.529547" lon="8.316117">
        <ele>405.689166</ele>
        <time>2021-11-22T14:48:46.142Z</time>
      </trkpt>
      <trkpt lat="47.530479" lon="8.314171">
        <ele>404.523482</ele>
        <time>2021-11-22T14:49:06.555Z</time>
      </trkpt>
      <trkpt lat="47.530874" lon="8.313189">
        <ele>403.881120</ele>
        <time>2021-11-22T14:49:16.677Z</time>
      </trkpt>
      <trkpt lat="47.530874" lon="8.313189">
        <ele>403.881120</ele>
        <time>2021-11-22T14:49:16.685Z</time>
      </trkpt>
      <trkpt lat="47.530874" lon="8.313189">
        <ele>403.881120</ele>
        <time>2021-11-22T14:49:16.749Z</time>
      </trkpt>
      <trkpt lat="47.530994" lon="8.312860">
        <ele>403.670980</ele>
        <time>2021-11-22T14:49:20.093Z</time>
      </trkpt>
      <trkpt lat="47.531552" lon="8.311018">
        <ele>401.940870</ele>
        <time>2021-11-22T14:49:36.361Z</time>
      </trkpt>
      <trkpt lat="47.531668" lon="8.310510">
        <ele>401.344965</ele>
        <time>2021-11-22T14:49:40.380Z</time>
      </trkpt>
      <trkpt lat="47.531710" lon="8.310314">
        <ele>401.116462</ele>
        <time>2021-11-22T14:49:41.776Z</time>
      </trkpt>
      <trkpt lat="47.531822" lon="8.309770">
        <ele>400.484486</ele>
        <time>2021-11-22T14:49:46.043Z</time>
      </trkpt>
      <trkpt lat="47.531851" lon="8.309614">
        <ele>400.304687</ele>
        <time>2021-11-22T14:49:47.364Z</time>
      </trkpt>
      <trkpt lat="47.531882" lon="8.309437">
        <ele>400.174093</ele>
        <time>2021-11-22T14:49:48.843Z</time>
      </trkpt>
      <trkpt lat="47.531896" lon="8.309354">
        <ele>400.161109</ele>
        <time>2021-11-22T14:49:49.374Z</time>
      </trkpt>
      <trkpt lat="47.531961" lon="8.308932">
        <ele>400.095415</ele>
        <time>2021-11-22T14:49:52.900Z</time>
      </trkpt>
      <trkpt lat="47.532055" lon="8.308240">
        <ele>399.988284</ele>
        <time>2021-11-22T14:49:58.176Z</time>
      </trkpt>
      <trkpt lat="47.532116" lon="8.307619">
        <ele>399.893041</ele>
        <time>2021-11-22T14:50:04.181Z</time>
      </trkpt>
      <trkpt lat="47.532168" lon="8.306989">
        <ele>399.796713</ele>
        <time>2021-11-22T14:50:13.260Z</time>
      </trkpt>
      <trkpt lat="47.532182" lon="8.306728">
        <ele>400.126036</ele>
        <time>2021-11-22T14:50:17.876Z</time>
      </trkpt>
      <trkpt lat="47.532209" lon="8.306026">
        <ele>401.640962</ele>
        <time>2021-11-22T14:50:30.966Z</time>
      </trkpt>
      <trkpt lat="47.532241" lon="8.304282">
        <ele>405.399831</ele>
        <time>2021-11-22T14:51:06.082Z</time>
      </trkpt>
      <trkpt lat="47.532244" lon="8.303362">
        <ele>405.788653</ele>
        <time>2021-11-22T14:51:23.284Z</time>
      </trkpt>
      <trkpt lat="47.532250" lon="8.301865">
        <ele>406.252790</ele>
        <time>2021-11-22T14:51:37.509Z</time>
      </trkpt>
      <trkpt lat="47.532102" lon="8.300655">
        <ele>404.496276</ele>
        <time>2021-11-22T14:51:45.955Z</time>
      </trkpt>
      <trkpt lat="47.532072" lon="8.300217">
        <ele>403.617077</ele>
        <time>2021-11-22T14:51:48.859Z</time>
      </trkpt>
      <trkpt lat="47.532074" lon="8.299861">
        <ele>402.906102</ele>
        <time>2021-11-22T14:51:51.262Z</time>
      </trkpt>
      <trkpt lat="47.532106" lon="8.299421">
        <ele>402.022316</ele>
        <time>2021-11-22T14:51:54.239Z</time>
      </trkpt>
      <trkpt lat="47.532229" lon="8.298853">
        <ele>401.047554</ele>
        <time>2021-11-22T14:51:58.283Z</time>
      </trkpt>
      <trkpt lat="47.532265" lon="8.298729">
        <ele>401.076296</ele>
        <time>2021-11-22T14:51:59.201Z</time>
      </trkpt>
      <trkpt lat="47.532367" lon="8.298378">
        <ele>401.157665</ele>
        <time>2021-11-22T14:52:02.083Z</time>
      </trkpt>
      <trkpt lat="47.532917" lon="8.296957">
        <ele>401.506439</ele>
        <time>2021-11-22T14:52:22.256Z</time>
      </trkpt>
      <trkpt lat="47.532972" lon="8.296829">
        <ele>401.538746</ele>
        <time>2021-11-22T14:52:25.285Z</time>
      </trkpt>
      <trkpt lat="47.533127" lon="8.296419">
        <ele>401.845436</ele>
        <time>2021-11-22T14:52:32.928Z</time>
      </trkpt>
      <trkpt lat="47.533137" lon="8.296392">
        <ele>401.882204</ele>
        <time>2021-11-22T14:52:34.206Z</time>
      </trkpt>
      <trkpt lat="47.533297" lon="8.295971">
        <ele>402.459011</ele>
        <time>2021-11-22T14:52:41.977Z</time>
      </trkpt>
      <trkpt lat="47.533348" lon="8.295842">
        <ele>402.637491</ele>
        <time>2021-11-22T14:52:45.670Z</time>
      </trkpt>
      <trkpt lat="47.533526" lon="8.295410">
        <ele>403.241730</ele>
        <time>2021-11-22T14:52:54.363Z</time>
      </trkpt>
      <trkpt lat="47.534171" lon="8.294093">
        <ele>404.095657</ele>
        <time>2021-11-22T14:53:17.067Z</time>
      </trkpt>
      <trkpt lat="47.534793" lon="8.292812">
        <ele>400.973306</ele>
        <time>2021-11-22T14:53:27.800Z</time>
      </trkpt>
      <trkpt lat="47.534998" lon="8.292388">
        <ele>399.941338</ele>
        <time>2021-11-22T14:53:31.172Z</time>
      </trkpt>
      <trkpt lat="47.535110" lon="8.292180">
        <ele>399.351084</ele>
        <time>2021-11-22T14:53:32.852Z</time>
      </trkpt>
      <trkpt lat="47.535170" lon="8.292073">
        <ele>398.876336</ele>
        <time>2021-11-22T14:53:33.681Z</time>
      </trkpt>
      <trkpt lat="47.535569" lon="8.291526">
        <ele>396.127785</ele>
        <time>2021-11-22T14:53:38.769Z</time>
      </trkpt>
      <trkpt lat="47.536134" lon="8.291090">
        <ele>392.907028</ele>
        <time>2021-11-22T14:53:44.645Z</time>
      </trkpt>
      <trkpt lat="47.536495" lon="8.290937">
        <ele>391.008752</ele>
        <time>2021-11-22T14:53:48.149Z</time>
      </trkpt>
      <trkpt lat="47.536648" lon="8.290879">
        <ele>390.342119</ele>
        <time>2021-11-22T14:53:49.760Z</time>
      </trkpt>
      <trkpt lat="47.536884" lon="8.290791">
        <ele>389.924542</ele>
        <time>2021-11-22T14:53:52.256Z</time>
      </trkpt>
      <trkpt lat="47.536940" lon="8.290760">
        <ele>389.821963</ele>
        <time>2021-11-22T14:53:52.882Z</time>
      </trkpt>
      <trkpt lat="47.537009" lon="8.290723">
        <ele>389.696049</ele>
        <time>2021-11-22T14:53:53.636Z</time>
      </trkpt>
      <trkpt lat="47.537128" lon="8.290636">
        <ele>389.468345</ele>
        <time>2021-11-22T14:53:55.032Z</time>
      </trkpt>
      <trkpt lat="47.537128" lon="8.290636">
        <ele>389.468345</ele>
        <time>2021-11-22T14:53:55.135Z</time>
      </trkpt>
      <trkpt lat="47.537128" lon="8.290636">
        <ele>389.468345</ele>
        <time>2021-11-22T14:53:55.175Z</time>
      </trkpt>
      <trkpt lat="47.537378" lon="8.290484">
        <ele>389.004650</ele>
        <time>2021-11-22T14:53:58.118Z</time>
      </trkpt>
      <trkpt lat="47.537455" lon="8.290447">
        <ele>388.865751</ele>
        <time>2021-11-22T14:53:59.014Z</time>
      </trkpt>
      <trkpt lat="47.537556" lon="8.290411">
        <ele>388.687502</ele>
        <time>2021-11-22T14:54:00.178Z</time>
      </trkpt>
      <trkpt lat="47.537720" lon="8.290374">
        <ele>388.402856</ele>
        <time>2021-11-22T14:54:02.045Z</time>
      </trkpt>
      <trkpt lat="47.537827" lon="8.290357">
        <ele>388.218206</ele>
        <time>2021-11-22T14:54:03.332Z</time>
      </trkpt>
      <trkpt lat="47.537934" lon="8.290350">
        <ele>388.034430</ele>
        <time>2021-11-22T14:54:04.681Z</time>
      </trkpt>
      <trkpt lat="47.538055" lon="8.290344">
        <ele>387.826695</ele>
        <time>2021-11-22T14:54:06.392Z</time>
      </trkpt>
      <trkpt lat="47.538030" lon="8.290110">
        <ele>387.552261</ele>
        <time>2021-11-22T14:54:08.854Z</time>
      </trkpt>
      <trkpt lat="47.538005" lon="8.289941">
        <ele>387.351851</ele>
        <time>2021-11-22T14:54:10.478Z</time>
      </trkpt>
      <trkpt lat="47.537992" lon="8.289858">
        <ele>387.414591</ele>
        <time>2021-11-22T14:54:11.950Z</time>
      </trkpt>
      <trkpt lat="47.537910" lon="8.289365">
        <ele>388.174027</ele>
        <time>2021-11-22T14:54:18.013Z</time>
      </trkpt>
      <trkpt lat="47.537895" lon="8.289269">
        <ele>388.321411</ele>
        <time>2021-11-22T14:54:19.604Z</time>
      </trkpt>
      <trkpt lat="47.537895" lon="8.289269">
        <ele>388.321411</ele>
        <time>2021-11-22T14:54:19.634Z</time>
      </trkpt>
      <trkpt lat="47.537876" lon="8.289147">
        <ele>388.508680</ele>
        <time>2021-11-22T14:54:21.094Z</time>
      </trkpt>
      <trkpt lat="47.537748" lon="8.288584">
        <ele>389.397237</ele>
        <time>2021-11-22T14:54:29.441Z</time>
      </trkpt>
      <trkpt lat="47.537662" lon="8.288431">
        <ele>389.695018</ele>
        <time>2021-11-22T14:54:32.934Z</time>
      </trkpt>
      <trkpt lat="47.537609" lon="8.288377">
        <ele>389.837538</ele>
        <time>2021-11-22T14:54:35.794Z</time>
      </trkpt>
      <trkpt lat="47.537543" lon="8.288349">
        <ele>389.989642</ele>
        <time>2021-11-22T14:54:37.431Z</time>
      </trkpt>
      <trkpt lat="47.537335" lon="8.288238">
        <ele>390.479468</ele>
        <time>2021-11-22T14:54:42.688Z</time>
      </trkpt>
      <trkpt lat="47.537267" lon="8.288187">
        <ele>390.648336</ele>
        <time>2021-11-22T14:54:45.966Z</time>
      </trkpt>
      <trkpt lat="47.537059" lon="8.287852">
        <ele>391.353294</ele>
        <time>2021-11-22T14:54:54.276Z</time>
      </trkpt>
      <trkpt lat="47.536718" lon="8.287038">
        <ele>394.474749</ele>
        <time>2021-11-22T14:55:14.560Z</time>
      </trkpt>
      <trkpt lat="47.536689" lon="8.286997">
        <ele>394.668238</ele>
        <time>2021-11-22T14:55:16.430Z</time>
      </trkpt>
      <trkpt lat="47.536656" lon="8.286956">
        <ele>394.876119</ele>
        <time>2021-11-22T14:55:18.001Z</time>
      </trkpt>
      <trkpt lat="47.536633" lon="8.286929">
        <ele>395.017762</ele>
        <time>2021-11-22T14:55:19.745Z</time>
      </trkpt>
      <trkpt lat="47.536275" lon="8.286582">
        <ele>397.082680</ele>
        <time>2021-11-22T14:55:33.430Z</time>
      </trkpt>
      <trkpt lat="47.536193" lon="8.286503">
        <ele>397.554795</ele>
        <time>2021-11-22T14:55:36.523Z</time>
      </trkpt>
      <trkpt lat="47.535974" lon="8.286294">
        <ele>398.812169</ele>
        <time>2021-11-22T14:55:44.586Z</time>
      </trkpt>
      <trkpt lat="47.535958" lon="8.286279">
        <ele>398.903560</ele>
        <time>2021-11-22T14:55:45.390Z</time>
      </trkpt>
      <trkpt lat="47.535668" lon="8.286011">
        <ele>400.801650</ele>
        <time>2021-11-22T14:55:58.530Z</time>
      </trkpt>
      <trkpt lat="47.535462" lon="8.285758">
        <ele>402.662198</ele>
        <time>2021-11-22T14:56:11.495Z</time>
      </trkpt>
      <trkpt lat="47.535258" lon="8.285301">
        <ele>405.233835</ele>
        <time>2021-11-22T14:56:28.049Z</time>
      </trkpt>
      <trkpt lat="47.535149" lon="8.284694">
        <ele>408.182143</ele>
        <time>2021-11-22T14:56:46.384Z</time>
      </trkpt>
      <trkpt lat="47.535148" lon="8.284436">
        <ele>409.393211</ele>
        <time>2021-11-22T14:56:53.829Z</time>
      </trkpt>
      <trkpt lat="47.535142" lon="8.284288">
        <ele>410.089173</ele>
        <time>2021-11-22T14:56:58.769Z</time>
      </trkpt>
      <trkpt lat="47.535136" lon="8.284061">
        <ele>411.155524</ele>
        <time>2021-11-22T14:57:05.601Z</time>
      </trkpt>
      <trkpt lat="47.535118" lon="8.283818">
        <ele>412.303008</ele>
        <time>2021-11-22T14:57:12.229Z</time>
      </trkpt>
      <trkpt lat="47.535098" lon="8.283703">
        <ele>412.749717</ele>
        <time>2021-11-22T14:57:16.335Z</time>
      </trkpt>
      <trkpt lat="47.535004" lon="8.283185">
        <ele>414.504965</ele>
        <time>2021-11-22T14:57:30.901Z</time>
      </trkpt>
      <trkpt lat="47.534790" lon="8.282555">
        <ele>416.812791</ele>
        <time>2021-11-22T14:57:49.071Z</time>
      </trkpt>
      <trkpt lat="47.534589" lon="8.282076">
        <ele>418.658356</ele>
        <time>2021-11-22T14:58:02.882Z</time>
      </trkpt>
      <trkpt lat="47.534352" lon="8.281508">
        <ele>420.843402</ele>
        <time>2021-11-22T14:58:14.624Z</time>
      </trkpt>
      <trkpt lat="47.533769" lon="8.280052">
        <ele>422.471822</ele>
        <time>2021-11-22T14:58:36.973Z</time>
      </trkpt>
      <trkpt lat="47.533177" lon="8.278640">
        <ele>423.432080</ele>
        <time>2021-11-22T14:58:56.681Z</time>
      </trkpt>
      <trkpt lat="47.532785" lon="8.277692">
        <ele>423.617337</ele>
        <time>2021-11-22T14:59:08.888Z</time>
      </trkpt>
      <trkpt lat="47.532411" lon="8.276816">
        <ele>423.766203</ele>
        <time>2021-11-22T14:59:19.122Z</time>
      </trkpt>
      <trkpt lat="47.532039" lon="8.275901">
        <ele>423.533789</ele>
        <time>2021-11-22T14:59:28.661Z</time>
      </trkpt>
      <trkpt lat="47.531809" lon="8.275301">
        <ele>423.383652</ele>
        <time>2021-11-22T14:59:34.593Z</time>
      </trkpt>
      <trkpt lat="47.531719" lon="8.275067">
        <ele>423.325051</ele>
        <time>2021-11-22T14:59:36.992Z</time>
      </trkpt>
      <trkpt lat="47.531618" lon="8.274801">
        <ele>423.258644</ele>
        <time>2021-11-22T14:59:39.962Z</time>
      </trkpt>
      <trkpt lat="47.531470" lon="8.274174">
        <ele>423.266618</ele>
        <time>2021-11-22T14:59:47.046Z</time>
      </trkpt>
      <trkpt lat="47.531393" lon="8.273633">
        <ele>423.359849</ele>
        <time>2021-11-22T14:59:53.095Z</time>
      </trkpt>
      <trkpt lat="47.531262" lon="8.272715">
        <ele>423.518068</ele>
        <time>2021-11-22T15:00:02.978Z</time>
      </trkpt>
      <trkpt lat="47.531195" lon="8.272170">
        <ele>423.611480</ele>
        <time>2021-11-22T15:00:08.666Z</time>
      </trkpt>
      <trkpt lat="47.531043" lon="8.270927">
        <ele>424.064241</ele>
        <time>2021-11-22T15:00:24.106Z</time>
      </trkpt>
      <trkpt lat="47.531033" lon="8.270842">
        <ele>424.098694</ele>
        <time>2021-11-22T15:00:25.127Z</time>
      </trkpt>
      <trkpt lat="47.530880" lon="8.269588">
        <ele>424.607540</ele>
        <time>2021-11-22T15:00:39.943Z</time>
      </trkpt>
      <trkpt lat="47.530852" lon="8.269370">
        <ele>424.696151</ele>
        <time>2021-11-22T15:00:42.511Z</time>
      </trkpt>
      <trkpt lat="47.530782" lon="8.268827">
        <ele>424.675666</ele>
        <time>2021-11-22T15:00:48.529Z</time>
      </trkpt>
      <trkpt lat="47.530662" lon="8.267904">
        <ele>424.607017</ele>
        <time>2021-11-22T15:00:57.984Z</time>
      </trkpt>
      <trkpt lat="47.530542" lon="8.266772">
        <ele>424.523328</ele>
        <time>2021-11-22T15:01:08.862Z</time>
      </trkpt>
      <trkpt lat="47.530481" lon="8.266373">
        <ele>424.350600</ele>
        <time>2021-11-22T15:01:12.211Z</time>
      </trkpt>
      <trkpt lat="47.530444" lon="8.266201">
        <ele>424.261958</ele>
        <time>2021-11-22T15:01:13.731Z</time>
      </trkpt>
      <trkpt lat="47.530417" lon="8.266090">
        <ele>424.204023</ele>
        <time>2021-11-22T15:01:14.603Z</time>
      </trkpt>
      <trkpt lat="47.530362" lon="8.265914">
        <ele>424.108792</ele>
        <time>2021-11-22T15:01:16.355Z</time>
      </trkpt>
      <trkpt lat="47.530302" lon="8.265750">
        <ele>424.017198</ele>
        <time>2021-11-22T15:01:17.925Z</time>
      </trkpt>
      <trkpt lat="47.530226" lon="8.265575">
        <ele>423.915025</ele>
        <time>2021-11-22T15:01:19.597Z</time>
      </trkpt>
      <trkpt lat="47.530203" lon="8.265521">
        <ele>423.883673</ele>
        <time>2021-11-22T15:01:20.205Z</time>
      </trkpt>
      <trkpt lat="47.529981" lon="8.265145">
        <ele>423.638406</ele>
        <time>2021-11-22T15:01:24.439Z</time>
      </trkpt>
      <trkpt lat="47.529196" lon="8.264128">
        <ele>421.780277</ele>
        <time>2021-11-22T15:01:38.468Z</time>
      </trkpt>
      <trkpt lat="47.529010" lon="8.264051">
        <ele>421.172399</ele>
        <time>2021-11-22T15:01:40.524Z</time>
      </trkpt>
      <trkpt lat="47.528477" lon="8.264097">
        <ele>419.491929</ele>
        <time>2021-11-22T15:01:45.928Z</time>
      </trkpt>
      <trkpt lat="47.528378" lon="8.263979">
        <ele>419.091944</ele>
        <time>2021-11-22T15:01:47.370Z</time>
      </trkpt>
      <trkpt lat="47.528331" lon="8.263808">
        <ele>418.699566</ele>
        <time>2021-11-22T15:01:48.504Z</time>
      </trkpt>
      <trkpt lat="47.528337" lon="8.263703">
        <ele>418.475614</ele>
        <time>2021-11-22T15:01:49.664Z</time>
      </trkpt>
      <trkpt lat="47.528350" lon="8.263643">
        <ele>418.341693</ele>
        <time>2021-11-22T15:01:50.047Z</time>
      </trkpt>
      <trkpt lat="47.528459" lon="8.263489">
        <ele>417.867538</ele>
        <time>2021-11-22T15:01:51.411Z</time>
      </trkpt>
      <trkpt lat="47.528772" lon="8.263422">
        <ele>415.758647</ele>
        <time>2021-11-22T15:01:54.316Z</time>
      </trkpt>
      <trkpt lat="47.528836" lon="8.263437">
        <ele>415.219238</ele>
        <time>2021-11-22T15:01:54.881Z</time>
      </trkpt>
      <trkpt lat="47.528897" lon="8.263463">
        <ele>414.690820</ele>
        <time>2021-11-22T15:01:55.423Z</time>
      </trkpt>
      <trkpt lat="47.529224" lon="8.263703">
        <ele>411.652713</ele>
        <time>2021-11-22T15:01:58.684Z</time>
      </trkpt>
      <trkpt lat="47.529348" lon="8.263729">
        <ele>410.610159</ele>
        <time>2021-11-22T15:01:59.884Z</time>
      </trkpt>
      <trkpt lat="47.529534" lon="8.263627">
        <ele>408.959031</ele>
        <time>2021-11-22T15:02:01.585Z</time>
      </trkpt>
      <trkpt lat="47.529645" lon="8.263411">
        <ele>407.433277</ele>
        <time>2021-11-22T15:02:03.222Z</time>
      </trkpt>
      <trkpt lat="47.529662" lon="8.263325">
        <ele>406.929590</ele>
        <time>2021-11-22T15:02:03.720Z</time>
      </trkpt>
      <trkpt lat="47.529673" lon="8.263244">
        <ele>406.465180</ele>
        <time>2021-11-22T15:02:04.192Z</time>
      </trkpt>
      <trkpt lat="47.529666" lon="8.262917">
        <ele>404.626225</ele>
        <time>2021-11-22T15:02:06.134Z</time>
      </trkpt>
      <trkpt lat="47.529667" lon="8.262500">
        <ele>402.277116</ele>
        <time>2021-11-22T15:02:08.508Z</time>
      </trkpt>
      <trkpt lat="47.529720" lon="8.261920">
        <ele>398.929239</ele>
        <time>2021-11-22T15:02:11.955Z</time>
      </trkpt>
      <trkpt lat="47.529815" lon="8.261265">
        <ele>395.097144</ele>
        <time>2021-11-22T15:02:15.847Z</time>
      </trkpt>
      <trkpt lat="47.529827" lon="8.261186">
        <ele>394.633966</ele>
        <time>2021-11-22T15:02:16.295Z</time>
      </trkpt>
      <trkpt lat="47.529850" lon="8.261032">
        <ele>393.731788</ele>
        <time>2021-11-22T15:02:17.233Z</time>
      </trkpt>
      <trkpt lat="47.529879" lon="8.260840">
        <ele>392.606398</ele>
        <time>2021-11-22T15:02:18.450Z</time>
      </trkpt>
      <trkpt lat="47.529930" lon="8.260480">
        <ele>390.502349</ele>
        <time>2021-11-22T15:02:20.624Z</time>
      </trkpt>
      <trkpt lat="47.529982" lon="8.260132">
        <ele>388.463617</ele>
        <time>2021-11-22T15:02:22.777Z</time>
      </trkpt>
      <trkpt lat="47.530011" lon="8.260007">
        <ele>387.707584</ele>
        <time>2021-11-22T15:02:23.623Z</time>
      </trkpt>
      <trkpt lat="47.530079" lon="8.259859">
        <ele>387.179898</ele>
        <time>2021-11-22T15:02:24.905Z</time>
      </trkpt>
      <trkpt lat="47.530189" lon="8.259745">
        <ele>386.904240</ele>
        <time>2021-11-22T15:02:26.085Z</time>
      </trkpt>
      <trkpt lat="47.530459" lon="8.259540">
        <ele>386.281270</ele>
        <time>2021-11-22T15:02:29.350Z</time>
      </trkpt>
      <trkpt lat="47.530670" lon="8.259333">
        <ele>385.761618</ele>
        <time>2021-11-22T15:02:32.015Z</time>
      </trkpt>
      <trkpt lat="47.531056" lon="8.258919">
        <ele>384.783088</ele>
        <time>2021-11-22T15:02:38.735Z</time>
      </trkpt>
      <trkpt lat="47.531097" lon="8.258863">
        <ele>384.668574</ele>
        <time>2021-11-22T15:02:39.381Z</time>
      </trkpt>
      <trkpt lat="47.531118" lon="8.258821">
        <ele>384.596122</ele>
        <time>2021-11-22T15:02:39.735Z</time>
      </trkpt>
      <trkpt lat="47.531134" lon="8.258789">
        <ele>384.540920</ele>
        <time>2021-11-22T15:02:39.988Z</time>
      </trkpt>
      <trkpt lat="47.531153" lon="8.258671">
        <ele>384.372749</ele>
        <time>2021-11-22T15:02:41.748Z</time>
      </trkpt>
      <trkpt lat="47.531054" lon="8.258166">
        <ele>383.643944</ele>
        <time>2021-11-22T15:02:46.523Z</time>
      </trkpt>
      <trkpt lat="47.530980" lon="8.258001">
        <ele>383.397158</ele>
        <time>2021-11-22T15:02:48.758Z</time>
      </trkpt>
      <trkpt lat="47.530926" lon="8.257880">
        <ele>383.216453</ele>
        <time>2021-11-22T15:02:49.920Z</time>
      </trkpt>
      <trkpt lat="47.530561" lon="8.257007">
        <ele>381.937158</ele>
        <time>2021-11-22T15:02:58.798Z</time>
      </trkpt>
      <trkpt lat="47.530456" lon="8.256769">
        <ele>381.582951</ele>
        <time>2021-11-22T15:03:00.940Z</time>
      </trkpt>
      <trkpt lat="47.530398" lon="8.256646">
        <ele>381.396035</ele>
        <time>2021-11-22T15:03:02.064Z</time>
      </trkpt>
      <trkpt lat="47.529922" lon="8.255598">
        <ele>379.179440</ele>
        <time>2021-11-22T15:03:10.587Z</time>
      </trkpt>
      <trkpt lat="47.529766" lon="8.255266">
        <ele>378.033067</ele>
        <time>2021-11-22T15:03:13.158Z</time>
      </trkpt>
      <trkpt lat="47.529562" lon="8.254878">
        <ele>376.639325</ele>
        <time>2021-11-22T15:03:16.262Z</time>
      </trkpt>
      <trkpt lat="47.529226" lon="8.254330">
        <ele>374.541370</ele>
        <time>2021-11-22T15:03:21.104Z</time>
      </trkpt>
      <trkpt lat="47.528868" lon="8.253792">
        <ele>372.486860</ele>
        <time>2021-11-22T15:03:26.046Z</time>
      </trkpt>
      <trkpt lat="47.528572" lon="8.253349">
        <ele>371.125610</ele>
        <time>2021-11-22T15:03:30.283Z</time>
      </trkpt>
      <trkpt lat="47.528238" lon="8.252801">
        <ele>369.513182</ele>
        <time>2021-11-22T15:03:35.506Z</time>
      </trkpt>
      <trkpt lat="47.528199" lon="8.252736">
        <ele>369.323258</ele>
        <time>2021-11-22T15:03:36.056Z</time>
      </trkpt>
      <trkpt lat="47.528157" lon="8.252665">
        <ele>369.117086</ele>
        <time>2021-11-22T15:03:36.720Z</time>
      </trkpt>
      <trkpt lat="47.527531" lon="8.251472">
        <ele>366.087752</ele>
        <time>2021-11-22T15:03:47.080Z</time>
      </trkpt>
      <trkpt lat="47.527165" lon="8.250812">
        <ele>364.664643</ele>
        <time>2021-11-22T15:03:53.106Z</time>
      </trkpt>
      <trkpt lat="47.527029" lon="8.250418">
        <ele>363.927305</ele>
        <time>2021-11-22T15:03:56.377Z</time>
      </trkpt>
      <trkpt lat="47.527017" lon="8.250267">
        <ele>363.673954</ele>
        <time>2021-11-22T15:03:57.413Z</time>
      </trkpt>
      <trkpt lat="47.527011" lon="8.250030">
        <ele>363.278758</ele>
        <time>2021-11-22T15:03:59.255Z</time>
      </trkpt>
      <trkpt lat="47.527035" lon="8.249796">
        <ele>362.884367</ele>
        <time>2021-11-22T15:04:00.971Z</time>
      </trkpt>
      <trkpt lat="47.527172" lon="8.249153">
        <ele>362.164172</ele>
        <time>2021-11-22T15:04:06.044Z</time>
      </trkpt>
      <trkpt lat="47.527229" lon="8.248976">
        <ele>362.010968</ele>
        <time>2021-11-22T15:04:07.633Z</time>
      </trkpt>
      <trkpt lat="47.527050" lon="8.248832">
        <ele>361.775280</ele>
        <time>2021-11-22T15:04:09.877Z</time>
      </trkpt>
      <trkpt lat="47.526606" lon="8.248472">
        <ele>361.189614</ele>
        <time>2021-11-22T15:04:15.975Z</time>
      </trkpt>
      <trkpt lat="47.525910" lon="8.247912">
        <ele>360.394497</ele>
        <time>2021-11-22T15:04:26.260Z</time>
      </trkpt>
      <trkpt lat="47.525817" lon="8.247826">
        <ele>360.360373</ele>
        <time>2021-11-22T15:04:27.757Z</time>
      </trkpt>
      <trkpt lat="47.525825" lon="8.247792">
        <ele>360.352806</ele>
        <time>2021-11-22T15:04:28.084Z</time>
      </trkpt>
      <trkpt lat="47.525799" lon="8.247658">
        <ele>360.323506</ele>
        <time>2021-11-22T15:04:29.529Z</time>
      </trkpt>
      <trkpt lat="47.525780" lon="8.247635">
        <ele>360.315868</ele>
        <time>2021-11-22T15:04:29.841Z</time>
      </trkpt>
      <trkpt lat="47.525758" lon="8.247620">
        <ele>360.308331</ele>
        <time>2021-11-22T15:04:30.161Z</time>
      </trkpt>
      <trkpt lat="47.525736" lon="8.247614">
        <ele>360.301368</ele>
        <time>2021-11-22T15:04:30.467Z</time>
      </trkpt>
      <trkpt lat="47.525656" lon="8.247660">
        <ele>360.274660</ele>
        <time>2021-11-22T15:04:31.689Z</time>
      </trkpt>
      <trkpt lat="47.525642" lon="8.247687">
        <ele>360.267505</ele>
        <time>2021-11-22T15:04:31.996Z</time>
      </trkpt>
      <trkpt lat="47.525559" lon="8.247630">
        <ele>360.239031</ele>
        <time>2021-11-22T15:04:33.756Z</time>
      </trkpt>
      <trkpt lat="47.524806" lon="8.247025">
        <ele>359.972409</ele>
        <time>2021-11-22T15:04:50.424Z</time>
      </trkpt>
      <trkpt lat="47.524540" lon="8.246812">
        <ele>359.877814</ele>
        <time>2021-11-22T15:04:56.413Z</time>
      </trkpt>
      <trkpt lat="47.524302" lon="8.246615">
        <ele>359.754706</ele>
        <time>2021-11-22T15:05:01.543Z</time>
      </trkpt>
      <trkpt lat="47.524066" lon="8.246425">
        <ele>359.633420</ele>
        <time>2021-11-22T15:05:06.573Z</time>
      </trkpt>
      <trkpt lat="47.523896" lon="8.246288">
        <ele>359.546032</ele>
        <time>2021-11-22T15:05:10.429Z</time>
      </trkpt>
      <trkpt lat="47.523762" lon="8.246179">
        <ele>359.477002</ele>
        <time>2021-11-22T15:05:13.259Z</time>
      </trkpt>
      <trkpt lat="47.523454" lon="8.245939">
        <ele>359.319858</ele>
        <time>2021-11-22T15:05:19.911Z</time>
      </trkpt>
      <trkpt lat="47.522764" lon="8.245374">
        <ele>358.944704</ele>
        <time>2021-11-22T15:05:33.988Z</time>
      </trkpt>
      <trkpt lat="47.522559" lon="8.245220">
        <ele>358.821690</ele>
        <time>2021-11-22T15:05:38.170Z</time>
      </trkpt>
      <trkpt lat="47.522465" lon="8.245129">
        <ele>358.761590</ele>
        <time>2021-11-22T15:05:40.113Z</time>
      </trkpt>
      <trkpt lat="47.522270" lon="8.244949">
        <ele>358.638622</ele>
        <time>2021-11-22T15:05:44.393Z</time>
      </trkpt>
      <trkpt lat="47.521953" lon="8.244622">
        <ele>358.431877</ele>
        <time>2021-11-22T15:05:51.405Z</time>
      </trkpt>
      <trkpt lat="47.521589" lon="8.244208">
        <ele>358.186256</ele>
        <time>2021-11-22T15:05:59.997Z</time>
      </trkpt>
      <trkpt lat="47.520837" lon="8.243335">
        <ele>357.576849</ele>
        <time>2021-11-22T15:06:18.588Z</time>
      </trkpt>
      <trkpt lat="47.520674" lon="8.243016">
        <ele>357.399304</ele>
        <time>2021-11-22T15:06:23.607Z</time>
      </trkpt>
      <trkpt lat="47.520669" lon="8.242951">
        <ele>357.370268</ele>
        <time>2021-11-22T15:06:24.332Z</time>
      </trkpt>
      <trkpt lat="47.520441" lon="8.242840">
        <ele>357.212530</ele>
        <time>2021-11-22T15:06:27.475Z</time>
      </trkpt>
      <trkpt lat="47.520374" lon="8.242806">
        <ele>357.165982</ele>
        <time>2021-11-22T15:06:28.250Z</time>
      </trkpt>
      <trkpt lat="47.520306" lon="8.242758">
        <ele>357.116472</ele>
        <time>2021-11-22T15:06:29.114Z</time>
      </trkpt>
      <trkpt lat="47.520246" lon="8.242714">
        <ele>357.072468</ele>
        <time>2021-11-22T15:06:29.956Z</time>
      </trkpt>
      <trkpt lat="47.520155" lon="8.242631">
        <ele>357.002226</ele>
        <time>2021-11-22T15:06:31.349Z</time>
      </trkpt>
      <trkpt lat="47.520117" lon="8.242591">
        <ele>356.971584</ele>
        <time>2021-11-22T15:06:31.924Z</time>
      </trkpt>
      <trkpt lat="47.519215" lon="8.241726">
        <ele>355.268914</ele>
        <time>2021-11-22T15:06:44.380Z</time>
      </trkpt>
      <trkpt lat="47.519150" lon="8.241657">
        <ele>355.136671</ele>
        <time>2021-11-22T15:06:45.213Z</time>
      </trkpt>
      <trkpt lat="47.518798" lon="8.241363">
        <ele>354.468427</ele>
        <time>2021-11-22T15:06:49.653Z</time>
      </trkpt>
      <trkpt lat="47.518497" lon="8.241173">
        <ele>353.927269</ele>
        <time>2021-11-22T15:06:53.195Z</time>
      </trkpt>
      <trkpt lat="47.518388" lon="8.241113">
        <ele>353.733944</ele>
        <time>2021-11-22T15:06:54.519Z</time>
      </trkpt>
      <trkpt lat="47.518018" lon="8.240920">
        <ele>353.081779</ele>
        <time>2021-11-22T15:06:58.881Z</time>
      </trkpt>
      <trkpt lat="47.517913" lon="8.240868">
        <ele>352.897715</ele>
        <time>2021-11-22T15:07:00.140Z</time>
      </trkpt>
      <trkpt lat="47.517854" lon="8.240842">
        <ele>352.795377</ele>
        <time>2021-11-22T15:07:00.755Z</time>
      </trkpt>
      <trkpt lat="47.517631" lon="8.240773">
        <ele>352.416639</ele>
        <time>2021-11-22T15:07:03.421Z</time>
      </trkpt>
      <trkpt lat="47.517569" lon="8.240754">
        <ele>352.311382</ele>
        <time>2021-11-22T15:07:04.155Z</time>
      </trkpt>
      <trkpt lat="47.517536" lon="8.240661">
        <ele>352.193429</ele>
        <time>2021-11-22T15:07:04.926Z</time>
      </trkpt>
      <trkpt lat="47.517355" lon="8.240439">
        <ele>351.802695</ele>
        <time>2021-11-22T15:07:07.693Z</time>
      </trkpt>
      <trkpt lat="47.517166" lon="8.240314">
        <ele>351.458569</ele>
        <time>2021-11-22T15:07:10.063Z</time>
      </trkpt>
      <trkpt lat="47.516496" lon="8.240299">
        <ele>350.381737</ele>
        <time>2021-11-22T15:07:17.872Z</time>
      </trkpt>
      <trkpt lat="47.516181" lon="8.240179">
        <ele>349.873734</ele>
        <time>2021-11-22T15:07:21.639Z</time>
      </trkpt>
      <trkpt lat="47.516061" lon="8.240083">
        <ele>349.660705</ele>
        <time>2021-11-22T15:07:23.215Z</time>
      </trkpt>
      <trkpt lat="47.515946" lon="8.239962">
        <ele>349.440361</ele>
        <time>2021-11-22T15:07:24.847Z</time>
      </trkpt>
      <trkpt lat="47.515774" lon="8.239725">
        <ele>349.073393</ele>
        <time>2021-11-22T15:07:27.624Z</time>
      </trkpt>
      <trkpt lat="47.515697" lon="8.239573">
        <ele>348.872967</ele>
        <time>2021-11-22T15:07:29.104Z</time>
      </trkpt>
      <trkpt lat="47.515609" lon="8.239335">
        <ele>348.586752</ele>
        <time>2021-11-22T15:07:31.316Z</time>
      </trkpt>
      <trkpt lat="47.515584" lon="8.239254">
        <ele>348.492810</ele>
        <time>2021-11-22T15:07:31.929Z</time>
      </trkpt>
      <trkpt lat="47.515558" lon="8.239175">
        <ele>348.400109</ele>
        <time>2021-11-22T15:07:32.544Z</time>
      </trkpt>
      <trkpt lat="47.515010" lon="8.237386">
        <ele>345.074756</ele>
        <time>2021-11-22T15:07:47.058Z</time>
      </trkpt>
      <trkpt lat="47.514974" lon="8.237263">
        <ele>344.836044</ele>
        <time>2021-11-22T15:07:47.868Z</time>
      </trkpt>
      <trkpt lat="47.514943" lon="8.237158">
        <ele>344.631983</ele>
        <time>2021-11-22T15:07:48.716Z</time>
      </trkpt>
      <trkpt lat="47.514768" lon="8.236610">
        <ele>343.552557</ele>
        <time>2021-11-22T15:07:52.833Z</time>
      </trkpt>
      <trkpt lat="47.514584" lon="8.236035">
        <ele>342.324267</ele>
        <time>2021-11-22T15:07:57.190Z</time>
      </trkpt>
      <trkpt lat="47.514551" lon="8.235938">
        <ele>342.112201</ele>
        <time>2021-11-22T15:07:57.971Z</time>
      </trkpt>
      <trkpt lat="47.514521" lon="8.235859">
        <ele>341.935242</ele>
        <time>2021-11-22T15:07:58.490Z</time>
      </trkpt>
      <trkpt lat="47.514417" lon="8.235514">
        <ele>341.197567</ele>
        <time>2021-11-22T15:08:01.308Z</time>
      </trkpt>
      <trkpt lat="47.514357" lon="8.235317">
        <ele>340.775616</ele>
        <time>2021-11-22T15:08:02.634Z</time>
      </trkpt>
      <trkpt lat="47.514331" lon="8.234904">
        <ele>339.965721</ele>
        <time>2021-11-22T15:08:05.679Z</time>
      </trkpt>
      <trkpt lat="47.514336" lon="8.234825">
        <ele>339.810794</ele>
        <time>2021-11-22T15:08:06.134Z</time>
      </trkpt>
      <trkpt lat="47.514340" lon="8.234764">
        <ele>339.691129</ele>
        <time>2021-11-22T15:08:06.599Z</time>
      </trkpt>
      <trkpt lat="47.514372" lon="8.234452">
        <ele>339.074952</ele>
        <time>2021-11-22T15:08:09.042Z</time>
      </trkpt>
      <trkpt lat="47.514503" lon="8.233317">
        <ele>338.698983</ele>
        <time>2021-11-22T15:08:18.189Z</time>
      </trkpt>
      <trkpt lat="47.514536" lon="8.233032">
        <ele>338.900127</ele>
        <time>2021-11-22T15:08:20.720Z</time>
      </trkpt>
      <trkpt lat="47.514641" lon="8.232124">
        <ele>339.540941</ele>
        <time>2021-11-22T15:08:34.565Z</time>
      </trkpt>
      <trkpt lat="47.514655" lon="8.231999">
        <ele>339.629081</ele>
        <time>2021-11-22T15:08:36.789Z</time>
      </trkpt>
      <trkpt lat="47.514647" lon="8.231860">
        <ele>339.726122</ele>
        <time>2021-11-22T15:08:38.576Z</time>
      </trkpt>
      <trkpt lat="47.514631" lon="8.231804">
        <ele>339.768419</ele>
        <time>2021-11-22T15:08:40.055Z</time>
      </trkpt>
      <trkpt lat="47.514600" lon="8.231748">
        <ele>339.818786</ele>
        <time>2021-11-22T15:08:42.176Z</time>
      </trkpt>
      <trkpt lat="47.514331" lon="8.231611">
        <ele>340.264121</ele>
        <time>2021-11-22T15:08:49.087Z</time>
      </trkpt>
      <trkpt lat="47.513585" lon="8.231531">
        <ele>343.286269</ele>
        <time>2021-11-22T15:09:11.147Z</time>
      </trkpt>
      <trkpt lat="47.513445" lon="8.231503">
        <ele>343.857084</ele>
        <time>2021-11-22T15:09:15.835Z</time>
      </trkpt>
      <trkpt lat="47.513032" lon="8.231360">
        <ele>345.570857</ele>
        <time>2021-11-22T15:09:30.261Z</time>
      </trkpt>
      <trkpt lat="47.512728" lon="8.231257">
        <ele>346.830938</ele>
        <time>2021-11-22T15:09:40.510Z</time>
      </trkpt>
      <trkpt lat="47.512593" lon="8.231233">
        <ele>347.386357</ele>
        <time>2021-11-22T15:09:44.548Z</time>
      </trkpt>
      <trkpt lat="47.512322" lon="8.231210">
        <ele>348.607460</ele>
        <time>2021-11-22T15:09:53.774Z</time>
      </trkpt>
      <trkpt lat="47.512144" lon="8.231195">
        <ele>349.409494</ele>
        <time>2021-11-22T15:09:59.610Z</time>
      </trkpt>
      <trkpt lat="47.512031" lon="8.231186">
        <ele>349.918563</ele>
        <time>2021-11-22T15:10:03.461Z</time>
      </trkpt>
      <trkpt lat="47.511983" lon="8.230944">
        <ele>350.684921</ele>
        <time>2021-11-22T15:10:08.933Z</time>
      </trkpt>
      <trkpt lat="47.511938" lon="8.230717">
        <ele>351.403747</ele>
        <time>2021-11-22T15:10:14.439Z</time>
      </trkpt>
      <trkpt lat="47.511892" lon="8.230485">
        <ele>352.138418</ele>
        <time>2021-11-22T15:10:19.311Z</time>
      </trkpt>
      <trkpt lat="47.511825" lon="8.230157">
        <ele>353.179617</ele>
        <time>2021-11-22T15:10:27.229Z</time>
      </trkpt>
      <trkpt lat="47.511764" lon="8.229788">
        <ele>354.333908</ele>
        <time>2021-11-22T15:10:35.774Z</time>
      </trkpt>
      <trkpt lat="47.511657" lon="8.229033">
        <ele>356.376004</ele>
        <time>2021-11-22T15:10:52.278Z</time>
      </trkpt>
      <trkpt lat="47.511638" lon="8.228823">
        <ele>356.865466</ele>
        <time>2021-11-22T15:10:57.728Z</time>
      </trkpt>
      <trkpt lat="47.511576" lon="8.228138">
        <ele>358.462056</ele>
        <time>2021-11-22T15:11:12.254Z</time>
      </trkpt>
      <trkpt lat="47.511526" lon="8.227338">
        <ele>360.318065</ele>
        <time>2021-11-22T15:11:26.801Z</time>
      </trkpt>
      <trkpt lat="47.511708" lon="8.227151">
        <ele>361.075756</ele>
        <time>2021-11-22T15:11:31.993Z</time>
      </trkpt>
      <trkpt lat="47.511780" lon="8.227075">
        <ele>361.378190</ele>
        <time>2021-11-22T15:11:34.206Z</time>
      </trkpt>
      <trkpt lat="47.511932" lon="8.226887">
        <ele>361.693278</ele>
        <time>2021-11-22T15:11:39.134Z</time>
      </trkpt>
      <trkpt lat="47.512009" lon="8.226722">
        <ele>361.810807</ele>
        <time>2021-11-22T15:11:41.951Z</time>
      </trkpt>
      <trkpt lat="47.512044" lon="8.226545">
        <ele>361.918888</ele>
        <time>2021-11-22T15:11:44.650Z</time>
      </trkpt>
      <trkpt lat="47.512044" lon="8.226534">
        <ele>361.925334</ele>
        <time>2021-11-22T15:11:44.838Z</time>
      </trkpt>
      <trkpt lat="47.512047" lon="8.225913">
        <ele>362.289268</ele>
        <time>2021-11-22T15:11:52.679Z</time>
      </trkpt>
      <trkpt lat="47.511974" lon="8.224957">
        <ele>362.853081</ele>
        <time>2021-11-22T15:12:03.419Z</time>
      </trkpt>
      <trkpt lat="47.511920" lon="8.224267">
        <ele>363.052314</ele>
        <time>2021-11-22T15:12:10.185Z</time>
      </trkpt>
      <trkpt lat="47.511891" lon="8.223892">
        <ele>362.918417</ele>
        <time>2021-11-22T15:12:13.573Z</time>
      </trkpt>
      <trkpt lat="47.511887" lon="8.223556">
        <ele>362.799205</ele>
        <time>2021-11-22T15:12:16.558Z</time>
      </trkpt>
      <trkpt lat="47.511889" lon="8.223179">
        <ele>362.665464</ele>
        <time>2021-11-22T15:12:19.875Z</time>
      </trkpt>
      <trkpt lat="47.511907" lon="8.223045">
        <ele>362.616998</ele>
        <time>2021-11-22T15:12:21.077Z</time>
      </trkpt>
      <trkpt lat="47.512028" lon="8.222157">
        <ele>362.295642</ele>
        <time>2021-11-22T15:12:28.804Z</time>
      </trkpt>
      <trkpt lat="47.512129" lon="8.221747">
        <ele>362.142013</ele>
        <time>2021-11-22T15:12:32.551Z</time>
      </trkpt>
      <trkpt lat="47.512225" lon="8.221417">
        <ele>362.017895</ele>
        <time>2021-11-22T15:12:35.671Z</time>
      </trkpt>
      <trkpt lat="47.512613" lon="8.220094">
        <ele>361.519663</ele>
        <time>2021-11-22T15:12:48.704Z</time>
      </trkpt>
      <trkpt lat="47.512799" lon="8.219477">
        <ele>361.286266</ele>
        <time>2021-11-22T15:12:54.942Z</time>
      </trkpt>
      <trkpt lat="47.513038" lon="8.218677">
        <ele>361.045125</ele>
        <time>2021-11-22T15:13:02.848Z</time>
      </trkpt>
      <trkpt lat="47.513295" lon="8.217786">
        <ele>360.782869</ele>
        <time>2021-11-22T15:13:11.484Z</time>
      </trkpt>
      <trkpt lat="47.513508" lon="8.217093">
        <ele>360.576773</ele>
        <time>2021-11-22T15:13:18.389Z</time>
      </trkpt>
      <trkpt lat="47.513641" lon="8.216562">
        <ele>360.657014</ele>
        <time>2021-11-22T15:13:23.816Z</time>
      </trkpt>
      <trkpt lat="47.513699" lon="8.216284">
        <ele>360.729222</ele>
        <time>2021-11-22T15:13:26.782Z</time>
      </trkpt>
      <trkpt lat="47.513771" lon="8.215830">
        <ele>360.844957</ele>
        <time>2021-11-22T15:13:31.746Z</time>
      </trkpt>
      <trkpt lat="47.513823" lon="8.215234">
        <ele>360.994097</ele>
        <time>2021-11-22T15:13:38.486Z</time>
      </trkpt>
      <trkpt lat="47.513841" lon="8.214781">
        <ele>361.106714</ele>
        <time>2021-11-22T15:13:43.716Z</time>
      </trkpt>
      <trkpt lat="47.513856" lon="8.214013">
        <ele>361.469337</ele>
        <time>2021-11-22T15:13:53.445Z</time>
      </trkpt>
      <trkpt lat="47.513868" lon="8.212415">
        <ele>362.613789</ele>
        <time>2021-11-22T15:14:14.189Z</time>
      </trkpt>
      <trkpt lat="47.513868" lon="8.212369">
        <ele>362.646731</ele>
        <time>2021-11-22T15:14:15.173Z</time>
      </trkpt>
      <trkpt lat="47.513892" lon="8.211277">
        <ele>363.467022</ele>
        <time>2021-11-22T15:14:29.154Z</time>
      </trkpt>
      <trkpt lat="47.513892" lon="8.210732">
        <ele>363.904095</ele>
        <time>2021-11-22T15:14:36.627Z</time>
      </trkpt>
      <trkpt lat="47.513886" lon="8.210522">
        <ele>364.072659</ele>
        <time>2021-11-22T15:14:39.303Z</time>
      </trkpt>
      <trkpt lat="47.513875" lon="8.210161">
        <ele>364.362464</ele>
        <time>2021-11-22T15:14:44.214Z</time>
      </trkpt>
      <trkpt lat="47.513828" lon="8.209683">
        <ele>364.749846</ele>
        <time>2021-11-22T15:14:50.043Z</time>
      </trkpt>
      <trkpt lat="47.513775" lon="8.209324">
        <ele>365.044550</ele>
        <time>2021-11-22T15:14:54.701Z</time>
      </trkpt>
      <trkpt lat="47.513709" lon="8.208886">
        <ele>365.467112</ele>
        <time>2021-11-22T15:15:00.759Z</time>
      </trkpt>
      <trkpt lat="47.513663" lon="8.208550">
        <ele>365.852853</ele>
        <time>2021-11-22T15:15:05.519Z</time>
      </trkpt>
      <trkpt lat="47.513624" lon="8.207827">
        <ele>366.668933</ele>
        <time>2021-11-22T15:15:16.645Z</time>
      </trkpt>
      <trkpt lat="47.513645" lon="8.207545">
        <ele>366.988150</ele>
        <time>2021-11-22T15:15:20.771Z</time>
      </trkpt>
      <trkpt lat="47.513696" lon="8.207044">
        <ele>367.558220</ele>
        <time>2021-11-22T15:15:28.585Z</time>
      </trkpt>
      <trkpt lat="47.513742" lon="8.206593">
        <ele>368.071420</ele>
        <time>2021-11-22T15:15:35.342Z</time>
      </trkpt>
      <trkpt lat="47.513745" lon="8.206554">
        <ele>368.115584</ele>
        <time>2021-11-22T15:15:35.871Z</time>
      </trkpt>
      <trkpt lat="47.513764" lon="8.206386">
        <ele>368.303001</ele>
        <time>2021-11-22T15:15:38.337Z</time>
      </trkpt>
      <trkpt lat="47.513770" lon="8.206327">
        <ele>368.365539</ele>
        <time>2021-11-22T15:15:39.182Z</time>
      </trkpt>
      <trkpt lat="47.513818" lon="8.205878">
        <ele>368.842016</ele>
        <time>2021-11-22T15:15:45.530Z</time>
      </trkpt>
      <trkpt lat="47.514101" lon="8.203192">
        <ele>371.624468</ele>
        <time>2021-11-22T15:16:24.056Z</time>
      </trkpt>
      <trkpt lat="47.514137" lon="8.202858">
        <ele>371.942753</ele>
        <time>2021-11-22T15:16:28.513Z</time>
      </trkpt>
      <trkpt lat="47.514098" lon="8.202705">
        <ele>372.096645</ele>
        <time>2021-11-22T15:16:32.989Z</time>
      </trkpt>
      <trkpt lat="47.514163" lon="8.202591">
        <ele>372.237039</ele>
        <time>2021-11-22T15:16:35.481Z</time>
      </trkpt>
      <trkpt lat="47.514194" lon="8.202298">
        <ele>372.516126</ele>
        <time>2021-11-22T15:16:39.455Z</time>
      </trkpt>
      <trkpt lat="47.514380" lon="8.200496">
        <ele>374.360271</ele>
        <time>2021-11-22T15:17:05.191Z</time>
      </trkpt>
      <trkpt lat="47.514434" lon="8.200030">
        <ele>374.888314</ele>
        <time>2021-11-22T15:17:11.848Z</time>
      </trkpt>
      <trkpt lat="47.514486" lon="8.199566">
        <ele>375.413604</ele>
        <time>2021-11-22T15:17:18.888Z</time>
      </trkpt>
      <trkpt lat="47.514662" lon="8.197887">
        <ele>377.421082</ele>
        <time>2021-11-22T15:17:43.592Z</time>
      </trkpt>
      <trkpt lat="47.514695" lon="8.197605">
        <ele>377.784929</ele>
        <time>2021-11-22T15:17:48.102Z</time>
      </trkpt>
      <trkpt lat="47.514693" lon="8.197267">
        <ele>378.214643</ele>
        <time>2021-11-22T15:17:53.061Z</time>
      </trkpt>
      <trkpt lat="47.514678" lon="8.196978">
        <ele>378.583130</ele>
        <time>2021-11-22T15:17:57.460Z</time>
      </trkpt>
      <trkpt lat="47.514654" lon="8.196629">
        <ele>379.029106</ele>
        <time>2021-11-22T15:18:03.002Z</time>
      </trkpt>
      <trkpt lat="47.514640" lon="8.196435">
        <ele>379.277141</ele>
        <time>2021-11-22T15:18:05.913Z</time>
      </trkpt>
      <trkpt lat="47.514636" lon="8.196041">
        <ele>379.778088</ele>
        <time>2021-11-22T15:18:12.070Z</time>
      </trkpt>
      <trkpt lat="47.514645" lon="8.195876">
        <ele>379.984370</ele>
        <time>2021-11-22T15:18:14.500Z</time>
      </trkpt>
      <trkpt lat="47.514671" lon="8.195551">
        <ele>380.380346</ele>
        <time>2021-11-22T15:18:19.813Z</time>
      </trkpt>
      <trkpt lat="47.514741" lon="8.195037">
        <ele>381.014766</ele>
        <time>2021-11-22T15:18:27.707Z</time>
      </trkpt>
      <trkpt lat="47.514758" lon="8.194884">
        <ele>381.202373</ele>
        <time>2021-11-22T15:18:29.856Z</time>
      </trkpt>
      <trkpt lat="47.514782" lon="8.194675">
        <ele>381.458876</ele>
        <time>2021-11-22T15:18:33.160Z</time>
      </trkpt>
      <trkpt lat="47.514831" lon="8.193830">
        <ele>382.485025</ele>
        <time>2021-11-22T15:18:45.367Z</time>
      </trkpt>
      <trkpt lat="47.514811" lon="8.193495">
        <ele>382.891930</ele>
        <time>2021-11-22T15:18:50.672Z</time>
      </trkpt>
      <trkpt lat="47.514781" lon="8.193252">
        <ele>383.183953</ele>
        <time>2021-11-22T15:18:54.249Z</time>
      </trkpt>
      <trkpt lat="47.514531" lon="8.191640">
        <ele>384.978402</ele>
        <time>2021-11-22T15:19:17.032Z</time>
      </trkpt>
      <trkpt lat="47.514510" lon="8.191384">
        <ele>385.258190</ele>
        <time>2021-11-22T15:19:20.899Z</time>
      </trkpt>
      <trkpt lat="47.514501" lon="8.191184">
        <ele>385.475661</ele>
        <time>2021-11-22T15:19:24.199Z</time>
      </trkpt>
      <trkpt lat="47.514488" lon="8.190683">
        <ele>386.020284</ele>
        <time>2021-11-22T15:19:31.471Z</time>
      </trkpt>
      <trkpt lat="47.514498" lon="8.190507">
        <ele>386.233275</ele>
        <time>2021-11-22T15:19:33.856Z</time>
      </trkpt>
      <trkpt lat="47.514507" lon="8.190335">
        <ele>386.441314</ele>
        <time>2021-11-22T15:19:36.494Z</time>
      </trkpt>
      <trkpt lat="47.514598" lon="8.189522">
        <ele>387.435096</ele>
        <time>2021-11-22T15:19:48.951Z</time>
      </trkpt>
      <trkpt lat="47.514691" lon="8.189289">
        <ele>387.761471</ele>
        <time>2021-11-22T15:19:52.770Z</time>
      </trkpt>
      <trkpt lat="47.514763" lon="8.189216">
        <ele>387.917278</ele>
        <time>2021-11-22T15:19:54.861Z</time>
      </trkpt>
      <trkpt lat="47.514808" lon="8.189201">
        <ele>387.999636</ele>
        <time>2021-11-22T15:19:56.102Z</time>
      </trkpt>
      <trkpt lat="47.514993" lon="8.189228">
        <ele>388.331549</ele>
        <time>2021-11-22T15:19:59.656Z</time>
      </trkpt>
      <trkpt lat="47.515385" lon="8.189286">
        <ele>389.034942</ele>
        <time>2021-11-22T15:20:08.247Z</time>
      </trkpt>
      <trkpt lat="47.515418" lon="8.189292">
        <ele>389.094305</ele>
        <time>2021-11-22T15:20:09.108Z</time>
      </trkpt>
      <trkpt lat="47.515505" lon="8.189300">
        <ele>389.244207</ele>
        <time>2021-11-22T15:20:11.333Z</time>
      </trkpt>
      <trkpt lat="47.515617" lon="8.189298">
        <ele>389.397987</ele>
        <time>2021-11-22T15:20:13.572Z</time>
      </trkpt>
      <trkpt lat="47.515726" lon="8.189285">
        <ele>389.548122</ele>
        <time>2021-11-22T15:20:15.757Z</time>
      </trkpt>
      <trkpt lat="47.515719" lon="8.189151">
        <ele>389.672747</ele>
        <time>2021-11-22T15:20:18.034Z</time>
      </trkpt>
      <trkpt lat="47.515708" lon="8.188909">
        <ele>389.897653</ele>
        <time>2021-11-22T15:20:21.814Z</time>
      </trkpt>
      <trkpt lat="47.515698" lon="8.188594">
        <ele>390.190064</ele>
        <time>2021-11-22T15:20:26.617Z</time>
      </trkpt>
      <trkpt lat="47.515696" lon="8.188550">
        <ele>390.230956</ele>
        <time>2021-11-22T15:20:27.483Z</time>
      </trkpt>
      <trkpt lat="47.515675" lon="8.188145">
        <ele>390.607605</ele>
        <time>2021-11-22T15:20:33.048Z</time>
      </trkpt>
      <trkpt lat="47.515642" lon="8.187925">
        <ele>390.816574</ele>
        <time>2021-11-22T15:20:35.864Z</time>
      </trkpt>
      <trkpt lat="47.515608" lon="8.187740">
        <ele>390.994357</ele>
        <time>2021-11-22T15:20:38.373Z</time>
      </trkpt>
      <trkpt lat="47.515515" lon="8.187295">
        <ele>391.426295</ele>
        <time>2021-11-22T15:20:44.218Z</time>
      </trkpt>
      <trkpt lat="47.515484" lon="8.187073">
        <ele>391.636502</ele>
        <time>2021-11-22T15:20:46.935Z</time>
      </trkpt>
      <trkpt lat="47.515473" lon="8.186840">
        <ele>391.754219</ele>
        <time>2021-11-22T15:20:49.718Z</time>
      </trkpt>
      <trkpt lat="47.515470" lon="8.186639">
        <ele>391.824387</ele>
        <time>2021-11-22T15:20:52.106Z</time>
      </trkpt>
      <trkpt lat="47.515421" lon="8.186066">
        <ele>392.025966</ele>
        <time>2021-11-22T15:20:58.834Z</time>
      </trkpt>
      <trkpt lat="47.515274" lon="8.185396">
        <ele>392.271831</ele>
        <time>2021-11-22T15:21:06.839Z</time>
      </trkpt>
      <trkpt lat="47.515160" lon="8.184965">
        <ele>392.433379</ele>
        <time>2021-11-22T15:21:11.763Z</time>
      </trkpt>
      <trkpt lat="47.514887" lon="8.183927">
        <ele>392.974717</ele>
        <time>2021-11-22T15:21:23.759Z</time>
      </trkpt>
      <trkpt lat="47.514772" lon="8.183501">
        <ele>393.258113</ele>
        <time>2021-11-22T15:21:29.295Z</time>
      </trkpt>
      <trkpt lat="47.514653" lon="8.183059">
        <ele>393.552046</ele>
        <time>2021-11-22T15:21:35.236Z</time>
      </trkpt>
      <trkpt lat="47.514504" lon="8.182501">
        <ele>393.922705</ele>
        <time>2021-11-22T15:21:43.193Z</time>
      </trkpt>
      <trkpt lat="47.514346" lon="8.181911">
        <ele>394.357905</ele>
        <time>2021-11-22T15:21:51.845Z</time>
      </trkpt>
      <trkpt lat="47.514227" lon="8.181450">
        <ele>394.950505</ele>
        <time>2021-11-22T15:21:58.701Z</time>
      </trkpt>
      <trkpt lat="47.514066" lon="8.180781">
        <ele>395.803284</ele>
        <time>2021-11-22T15:22:09.715Z</time>
      </trkpt>
      <trkpt lat="47.513764" lon="8.179393">
        <ele>397.554826</ele>
        <time>2021-11-22T15:22:31.650Z</time>
      </trkpt>
      <trkpt lat="47.513703" lon="8.179067">
        <ele>397.963499</ele>
        <time>2021-11-22T15:22:36.945Z</time>
      </trkpt>
      <trkpt lat="47.513481" lon="8.177211">
        <ele>400.240612</ele>
        <time>2021-11-22T15:23:04.500Z</time>
      </trkpt>
      <trkpt lat="47.513423" lon="8.176881">
        <ele>400.652561</ele>
        <time>2021-11-22T15:23:09.816Z</time>
      </trkpt>
      <trkpt lat="47.513406" lon="8.176782">
        <ele>400.774400</ele>
        <time>2021-11-22T15:23:11.143Z</time>
      </trkpt>
      <trkpt lat="47.513012" lon="8.174675">
        <ele>403.370636</ele>
        <time>2021-11-22T15:23:43.788Z</time>
      </trkpt>
      <trkpt lat="47.512929" lon="8.174162">
        <ele>404.005619</ele>
        <time>2021-11-22T15:23:51.253Z</time>
      </trkpt>
      <trkpt lat="47.512873" lon="8.173686">
        <ele>404.611914</ele>
        <time>2021-11-22T15:23:58.251Z</time>
      </trkpt>
      <trkpt lat="47.512839" lon="8.173310">
        <ele>405.087943</ele>
        <time>2021-11-22T15:24:03.832Z</time>
      </trkpt>
      <trkpt lat="47.512778" lon="8.172463">
        <ele>406.156817</ele>
        <time>2021-11-22T15:24:16.779Z</time>
      </trkpt>
      <trkpt lat="47.512633" lon="8.171844">
        <ele>406.978952</ele>
        <time>2021-11-22T15:24:26.923Z</time>
      </trkpt>
      <trkpt lat="47.512053" lon="8.170245">
        <ele>409.704666</ele>
        <time>2021-11-22T15:24:54.588Z</time>
      </trkpt>
      <trkpt lat="47.511859" lon="8.169270">
        <ele>411.256795</ele>
        <time>2021-11-22T15:25:12.494Z</time>
      </trkpt>
      <trkpt lat="47.511784" lon="8.168276">
        <ele>412.946670</ele>
        <time>2021-11-22T15:25:29.822Z</time>
      </trkpt>
      <trkpt lat="47.511782" lon="8.167996">
        <ele>413.419775</ele>
        <time>2021-11-22T15:25:34.626Z</time>
      </trkpt>
      <trkpt lat="47.511780" lon="8.167856">
        <ele>413.656368</ele>
        <time>2021-11-22T15:25:37.249Z</time>
      </trkpt>
      <trkpt lat="47.511825" lon="8.165978">
        <ele>416.368256</ele>
        <time>2021-11-22T15:26:07.538Z</time>
      </trkpt>
      <trkpt lat="47.511907" lon="8.164945">
        <ele>417.371090</ele>
        <time>2021-11-22T15:26:21.500Z</time>
      </trkpt>
      <trkpt lat="47.511908" lon="8.164821">
        <ele>417.490655</ele>
        <time>2021-11-22T15:26:23.082Z</time>
      </trkpt>
      <trkpt lat="47.511896" lon="8.164592">
        <ele>417.712111</ele>
        <time>2021-11-22T15:26:25.825Z</time>
      </trkpt>
      <trkpt lat="47.511883" lon="8.164522">
        <ele>417.782108</ele>
        <time>2021-11-22T15:26:26.718Z</time>
      </trkpt>
      <trkpt lat="47.511850" lon="8.164332">
        <ele>417.971258</ele>
        <time>2021-11-22T15:26:29.123Z</time>
      </trkpt>
      <trkpt lat="47.511779" lon="8.164135">
        <ele>418.186546</ele>
        <time>2021-11-22T15:26:31.773Z</time>
      </trkpt>
      <trkpt lat="47.511754" lon="8.164061">
        <ele>418.266322</ele>
        <time>2021-11-22T15:26:32.832Z</time>
      </trkpt>
      <trkpt lat="47.511535" lon="8.163478">
        <ele>419.063322</ele>
        <time>2021-11-22T15:26:41.463Z</time>
      </trkpt>
      <trkpt lat="47.511269" lon="8.162248">
        <ele>420.633563</ele>
        <time>2021-11-22T15:26:59.996Z</time>
      </trkpt>
      <trkpt lat="47.511166" lon="8.161767">
        <ele>421.247060</ele>
        <time>2021-11-22T15:27:07.940Z</time>
      </trkpt>
      <trkpt lat="47.511040" lon="8.161148">
        <ele>422.866787</ele>
        <time>2021-11-22T15:27:19.128Z</time>
      </trkpt>
      <trkpt lat="47.510983" lon="8.160739">
        <ele>424.265218</ele>
        <time>2021-11-22T15:27:27.326Z</time>
      </trkpt>
      <trkpt lat="47.510904" lon="8.159990">
        <ele>426.803727</ele>
        <time>2021-11-22T15:27:46.855Z</time>
      </trkpt>
      <trkpt lat="47.510879" lon="8.159731">
        <ele>427.679830</ele>
        <time>2021-11-22T15:27:52.755Z</time>
      </trkpt>
      <trkpt lat="47.510871" lon="8.159655">
        <ele>427.937397</ele>
        <time>2021-11-22T15:27:55.256Z</time>
      </trkpt>
      <trkpt lat="47.510855" lon="8.159491">
        <ele>428.492270</ele>
        <time>2021-11-22T15:28:00.394Z</time>
      </trkpt>
      <trkpt lat="47.510849" lon="8.159407">
        <ele>428.775123</ele>
        <time>2021-11-22T15:28:02.215Z</time>
      </trkpt>
      <trkpt lat="47.510739" lon="8.159360">
        <ele>429.342717</ele>
        <time>2021-11-22T15:28:06.280Z</time>
      </trkpt>
      <trkpt lat="47.510658" lon="8.159325">
        <ele>429.761037</ele>
        <time>2021-11-22T15:28:10.224Z</time>
      </trkpt>
      <trkpt lat="47.510448" lon="8.159184">
        <ele>430.968173</ele>
        <time>2021-11-22T15:28:19.142Z</time>
      </trkpt>
      <trkpt lat="47.510385" lon="8.159137">
        <ele>431.370022</ele>
        <time>2021-11-22T15:28:21.862Z</time>
      </trkpt>
      <trkpt lat="47.510251" lon="8.159017">
        <ele>432.262093</ele>
        <time>2021-11-22T15:28:29.480Z</time>
      </trkpt>
      <trkpt lat="47.508104" lon="8.156157">
        <ele>447.339389</ele>
        <time>2021-11-22T15:30:14.950Z</time>
      </trkpt>
      <trkpt lat="47.508059" lon="8.156091">
        <ele>447.638172</ele>
        <time>2021-11-22T15:30:17.303Z</time>
      </trkpt>
      <trkpt lat="47.507950" lon="8.155925">
        <ele>448.375775</ele>
        <time>2021-11-22T15:30:19.641Z</time>
      </trkpt>
      <trkpt lat="47.507747" lon="8.155524">
        <ele>449.851789</ele>
        <time>2021-11-22T15:30:28.556Z</time>
      </trkpt>
      <trkpt lat="47.507673" lon="8.155270">
        <ele>450.594795</ele>
        <time>2021-11-22T15:30:34.387Z</time>
      </trkpt>
      <trkpt lat="47.507439" lon="8.154184">
        <ele>453.656652</ele>
        <time>2021-11-22T15:30:54.903Z</time>
      </trkpt>
      <trkpt lat="47.507191" lon="8.154132">
        <ele>454.652648</ele>
        <time>2021-11-22T15:30:59.855Z</time>
      </trkpt>
      <trkpt lat="47.507133" lon="8.154125">
        <ele>454.884045</ele>
        <time>2021-11-22T15:31:02.540Z</time>
      </trkpt>
      <trkpt lat="47.505263" lon="8.153535">
        <ele>468.033826</ele>
        <time>2021-11-22T15:32:24.040Z</time>
      </trkpt>
      <trkpt lat="47.504929" lon="8.153356">
        <ele>471.177240</ele>
        <time>2021-11-22T15:32:43.157Z</time>
      </trkpt>
      <trkpt lat="47.503469" lon="8.152057">
        <ele>491.936083</ele>
        <time>2021-11-22T15:34:31.246Z</time>
      </trkpt>
      <trkpt lat="47.502497" lon="8.151014">
        <ele>510.789694</ele>
        <time>2021-11-22T15:36:09.797Z</time>
      </trkpt>
      <trkpt lat="47.502428" lon="8.150965">
        <ele>511.991556</ele>
        <time>2021-11-22T15:36:17.904Z</time>
      </trkpt>
      <trkpt lat="47.502331" lon="8.150919">
        <ele>513.591163</ele>
        <time>2021-11-22T15:36:24.235Z</time>
      </trkpt>
      <trkpt lat="47.501971" lon="8.150746">
        <ele>519.535271</ele>
        <time>2021-11-22T15:36:53.379Z</time>
      </trkpt>
      <trkpt lat="47.501965" lon="8.150743">
        <ele>519.634729</ele>
        <time>2021-11-22T15:36:54.439Z</time>
      </trkpt>
      <trkpt lat="47.500606" lon="8.150085">
        <ele>536.502488</ele>
        <time>2021-11-22T15:38:28.945Z</time>
      </trkpt>
      <trkpt lat="47.500301" lon="8.149876">
        <ele>540.437513</ele>
        <time>2021-11-22T15:38:45.238Z</time>
      </trkpt>
      <trkpt lat="47.500161" lon="8.149644">
        <ele>541.802955</ele>
        <time>2021-11-22T15:38:53.332Z</time>
      </trkpt>
      <trkpt lat="47.499932" lon="8.149080">
        <ele>543.666059</ele>
        <time>2021-11-22T15:39:08.070Z</time>
      </trkpt>
      <trkpt lat="47.499881" lon="8.148992">
        <ele>543.994337</ele>
        <time>2021-11-22T15:39:10.310Z</time>
      </trkpt>
      <trkpt lat="47.499763" lon="8.148953">
        <ele>544.501049</ele>
        <time>2021-11-22T15:39:13.659Z</time>
      </trkpt>
      <trkpt lat="47.499723" lon="8.148964">
        <ele>544.671556</ele>
        <time>2021-11-22T15:39:15.407Z</time>
      </trkpt>
      <trkpt lat="47.499690" lon="8.148997">
        <ele>544.838463</ele>
        <time>2021-11-22T15:39:16.756Z</time>
      </trkpt>
      <trkpt lat="47.499647" lon="8.149156">
        <ele>545.323384</ele>
        <time>2021-11-22T15:39:19.715Z</time>
      </trkpt>
      <trkpt lat="47.499665" lon="8.149270">
        <ele>545.654861</ele>
        <time>2021-11-22T15:39:21.646Z</time>
      </trkpt>
      <trkpt lat="47.499998" lon="8.150131">
        <ele>548.463892</ele>
        <time>2021-11-22T15:39:39.499Z</time>
      </trkpt>
      <trkpt lat="47.500178" lon="8.151241">
        <ele>549.893668</ele>
        <time>2021-11-22T15:39:57.977Z</time>
      </trkpt>
      <trkpt lat="47.500178" lon="8.151478">
        <ele>550.156876</ele>
        <time>2021-11-22T15:40:00.518Z</time>
      </trkpt>
      <trkpt lat="47.500164" lon="8.151666">
        <ele>550.366930</ele>
        <time>2021-11-22T15:40:03.829Z</time>
      </trkpt>
      <trkpt lat="47.500077" lon="8.152013">
        <ele>550.777985</ele>
        <time>2021-11-22T15:40:08.331Z</time>
      </trkpt>
      <trkpt lat="47.499996" lon="8.152198">
        <ele>551.022817</ele>
        <time>2021-11-22T15:40:11.900Z</time>
      </trkpt>
      <trkpt lat="47.499935" lon="8.152295">
        <ele>551.169992</ele>
        <time>2021-11-22T15:40:13.494Z</time>
      </trkpt>
      <trkpt lat="47.499822" lon="8.152457">
        <ele>551.428595</ele>
        <time>2021-11-22T15:40:16.153Z</time>
      </trkpt>
      <trkpt lat="47.499144" lon="8.153431">
        <ele>551.540564</ele>
        <time>2021-11-22T15:40:33.510Z</time>
      </trkpt>
      <trkpt lat="47.499056" lon="8.153548">
        <ele>551.518536</ele>
        <time>2021-11-22T15:40:35.073Z</time>
      </trkpt>
      <trkpt lat="47.498972" lon="8.153640">
        <ele>551.499077</ele>
        <time>2021-11-22T15:40:36.637Z</time>
      </trkpt>
      <trkpt lat="47.498875" lon="8.153727">
        <ele>551.477956</ele>
        <time>2021-11-22T15:40:38.389Z</time>
      </trkpt>
      <trkpt lat="47.498718" lon="8.153824">
        <ele>551.446275</ele>
        <time>2021-11-22T15:40:40.390Z</time>
      </trkpt>
      <trkpt lat="47.498689" lon="8.153839">
        <ele>551.440554</ele>
        <time>2021-11-22T15:40:40.722Z</time>
      </trkpt>
      <trkpt lat="47.498184" lon="8.154097">
        <ele>551.276492</ele>
        <time>2021-11-22T15:40:46.824Z</time>
      </trkpt>
      <trkpt lat="47.498019" lon="8.154179">
        <ele>551.057199</ele>
        <time>2021-11-22T15:40:48.836Z</time>
      </trkpt>
      <trkpt lat="47.497675" lon="8.154354">
        <ele>550.598901</ele>
        <time>2021-11-22T15:40:53.103Z</time>
      </trkpt>
      <trkpt lat="47.497383" lon="8.154501">
        <ele>550.210306</ele>
        <time>2021-11-22T15:40:56.854Z</time>
      </trkpt>
      <trkpt lat="47.497236" lon="8.154578">
        <ele>550.013841</ele>
        <time>2021-11-22T15:40:58.622Z</time>
      </trkpt>
      <trkpt lat="47.497141" lon="8.154652">
        <ele>549.878585</ele>
        <time>2021-11-22T15:40:59.950Z</time>
      </trkpt>
      <trkpt lat="47.497059" lon="8.154725">
        <ele>549.758023</ele>
        <time>2021-11-22T15:41:01.266Z</time>
      </trkpt>
      <trkpt lat="47.497011" lon="8.154633">
        <ele>549.659076</ele>
        <time>2021-11-22T15:41:02.150Z</time>
      </trkpt>
      <trkpt lat="47.496927" lon="8.154519">
        <ele>549.515487</ele>
        <time>2021-11-22T15:41:03.493Z</time>
      </trkpt>
      <trkpt lat="47.496872" lon="8.154444">
        <ele>549.421265</ele>
        <time>2021-11-22T15:41:04.406Z</time>
      </trkpt>
      <trkpt lat="47.496673" lon="8.154171">
        <ele>549.084827</ele>
        <time>2021-11-22T15:41:07.479Z</time>
      </trkpt>
      <trkpt lat="47.496607" lon="8.154090">
        <ele>549.064044</ele>
        <time>2021-11-22T15:41:08.503Z</time>
      </trkpt>
      <trkpt lat="47.496354" lon="8.153743">
        <ele>548.980437</ele>
        <time>2021-11-22T15:41:12.608Z</time>
      </trkpt>
      <trkpt lat="47.496295" lon="8.153600">
        <ele>548.952996</ele>
        <time>2021-11-22T15:41:14.474Z</time>
      </trkpt>
      <trkpt lat="47.496252" lon="8.153481">
        <ele>548.930895</ele>
        <time>2021-11-22T15:41:15.486Z</time>
      </trkpt>
      <trkpt lat="47.496043" lon="8.152517">
        <ele>548.765091</ele>
        <time>2021-11-22T15:41:25.574Z</time>
      </trkpt>
      <trkpt lat="47.496031" lon="8.152401">
        <ele>548.745872</ele>
        <time>2021-11-22T15:41:26.578Z</time>
      </trkpt>
      <trkpt lat="47.496013" lon="8.152224">
        <ele>548.716558</ele>
        <time>2021-11-22T15:41:28.491Z</time>
      </trkpt>
      <trkpt lat="47.495980" lon="8.151500">
        <ele>548.922955</ele>
        <time>2021-11-22T15:41:37.340Z</time>
      </trkpt>
      <trkpt lat="47.495926" lon="8.150795">
        <ele>549.527706</ele>
        <time>2021-11-22T15:41:46.470Z</time>
      </trkpt>
      <trkpt lat="47.495907" lon="8.150548">
        <ele>549.739594</ele>
        <time>2021-11-22T15:41:50.180Z</time>
      </trkpt>
      <trkpt lat="47.495916" lon="8.150228">
        <ele>550.012580</ele>
        <time>2021-11-22T15:41:54.436Z</time>
      </trkpt>
      <trkpt lat="47.496064" lon="8.149222">
        <ele>550.890128</ele>
        <time>2021-11-22T15:42:09.292Z</time>
      </trkpt>
      <trkpt lat="47.496100" lon="8.148965">
        <ele>551.025632</ele>
        <time>2021-11-22T15:42:13.175Z</time>
      </trkpt>
      <trkpt lat="47.496114" lon="8.148836">
        <ele>551.086533</ele>
        <time>2021-11-22T15:42:15.138Z</time>
      </trkpt>
      <trkpt lat="47.496081" lon="8.148674">
        <ele>551.165402</ele>
        <time>2021-11-22T15:42:17.398Z</time>
      </trkpt>
      <trkpt lat="47.496048" lon="8.148514">
        <ele>551.243380</ele>
        <time>2021-11-22T15:42:19.734Z</time>
      </trkpt>
      <trkpt lat="47.495811" lon="8.147525">
        <ele>551.732515</ele>
        <time>2021-11-22T15:42:33.013Z</time>
      </trkpt>
      <trkpt lat="47.495531" lon="8.146431">
        <ele>552.172483</ele>
        <time>2021-11-22T15:42:44.105Z</time>
      </trkpt>
      <trkpt lat="47.495330" lon="8.146238">
        <ele>552.189922</ele>
        <time>2021-11-22T15:42:47.120Z</time>
      </trkpt>
      <trkpt lat="47.495291" lon="8.146216">
        <ele>552.192960</ele>
        <time>2021-11-22T15:42:47.712Z</time>
      </trkpt>
      <trkpt lat="47.495167" lon="8.146162">
        <ele>552.202368</ele>
        <time>2021-11-22T15:42:49.351Z</time>
      </trkpt>
      <trkpt lat="47.494550" lon="8.146113">
        <ele>552.247341</ele>
        <time>2021-11-22T15:42:58.097Z</time>
      </trkpt>
      <trkpt lat="47.494476" lon="8.146116">
        <ele>552.252729</ele>
        <time>2021-11-22T15:42:59.115Z</time>
      </trkpt>
      <trkpt lat="47.494351" lon="8.146113">
        <ele>552.261828</ele>
        <time>2021-11-22T15:43:00.863Z</time>
      </trkpt>
      <trkpt lat="47.492464" lon="8.146635">
        <ele>554.661943</ele>
        <time>2021-11-22T15:43:38.363Z</time>
      </trkpt>
      <trkpt lat="47.492241" lon="8.146624">
        <ele>555.010155</ele>
        <time>2021-11-22T15:43:43.696Z</time>
      </trkpt>
      <trkpt lat="47.492125" lon="8.146571">
        <ele>555.390217</ele>
        <time>2021-11-22T15:43:47.428Z</time>
      </trkpt>
      <trkpt lat="47.492088" lon="8.146482">
        <ele>555.707041</ele>
        <time>2021-11-22T15:43:49.264Z</time>
      </trkpt>
      <trkpt lat="47.492079" lon="8.146009">
        <ele>557.141703</ele>
        <time>2021-11-22T15:43:58.637Z</time>
      </trkpt>
      <trkpt lat="47.492082" lon="8.145838">
        <ele>557.660334</ele>
        <time>2021-11-22T15:44:01.913Z</time>
      </trkpt>
      <trkpt lat="47.492088" lon="8.145254">
        <ele>559.431174</ele>
        <time>2021-11-22T15:44:14.841Z</time>
      </trkpt>
      <trkpt lat="47.492088" lon="8.145158">
        <ele>559.722238</ele>
        <time>2021-11-22T15:44:17.069Z</time>
      </trkpt>
      <trkpt lat="47.492088" lon="8.144557">
        <ele>561.544416</ele>
        <time>2021-11-22T15:44:32.223Z</time>
      </trkpt>
      <trkpt lat="47.492087" lon="8.144186">
        <ele>562.669263</ele>
        <time>2021-11-22T15:44:41.769Z</time>
      </trkpt>
      <trkpt lat="47.492087" lon="8.143971">
        <ele>563.355304</ele>
        <time>2021-11-22T15:44:47.248Z</time>
      </trkpt>
      <trkpt lat="47.492053" lon="8.143800">
        <ele>564.016933</ele>
        <time>2021-11-22T15:44:51.334Z</time>
      </trkpt>
      <trkpt lat="47.492011" lon="8.143597">
        <ele>564.804963</ele>
        <time>2021-11-22T15:44:57.106Z</time>
      </trkpt>
      <trkpt lat="47.491965" lon="8.143321">
        <ele>565.860129</ele>
        <time>2021-11-22T15:45:03.841Z</time>
      </trkpt>
      <trkpt lat="47.491953" lon="8.143034">
        <ele>566.927458</ele>
        <time>2021-11-22T15:45:11.256Z</time>
      </trkpt>
      <trkpt lat="47.491957" lon="8.142795">
        <ele>567.814854</ele>
        <time>2021-11-22T15:45:18.178Z</time>
      </trkpt>
      <trkpt lat="47.491977" lon="8.142556">
        <ele>568.708755</ele>
        <time>2021-11-22T15:45:24.500Z</time>
      </trkpt>
      <trkpt lat="47.492031" lon="8.142263">
        <ele>569.836046</ele>
        <time>2021-11-22T15:45:32.537Z</time>
      </trkpt>
      <trkpt lat="47.492091" lon="8.142144">
        <ele>570.387173</ele>
        <time>2021-11-22T15:45:36.246Z</time>
      </trkpt>
      <trkpt lat="47.492178" lon="8.141991">
        <ele>571.129416</ele>
        <time>2021-11-22T15:45:41.236Z</time>
      </trkpt>
      <trkpt lat="47.492604" lon="8.141229">
        <ele>573.795059</ele>
        <time>2021-11-22T15:46:03.626Z</time>
      </trkpt>
      <trkpt lat="47.492634" lon="8.141132">
        <ele>573.963699</ele>
        <time>2021-11-22T15:46:05.993Z</time>
      </trkpt>
      <trkpt lat="47.492651" lon="8.141002">
        <ele>574.173018</ele>
        <time>2021-11-22T15:46:09.006Z</time>
      </trkpt>
      <trkpt lat="47.492626" lon="8.140775">
        <ele>574.536599</ele>
        <time>2021-11-22T15:46:13.231Z</time>
      </trkpt>
      <trkpt lat="47.492379" lon="8.138603">
        <ele>577.051737</ele>
        <time>2021-11-22T15:46:42.834Z</time>
      </trkpt>
      <trkpt lat="47.492359" lon="8.138479">
        <ele>576.997300</ele>
        <time>2021-11-22T15:46:43.842Z</time>
      </trkpt>
      <trkpt lat="47.492313" lon="8.138377">
        <ele>576.944935</ele>
        <time>2021-11-22T15:46:44.895Z</time>
      </trkpt>
      <trkpt lat="47.492211" lon="8.138284">
        <ele>576.869224</ele>
        <time>2021-11-22T15:46:46.382Z</time>
      </trkpt>
      <trkpt lat="47.492088" lon="8.138269">
        <ele>576.791229</ele>
        <time>2021-11-22T15:46:47.836Z</time>
      </trkpt>
      <trkpt lat="47.491890" lon="8.138259">
        <ele>576.666027</ele>
        <time>2021-11-22T15:46:50.234Z</time>
      </trkpt>
      <trkpt lat="47.491600" lon="8.138244">
        <ele>576.482646</ele>
        <time>2021-11-22T15:46:53.627Z</time>
      </trkpt>
      <trkpt lat="47.491438" lon="8.138230">
        <ele>576.380094</ele>
        <time>2021-11-22T15:46:55.550Z</time>
      </trkpt>
      <trkpt lat="47.490906" lon="8.138091">
        <ele>576.118362</ele>
        <time>2021-11-22T15:47:01.809Z</time>
      </trkpt>
      <trkpt lat="47.490479" lon="8.137973">
        <ele>576.110700</ele>
        <time>2021-11-22T15:47:07.239Z</time>
      </trkpt>
      <trkpt lat="47.490265" lon="8.137935">
        <ele>576.106899</ele>
        <time>2021-11-22T15:47:10.225Z</time>
      </trkpt>
      <trkpt lat="47.489423" lon="8.137655">
        <ele>576.091678</ele>
        <time>2021-11-22T15:47:24.608Z</time>
      </trkpt>
      <trkpt lat="47.488954" lon="8.137431">
        <ele>576.556962</ele>
        <time>2021-11-22T15:47:34.009Z</time>
      </trkpt>
      <trkpt lat="47.488837" lon="8.137371">
        <ele>576.729049</ele>
        <time>2021-11-22T15:47:36.438Z</time>
      </trkpt>
      <trkpt lat="47.488649" lon="8.137254">
        <ele>577.012484</ele>
        <time>2021-11-22T15:47:40.820Z</time>
      </trkpt>
      <trkpt lat="47.488465" lon="8.137151">
        <ele>577.285881</ele>
        <time>2021-11-22T15:47:44.864Z</time>
      </trkpt>
      <trkpt lat="47.488213" lon="8.137151">
        <ele>577.636097</ele>
        <time>2021-11-22T15:47:50.263Z</time>
      </trkpt>
      <trkpt lat="47.487735" lon="8.137374">
        <ele>578.332625</ele>
        <time>2021-11-22T15:48:01.460Z</time>
      </trkpt>
      <trkpt lat="47.487220" lon="8.137494">
        <ele>578.845571</ele>
        <time>2021-11-22T15:48:12.477Z</time>
      </trkpt>
      <trkpt lat="47.486647" lon="8.137734">
        <ele>579.299463</ele>
        <time>2021-11-22T15:48:22.318Z</time>
      </trkpt>
      <trkpt lat="47.486625" lon="8.137748">
        <ele>579.317716</ele>
        <time>2021-11-22T15:48:23.094Z</time>
      </trkpt>
      <trkpt lat="47.486500" lon="8.137887">
        <ele>579.436892</ele>
        <time>2021-11-22T15:48:25.751Z</time>
      </trkpt>
      <trkpt lat="47.486480" lon="8.137926">
        <ele>579.462108</ele>
        <time>2021-11-22T15:48:27.014Z</time>
      </trkpt>
      <trkpt lat="47.486385" lon="8.138090">
        <ele>579.573365</ele>
        <time>2021-11-22T15:48:32.303Z</time>
      </trkpt>
      <trkpt lat="47.486244" lon="8.138406">
        <ele>579.768405</ele>
        <time>2021-11-22T15:48:42.457Z</time>
      </trkpt>
      <trkpt lat="47.486150" lon="8.138614">
        <ele>579.897287</ele>
        <time>2021-11-22T15:48:49.115Z</time>
      </trkpt>
      <trkpt lat="47.485914" lon="8.138973">
        <ele>579.984672</ele>
        <time>2021-11-22T15:49:02.268Z</time>
      </trkpt>
      <trkpt lat="47.485769" lon="8.139093">
        <ele>580.000958</ele>
        <time>2021-11-22T15:49:08.794Z</time>
      </trkpt>
      <trkpt lat="47.485679" lon="8.139129">
        <ele>580.010097</ele>
        <time>2021-11-22T15:49:11.961Z</time>
      </trkpt>
      <trkpt lat="47.485614" lon="8.139130">
        <ele>580.016469</ele>
        <time>2021-11-22T15:49:13.290Z</time>
      </trkpt>
      <trkpt lat="47.485087" lon="8.139024">
        <ele>580.068605</ele>
        <time>2021-11-22T15:49:21.997Z</time>
      </trkpt>
      <trkpt lat="47.484611" lon="8.138600">
        <ele>580.123067</ele>
        <time>2021-11-22T15:49:30.940Z</time>
      </trkpt>
      <trkpt lat="47.484101" lon="8.138667">
        <ele>579.212311</ele>
        <time>2021-11-22T15:49:37.086Z</time>
      </trkpt>
      <trkpt lat="47.483932" lon="8.138672">
        <ele>578.803668</ele>
        <time>2021-11-22T15:49:38.955Z</time>
      </trkpt>
      <trkpt lat="47.483799" lon="8.138672">
        <ele>578.482137</ele>
        <time>2021-11-22T15:49:40.529Z</time>
      </trkpt>
      <trkpt lat="47.483055" lon="8.138704">
        <ele>576.682740</ele>
        <time>2021-11-22T15:49:48.028Z</time>
      </trkpt>
      <trkpt lat="47.482993" lon="8.138736">
        <ele>576.523997</ele>
        <time>2021-11-22T15:49:48.766Z</time>
      </trkpt>
      <trkpt lat="47.482938" lon="8.138763">
        <ele>576.383907</ele>
        <time>2021-11-22T15:49:49.263Z</time>
      </trkpt>
      <trkpt lat="47.482382" lon="8.139311">
        <ele>574.718788</ele>
        <time>2021-11-22T15:49:56.474Z</time>
      </trkpt>
      <trkpt lat="47.482314" lon="8.139339">
        <ele>574.539759</ele>
        <time>2021-11-22T15:49:57.080Z</time>
      </trkpt>
      <trkpt lat="47.482269" lon="8.139354">
        <ele>574.422760</ele>
        <time>2021-11-22T15:49:57.543Z</time>
      </trkpt>
      <trkpt lat="47.481930" lon="8.139364">
        <ele>573.562750</ele>
        <time>2021-11-22T15:50:00.967Z</time>
      </trkpt>
      <trkpt lat="47.481795" lon="8.139350">
        <ele>573.219496</ele>
        <time>2021-11-22T15:50:02.376Z</time>
      </trkpt>
      <trkpt lat="47.481570" lon="8.139330">
        <ele>572.647777</ele>
        <time>2021-11-22T15:50:04.633Z</time>
      </trkpt>
      <trkpt lat="47.481334" lon="8.139233">
        <ele>572.026522</ele>
        <time>2021-11-22T15:50:08.076Z</time>
      </trkpt>
      <trkpt lat="47.481211" lon="8.139188">
        <ele>571.705150</ele>
        <time>2021-11-22T15:50:09.332Z</time>
      </trkpt>
      <trkpt lat="47.481047" lon="8.139151">
        <ele>571.284373</ele>
        <time>2021-11-22T15:50:11.600Z</time>
      </trkpt>
      <trkpt lat="47.480997" lon="8.139156">
        <ele>571.175516</ele>
        <time>2021-11-22T15:50:12.915Z</time>
      </trkpt>
      <trkpt lat="47.480931" lon="8.138738">
        <ele>570.636605</ele>
        <time>2021-11-22T15:50:16.034Z</time>
      </trkpt>
      <trkpt lat="47.480926" lon="8.138706">
        <ele>570.595371</ele>
        <time>2021-11-22T15:50:17.270Z</time>
      </trkpt>
      <trkpt lat="47.480849" lon="8.138227">
        <ele>569.977231</ele>
        <time>2021-11-22T15:50:21.913Z</time>
      </trkpt>
      <trkpt lat="47.480729" lon="8.137479">
        <ele>569.012054</ele>
        <time>2021-11-22T15:50:29.110Z</time>
      </trkpt>
      <trkpt lat="47.480611" lon="8.136738">
        <ele>568.056283</ele>
        <time>2021-11-22T15:50:34.185Z</time>
      </trkpt>
      <trkpt lat="47.480497" lon="8.136071">
        <ele>565.716690</ele>
        <time>2021-11-22T15:50:38.675Z</time>
      </trkpt>
      <trkpt lat="47.480445" lon="8.135745">
        <ele>564.398948</ele>
        <time>2021-11-22T15:50:40.748Z</time>
      </trkpt>
      <trkpt lat="47.480428" lon="8.135495">
        <ele>563.410465</ele>
        <time>2021-11-22T15:50:42.346Z</time>
      </trkpt>
      <trkpt lat="47.480431" lon="8.135333">
        <ele>562.772906</ele>
        <time>2021-11-22T15:50:43.298Z</time>
      </trkpt>
      <trkpt lat="47.480460" lon="8.135036">
        <ele>561.592356</ele>
        <time>2021-11-22T15:50:45.216Z</time>
      </trkpt>
      <trkpt lat="47.480608" lon="8.134090">
        <ele>557.772319</ele>
        <time>2021-11-22T15:50:51.119Z</time>
      </trkpt>
      <trkpt lat="47.480724" lon="8.133367">
        <ele>554.880193</ele>
        <time>2021-11-22T15:50:55.641Z</time>
      </trkpt>
      <trkpt lat="47.480899" lon="8.132641">
        <ele>551.884786</ele>
        <time>2021-11-22T15:51:00.353Z</time>
      </trkpt>
      <trkpt lat="47.481323" lon="8.131382">
        <ele>546.680217</ele>
        <time>2021-11-22T15:51:09.339Z</time>
      </trkpt>
      <trkpt lat="47.481421" lon="8.131045">
        <ele>545.825655</ele>
        <time>2021-11-22T15:51:11.813Z</time>
      </trkpt>
      <trkpt lat="47.481509" lon="8.130687">
        <ele>544.938319</ele>
        <time>2021-11-22T15:51:14.551Z</time>
      </trkpt>
      <trkpt lat="47.481589" lon="8.129851">
        <ele>542.971598</ele>
        <time>2021-11-22T15:51:20.306Z</time>
      </trkpt>
      <trkpt lat="47.481607" lon="8.129456">
        <ele>542.049435</ele>
        <time>2021-11-22T15:51:22.949Z</time>
      </trkpt>
      <trkpt lat="47.481655" lon="8.128429">
        <ele>540.262178</ele>
        <time>2021-11-22T15:51:30.026Z</time>
      </trkpt>
      <trkpt lat="47.481690" lon="8.127694">
        <ele>539.404053</ele>
        <time>2021-11-22T15:51:35.519Z</time>
      </trkpt>
      <trkpt lat="47.481722" lon="8.127177">
        <ele>538.799420</ele>
        <time>2021-11-22T15:51:39.605Z</time>
      </trkpt>
      <trkpt lat="47.481779" lon="8.126701">
        <ele>538.236422</ele>
        <time>2021-11-22T15:51:43.870Z</time>
      </trkpt>
      <trkpt lat="47.481879" lon="8.126325">
        <ele>537.772911</ele>
        <time>2021-11-22T15:51:47.274Z</time>
      </trkpt>
      <trkpt lat="47.481997" lon="8.125997">
        <ele>537.752621</ele>
        <time>2021-11-22T15:51:50.043Z</time>
      </trkpt>
      <trkpt lat="47.482507" lon="8.124964">
        <ele>537.682765</ele>
        <time>2021-11-22T15:52:03.541Z</time>
      </trkpt>
      <trkpt lat="47.482747" lon="8.124448">
        <ele>537.648560</ele>
        <time>2021-11-22T15:52:10.611Z</time>
      </trkpt>
      <trkpt lat="47.482968" lon="8.123897">
        <ele>537.637790</ele>
        <time>2021-11-22T15:52:17.617Z</time>
      </trkpt>
      <trkpt lat="47.483204" lon="8.123277">
        <ele>537.664474</ele>
        <time>2021-11-22T15:52:24.376Z</time>
      </trkpt>
      <trkpt lat="47.483395" lon="8.122774">
        <ele>537.686109</ele>
        <time>2021-11-22T15:52:30.084Z</time>
      </trkpt>
      <trkpt lat="47.483715" lon="8.122061">
        <ele>537.718205</ele>
        <time>2021-11-22T15:52:38.463Z</time>
      </trkpt>
      <trkpt lat="47.483747" lon="8.122015">
        <ele>537.720681</ele>
        <time>2021-11-22T15:52:38.931Z</time>
      </trkpt>
      <trkpt lat="47.483830" lon="8.121913">
        <ele>537.726667</ele>
        <time>2021-11-22T15:52:41.132Z</time>
      </trkpt>
      <trkpt lat="47.483946" lon="8.121799">
        <ele>537.749764</ele>
        <time>2021-11-22T15:52:43.826Z</time>
      </trkpt>
      <trkpt lat="47.484027" lon="8.121739">
        <ele>537.766388</ele>
        <time>2021-11-22T15:52:45.021Z</time>
      </trkpt>
      <trkpt lat="47.484058" lon="8.121717">
        <ele>537.772697</ele>
        <time>2021-11-22T15:52:45.417Z</time>
      </trkpt>
      <trkpt lat="47.484367" lon="8.121479">
        <ele>537.836629</ele>
        <time>2021-11-22T15:52:51.006Z</time>
      </trkpt>
      <trkpt lat="47.484520" lon="8.121330">
        <ele>537.870244</ele>
        <time>2021-11-22T15:52:54.576Z</time>
      </trkpt>
      <trkpt lat="47.484688" lon="8.121120">
        <ele>537.910604</ele>
        <time>2021-11-22T15:52:57.850Z</time>
      </trkpt>
      <trkpt lat="47.484812" lon="8.120917">
        <ele>537.944541</ele>
        <time>2021-11-22T15:53:01.354Z</time>
      </trkpt>
      <trkpt lat="47.484889" lon="8.120748">
        <ele>537.969820</ele>
        <time>2021-11-22T15:53:03.021Z</time>
      </trkpt>
      <trkpt lat="47.485011" lon="8.120456">
        <ele>538.012397</ele>
        <time>2021-11-22T15:53:07.183Z</time>
      </trkpt>
      <trkpt lat="47.485363" lon="8.119586">
        <ele>536.437924</ele>
        <time>2021-11-22T15:53:16.668Z</time>
      </trkpt>
      <trkpt lat="47.485564" lon="8.119205">
        <ele>535.229050</ele>
        <time>2021-11-22T15:53:20.549Z</time>
      </trkpt>
      <trkpt lat="47.486268" lon="8.118191">
        <ele>531.593133</ele>
        <time>2021-11-22T15:53:29.818Z</time>
      </trkpt>
      <trkpt lat="47.486571" lon="8.117656">
        <ele>526.817004</ele>
        <time>2021-11-22T15:53:33.941Z</time>
      </trkpt>
      <trkpt lat="47.486845" lon="8.117095">
        <ele>521.709652</ele>
        <time>2021-11-22T15:53:37.912Z</time>
      </trkpt>
      <trkpt lat="47.487583" lon="8.115667">
        <ele>508.172039</ele>
        <time>2021-11-22T15:53:48.142Z</time>
      </trkpt>
      <trkpt lat="47.487657" lon="8.115463">
        <ele>506.323090</ele>
        <time>2021-11-22T15:53:49.448Z</time>
      </trkpt>
      <trkpt lat="47.487880" lon="8.114431">
        <ele>497.670830</ele>
        <time>2021-11-22T15:53:55.636Z</time>
      </trkpt>
      <trkpt lat="47.487946" lon="8.113698">
        <ele>491.765647</ele>
        <time>2021-11-22T15:53:59.902Z</time>
      </trkpt>
      <trkpt lat="47.487928" lon="8.112601">
        <ele>484.046827</ele>
        <time>2021-11-22T15:54:06.275Z</time>
      </trkpt>
      <trkpt lat="47.487873" lon="8.112054">
        <ele>480.245023</ele>
        <time>2021-11-22T15:54:09.491Z</time>
      </trkpt>
      <trkpt lat="47.487816" lon="8.111427">
        <ele>475.895817</ele>
        <time>2021-11-22T15:54:13.167Z</time>
      </trkpt>
      <trkpt lat="47.487784" lon="8.111079">
        <ele>473.481405</ele>
        <time>2021-11-22T15:54:15.208Z</time>
      </trkpt>
      <trkpt lat="47.487750" lon="8.110724">
        <ele>471.110894</ele>
        <time>2021-11-22T15:54:17.295Z</time>
      </trkpt>
      <trkpt lat="47.487704" lon="8.110209">
        <ele>467.822435</ele>
        <time>2021-11-22T15:54:20.316Z</time>
      </trkpt>
      <trkpt lat="47.487592" lon="8.108945">
        <ele>459.752434</ele>
        <time>2021-11-22T15:54:27.755Z</time>
      </trkpt>
      <trkpt lat="47.487522" lon="8.108181">
        <ele>455.042752</ele>
        <time>2021-11-22T15:54:32.324Z</time>
      </trkpt>
      <trkpt lat="47.487504" lon="8.107922">
        <ele>453.972896</ele>
        <time>2021-11-22T15:54:33.882Z</time>
      </trkpt>
      <trkpt lat="47.487488" lon="8.107690">
        <ele>453.014645</ele>
        <time>2021-11-22T15:54:35.289Z</time>
      </trkpt>
      <trkpt lat="47.487493" lon="8.107281">
        <ele>451.333770</ele>
        <time>2021-11-22T15:54:37.771Z</time>
      </trkpt>
      <trkpt lat="47.487526" lon="8.106968">
        <ele>450.032080</ele>
        <time>2021-11-22T15:54:39.688Z</time>
      </trkpt>
      <trkpt lat="47.487723" lon="8.106230">
        <ele>446.771584</ele>
        <time>2021-11-22T15:54:44.625Z</time>
      </trkpt>
      <trkpt lat="47.488025" lon="8.105557">
        <ele>444.041961</ele>
        <time>2021-11-22T15:54:49.792Z</time>
      </trkpt>
      <trkpt lat="47.488467" lon="8.104600">
        <ele>442.176020</ele>
        <time>2021-11-22T15:55:01.811Z</time>
      </trkpt>
      <trkpt lat="47.488623" lon="8.104263">
        <ele>441.518471</ele>
        <time>2021-11-22T15:55:04.536Z</time>
      </trkpt>
      <trkpt lat="47.488766" lon="8.103832">
        <ele>440.745574</ele>
        <time>2021-11-22T15:55:07.708Z</time>
      </trkpt>
      <trkpt lat="47.488863" lon="8.103453">
        <ele>440.053491</ele>
        <time>2021-11-22T15:55:11.228Z</time>
      </trkpt>
      <trkpt lat="47.488961" lon="8.102990">
        <ele>438.569104</ele>
        <time>2021-11-22T15:55:14.455Z</time>
      </trkpt>
      <trkpt lat="47.489160" lon="8.101908">
        <ele>435.138373</ele>
        <time>2021-11-22T15:55:22.091Z</time>
      </trkpt>
      <trkpt lat="47.489218" lon="8.101622">
        <ele>434.224821</ele>
        <time>2021-11-22T15:55:23.979Z</time>
      </trkpt>
      <trkpt lat="47.489406" lon="8.100900">
        <ele>431.870318</ele>
        <time>2021-11-22T15:55:28.611Z</time>
      </trkpt>
      <trkpt lat="47.489497" lon="8.100620">
        <ele>431.008557</ele>
        <time>2021-11-22T15:55:30.500Z</time>
      </trkpt>
      <trkpt lat="47.489550" lon="8.100488">
        <ele>430.582688</ele>
        <time>2021-11-22T15:55:31.456Z</time>
      </trkpt>
      <trkpt lat="47.489698" lon="8.100128">
        <ele>429.413922</ele>
        <time>2021-11-22T15:55:34.127Z</time>
      </trkpt>
      <trkpt lat="47.489912" lon="8.099621">
        <ele>427.755924</ele>
        <time>2021-11-22T15:55:38.163Z</time>
      </trkpt>
      <trkpt lat="47.489995" lon="8.099422">
        <ele>427.107309</ele>
        <time>2021-11-22T15:55:39.776Z</time>
      </trkpt>
      <trkpt lat="47.490321" lon="8.098647">
        <ele>424.594828</ele>
        <time>2021-11-22T15:55:46.185Z</time>
      </trkpt>
      <trkpt lat="47.490966" lon="8.097142">
        <ele>422.348610</ele>
        <time>2021-11-22T15:55:59.511Z</time>
      </trkpt>
      <trkpt lat="47.491323" lon="8.096311">
        <ele>421.129532</ele>
        <time>2021-11-22T15:56:07.220Z</time>
      </trkpt>
      <trkpt lat="47.491531" lon="8.095826">
        <ele>420.512883</ele>
        <time>2021-11-22T15:56:11.755Z</time>
      </trkpt>
      <trkpt lat="47.492222" lon="8.094030">
        <ele>418.263428</ele>
        <time>2021-11-22T15:56:27.751Z</time>
      </trkpt>
      <trkpt lat="47.492561" lon="8.093030">
        <ele>416.707106</ele>
        <time>2021-11-22T15:56:35.931Z</time>
      </trkpt>
      <trkpt lat="47.492761" lon="8.092455">
        <ele>415.807492</ele>
        <time>2021-11-22T15:56:40.684Z</time>
      </trkpt>
      <trkpt lat="47.492785" lon="8.092387">
        <ele>415.700773</ele>
        <time>2021-11-22T15:56:41.239Z</time>
      </trkpt>
      <trkpt lat="47.492908" lon="8.092021">
        <ele>415.132151</ele>
        <time>2021-11-22T15:56:44.238Z</time>
      </trkpt>
      <trkpt lat="47.492943" lon="8.091916">
        <ele>414.969284</ele>
        <time>2021-11-22T15:56:45.081Z</time>
      </trkpt>
      <trkpt lat="47.493004" lon="8.091715">
        <ele>414.666740</ele>
        <time>2021-11-22T15:56:46.832Z</time>
      </trkpt>
      <trkpt lat="47.493013" lon="8.091685">
        <ele>414.626571</ele>
        <time>2021-11-22T15:56:47.075Z</time>
      </trkpt>
      <trkpt lat="47.493111" lon="8.091365">
        <ele>414.196629</ele>
        <time>2021-11-22T15:56:49.582Z</time>
      </trkpt>
      <trkpt lat="47.493176" lon="8.091152">
        <ele>413.910622</ele>
        <time>2021-11-22T15:56:51.348Z</time>
      </trkpt>
      <trkpt lat="47.493199" lon="8.091055">
        <ele>413.784823</ele>
        <time>2021-11-22T15:56:52.056Z</time>
      </trkpt>
      <trkpt lat="47.493278" lon="8.090706">
        <ele>413.334410</ele>
        <time>2021-11-22T15:56:54.851Z</time>
      </trkpt>
      <trkpt lat="47.493318" lon="8.090521">
        <ele>413.096711</ele>
        <time>2021-11-22T15:56:56.198Z</time>
      </trkpt>
      <trkpt lat="47.493362" lon="8.090313">
        <ele>412.829992</ele>
        <time>2021-11-22T15:56:57.871Z</time>
      </trkpt>
      <trkpt lat="47.493381" lon="8.090217">
        <ele>412.707577</ele>
        <time>2021-11-22T15:56:58.642Z</time>
      </trkpt>
      <trkpt lat="47.493453" lon="8.089837">
        <ele>412.224622</ele>
        <time>2021-11-22T15:57:01.574Z</time>
      </trkpt>
      <trkpt lat="47.493523" lon="8.089470">
        <ele>411.757963</ele>
        <time>2021-11-22T15:57:04.529Z</time>
      </trkpt>
      <trkpt lat="47.493532" lon="8.089427">
        <ele>411.702876</ele>
        <time>2021-11-22T15:57:04.908Z</time>
      </trkpt>
      <trkpt lat="47.493802" lon="8.088286">
        <ele>410.496014</ele>
        <time>2021-11-22T15:57:14.891Z</time>
      </trkpt>
      <trkpt lat="47.493891" lon="8.087911">
        <ele>410.118768</ele>
        <time>2021-11-22T15:57:17.988Z</time>
      </trkpt>
      <trkpt lat="47.494042" lon="8.087271">
        <ele>409.475351</ele>
        <time>2021-11-22T15:57:23.290Z</time>
      </trkpt>
      <trkpt lat="47.494237" lon="8.086449">
        <ele>408.560430</ele>
        <time>2021-11-22T15:57:29.943Z</time>
      </trkpt>
      <trkpt lat="47.494445" lon="8.085612">
        <ele>407.430695</ele>
        <time>2021-11-22T15:57:36.770Z</time>
      </trkpt>
      <trkpt lat="47.494640" lon="8.084828">
        <ele>406.372389</ele>
        <time>2021-11-22T15:57:43.095Z</time>
      </trkpt>
      <trkpt lat="47.494652" lon="8.084779">
        <ele>406.306365</ele>
        <time>2021-11-22T15:57:43.483Z</time>
      </trkpt>
      <trkpt lat="47.494666" lon="8.084717">
        <ele>406.223555</ele>
        <time>2021-11-22T15:57:43.955Z</time>
      </trkpt>
      <trkpt lat="47.494749" lon="8.084368">
        <ele>405.754865</ele>
        <time>2021-11-22T15:57:46.655Z</time>
      </trkpt>
      <trkpt lat="47.494822" lon="8.084015">
        <ele>405.302814</ele>
        <time>2021-11-22T15:57:49.290Z</time>
      </trkpt>
      <trkpt lat="47.494898" lon="8.083514">
        <ele>404.692600</ele>
        <time>2021-11-22T15:57:52.971Z</time>
      </trkpt>
      <trkpt lat="47.494933" lon="8.083243">
        <ele>404.364711</ele>
        <time>2021-11-22T15:57:55.010Z</time>
      </trkpt>
      <trkpt lat="47.494963" lon="8.083009">
        <ele>404.081663</ele>
        <time>2021-11-22T15:57:56.727Z</time>
      </trkpt>
      <trkpt lat="47.494982" lon="8.082826">
        <ele>403.861632</ele>
        <time>2021-11-22T15:57:58.126Z</time>
      </trkpt>
      <trkpt lat="47.495018" lon="8.082502">
        <ele>403.471417</ele>
        <time>2021-11-22T15:58:00.642Z</time>
      </trkpt>
      <trkpt lat="47.495034" lon="8.082354">
        <ele>403.293296</ele>
        <time>2021-11-22T15:58:01.832Z</time>
      </trkpt>
      <trkpt lat="47.495088" lon="8.082021">
        <ele>402.886320</ele>
        <time>2021-11-22T15:58:04.547Z</time>
      </trkpt>
      <trkpt lat="47.495132" lon="8.081754">
        <ele>402.559715</ele>
        <time>2021-11-22T15:58:06.809Z</time>
      </trkpt>
      <trkpt lat="47.495162" lon="8.081632">
        <ele>402.405426</ele>
        <time>2021-11-22T15:58:07.857Z</time>
      </trkpt>
      <trkpt lat="47.495207" lon="8.081445">
        <ele>402.304799</ele>
        <time>2021-11-22T15:58:09.430Z</time>
      </trkpt>
      <trkpt lat="47.495281" lon="8.081177">
        <ele>402.186476</ele>
        <time>2021-11-22T15:58:11.954Z</time>
      </trkpt>
      <trkpt lat="47.495292" lon="8.081144">
        <ele>402.171437</ele>
        <time>2021-11-22T15:58:12.239Z</time>
      </trkpt>
      <trkpt lat="47.495384" lon="8.080873">
        <ele>402.047487</ele>
        <time>2021-11-22T15:58:14.790Z</time>
      </trkpt>
      <trkpt lat="47.495515" lon="8.080558">
        <ele>401.896318</ele>
        <time>2021-11-22T15:58:18.231Z</time>
      </trkpt>
      <trkpt lat="47.495562" lon="8.080466">
        <ele>401.849180</ele>
        <time>2021-11-22T15:58:19.258Z</time>
      </trkpt>
      <trkpt lat="47.495681" lon="8.080229">
        <ele>401.728503</ele>
        <time>2021-11-22T15:58:21.925Z</time>
      </trkpt>
      <trkpt lat="47.495859" lon="8.079943">
        <ele>401.569585</ele>
        <time>2021-11-22T15:58:25.468Z</time>
      </trkpt>
      <trkpt lat="47.496040" lon="8.079701">
        <ele>401.422044</ele>
        <time>2021-11-22T15:58:28.814Z</time>
      </trkpt>
      <trkpt lat="47.496380" lon="8.079285">
        <ele>401.074840</ele>
        <time>2021-11-22T15:58:34.704Z</time>
      </trkpt>
      <trkpt lat="47.496536" lon="8.079094">
        <ele>400.878107</ele>
        <time>2021-11-22T15:58:37.440Z</time>
      </trkpt>
      <trkpt lat="47.496737" lon="8.078857">
        <ele>400.628389</ele>
        <time>2021-11-22T15:58:40.759Z</time>
      </trkpt>
      <trkpt lat="47.497084" lon="8.078448">
        <ele>400.197346</ele>
        <time>2021-11-22T15:58:46.289Z</time>
      </trkpt>
      <trkpt lat="47.497208" lon="8.078293">
        <ele>400.039631</ele>
        <time>2021-11-22T15:58:48.172Z</time>
      </trkpt>
      <trkpt lat="47.497325" lon="8.078131">
        <ele>399.883947</ele>
        <time>2021-11-22T15:58:50.041Z</time>
      </trkpt>
      <trkpt lat="47.497745" lon="8.077494">
        <ele>399.333832</ele>
        <time>2021-11-22T15:58:56.984Z</time>
      </trkpt>
      <trkpt lat="47.498061" lon="8.076857">
        <ele>398.888897</ele>
        <time>2021-11-22T15:59:03.035Z</time>
      </trkpt>
      <trkpt lat="47.498202" lon="8.076503">
        <ele>398.657533</ele>
        <time>2021-11-22T15:59:06.158Z</time>
      </trkpt>
      <trkpt lat="47.498775" lon="8.075058">
        <ele>398.354717</ele>
        <time>2021-11-22T15:59:23.537Z</time>
      </trkpt>
      <trkpt lat="47.498880" lon="8.074711">
        <ele>398.560112</ele>
        <time>2021-11-22T15:59:28.077Z</time>
      </trkpt>
      <trkpt lat="47.498960" lon="8.074378">
        <ele>398.751035</ele>
        <time>2021-11-22T15:59:33.102Z</time>
      </trkpt>
      <trkpt lat="47.499013" lon="8.074135">
        <ele>398.888976</ele>
        <time>2021-11-22T15:59:36.184Z</time>
      </trkpt>
      <trkpt lat="47.499051" lon="8.073942">
        <ele>398.997573</ele>
        <time>2021-11-22T15:59:39.391Z</time>
      </trkpt>
      <trkpt lat="47.499138" lon="8.073263">
        <ele>399.370911</ele>
        <time>2021-11-22T15:59:48.383Z</time>
      </trkpt>
      <trkpt lat="47.499170" lon="8.072504">
        <ele>399.054901</ele>
        <time>2021-11-22T15:59:58.721Z</time>
      </trkpt>
      <trkpt lat="47.499016" lon="8.069840">
        <ele>395.918660</ele>
        <time>2021-11-22T16:00:18.921Z</time>
      </trkpt>
      <trkpt lat="47.499026" lon="8.069468">
        <ele>394.913349</ele>
        <time>2021-11-22T16:00:21.313Z</time>
      </trkpt>
      <trkpt lat="47.499075" lon="8.068991">
        <ele>393.610497</ele>
        <time>2021-11-22T16:00:24.419Z</time>
      </trkpt>
      <trkpt lat="47.499104" lon="8.068766">
        <ele>392.991970</ele>
        <time>2021-11-22T16:00:25.888Z</time>
      </trkpt>
      <trkpt lat="47.499148" lon="8.068524">
        <ele>392.315246</ele>
        <time>2021-11-22T16:00:27.589Z</time>
      </trkpt>
      <trkpt lat="47.499201" lon="8.068229">
        <ele>391.490971</ele>
        <time>2021-11-22T16:00:29.478Z</time>
      </trkpt>
      <trkpt lat="47.499201" lon="8.068229">
        <ele>391.490971</ele>
        <time>2021-11-22T16:00:29.499Z</time>
      </trkpt>
      <trkpt lat="47.499519" lon="8.066520">
        <ele>387.547119</ele>
        <time>2021-11-22T16:00:41.061Z</time>
      </trkpt>
      <trkpt lat="47.499531" lon="8.066460">
        <ele>387.418061</ele>
        <time>2021-11-22T16:00:43.006Z</time>
      </trkpt>
      <trkpt lat="47.499591" lon="8.066154">
        <ele>386.760894</ele>
        <time>2021-11-22T16:00:44.988Z</time>
      </trkpt>
      <trkpt lat="47.499610" lon="8.066051">
        <ele>386.540681</ele>
        <time>2021-11-22T16:00:45.836Z</time>
      </trkpt>
      <trkpt lat="47.499668" lon="8.065730">
        <ele>385.855352</ele>
        <time>2021-11-22T16:00:49.611Z</time>
      </trkpt>
      <trkpt lat="47.499682" lon="8.065635">
        <ele>385.654808</ele>
        <time>2021-11-22T16:00:50.190Z</time>
      </trkpt>
      <trkpt lat="47.499770" lon="8.065082">
        <ele>384.713226</ele>
        <time>2021-11-22T16:00:54.857Z</time>
      </trkpt>
      <trkpt lat="47.499809" lon="8.064788">
        <ele>384.571810</ele>
        <time>2021-11-22T16:00:58.925Z</time>
      </trkpt>
      <trkpt lat="47.499832" lon="8.064625">
        <ele>384.493216</ele>
        <time>2021-11-22T16:01:00.030Z</time>
      </trkpt>
      <trkpt lat="47.499921" lon="8.063941">
        <ele>384.164441</ele>
        <time>2021-11-22T16:01:05.933Z</time>
      </trkpt>
      <trkpt lat="47.499972" lon="8.063575">
        <ele>383.988056</ele>
        <time>2021-11-22T16:01:10.073Z</time>
      </trkpt>
      <trkpt lat="47.500065" lon="8.063116">
        <ele>383.761880</ele>
        <time>2021-11-22T16:01:14.148Z</time>
      </trkpt>
      <trkpt lat="47.500111" lon="8.062899">
        <ele>383.654535</ele>
        <time>2021-11-22T16:01:16.564Z</time>
      </trkpt>
      <trkpt lat="47.500321" lon="8.061955">
        <ele>383.029460</ele>
        <time>2021-11-22T16:01:25.112Z</time>
      </trkpt>
      <trkpt lat="47.500357" lon="8.061762">
        <ele>382.891539</ele>
        <time>2021-11-22T16:01:26.576Z</time>
      </trkpt>
      <trkpt lat="47.500421" lon="8.061418">
        <ele>382.645755</ele>
        <time>2021-11-22T16:01:30.098Z</time>
      </trkpt>
      <trkpt lat="47.500438" lon="8.061324">
        <ele>382.578724</ele>
        <time>2021-11-22T16:01:30.696Z</time>
      </trkpt>
      <trkpt lat="47.500538" lon="8.060723">
        <ele>382.152358</ele>
        <time>2021-11-22T16:01:35.973Z</time>
      </trkpt>
      <trkpt lat="47.500573" lon="8.060533">
        <ele>382.016700</ele>
        <time>2021-11-22T16:01:37.809Z</time>
      </trkpt>
      <trkpt lat="47.500588" lon="8.060437">
        <ele>381.948825</ele>
        <time>2021-11-22T16:01:38.555Z</time>
      </trkpt>
      <trkpt lat="47.500604" lon="8.060344">
        <ele>381.882719</ele>
        <time>2021-11-22T16:01:39.252Z</time>
      </trkpt>
      <trkpt lat="47.500708" lon="8.059752">
        <ele>381.715734</ele>
        <time>2021-11-22T16:01:44.012Z</time>
      </trkpt>
      <trkpt lat="47.500919" lon="8.058927">
        <ele>381.781183</ele>
        <time>2021-11-22T16:01:52.004Z</time>
      </trkpt>
      <trkpt lat="47.501139" lon="8.058076">
        <ele>381.848786</ele>
        <time>2021-11-22T16:02:01.972Z</time>
      </trkpt>
      <trkpt lat="47.501265" lon="8.057592">
        <ele>381.887270</ele>
        <time>2021-11-22T16:02:09.098Z</time>
      </trkpt>
      <trkpt lat="47.501287" lon="8.057595">
        <ele>381.902589</ele>
        <time>2021-11-22T16:02:09.558Z</time>
      </trkpt>
      <trkpt lat="47.501352" lon="8.057560">
        <ele>381.994233</ele>
        <time>2021-11-22T16:02:10.919Z</time>
      </trkpt>
      <trkpt lat="47.501377" lon="8.057505">
        <ele>382.053570</ele>
        <time>2021-11-22T16:02:11.827Z</time>
      </trkpt>
      <trkpt lat="47.501386" lon="8.057452">
        <ele>382.102487</ele>
        <time>2021-11-22T16:02:12.809Z</time>
      </trkpt>
      <trkpt lat="47.501371" lon="8.057371">
        <ele>382.177666</ele>
        <time>2021-11-22T16:02:13.910Z</time>
      </trkpt>
      <trkpt lat="47.501356" lon="8.057344">
        <ele>382.208956</ele>
        <time>2021-11-22T16:02:14.644Z</time>
      </trkpt>
      <trkpt lat="47.501459" lon="8.056906">
        <ele>382.624089</ele>
        <time>2021-11-22T16:02:21.544Z</time>
      </trkpt>
      <trkpt lat="47.501717" lon="8.055892">
        <ele>383.593969</ele>
        <time>2021-11-22T16:02:37.902Z</time>
      </trkpt>
      <trkpt lat="47.501751" lon="8.055654">
        <ele>383.811715</ele>
        <time>2021-11-22T16:02:41.599Z</time>
      </trkpt>
      <trkpt lat="47.501784" lon="8.055340">
        <ele>384.096159</ele>
        <time>2021-11-22T16:02:45.383Z</time>
      </trkpt>
      <trkpt lat="47.501806" lon="8.054996">
        <ele>384.093920</ele>
        <time>2021-11-22T16:02:49.477Z</time>
      </trkpt>
      <trkpt lat="47.501851" lon="8.054393">
        <ele>383.372346</ele>
        <time>2021-11-22T16:02:54.766Z</time>
      </trkpt>
      <trkpt lat="47.501857" lon="8.054265">
        <ele>383.219736</ele>
        <time>2021-11-22T16:02:55.704Z</time>
      </trkpt>
      <trkpt lat="47.501902" lon="8.053573">
        <ele>382.392865</ele>
        <time>2021-11-22T16:03:01.068Z</time>
      </trkpt>
      <trkpt lat="47.501923" lon="8.053252">
        <ele>382.009281</ele>
        <time>2021-11-22T16:03:03.386Z</time>
      </trkpt>
      <trkpt lat="47.502020" lon="8.051188">
        <ele>378.020471</ele>
        <time>2021-11-22T16:03:17.303Z</time>
      </trkpt>
      <trkpt lat="47.502094" lon="8.049547">
        <ele>374.332758</ele>
        <time>2021-11-22T16:03:28.331Z</time>
      </trkpt>
      <trkpt lat="47.502090" lon="8.048236">
        <ele>372.092872</ele>
        <time>2021-11-22T16:03:37.573Z</time>
      </trkpt>
      <trkpt lat="47.502044" lon="8.047705">
        <ele>371.178222</ele>
        <time>2021-11-22T16:03:41.510Z</time>
      </trkpt>
      <trkpt lat="47.502029" lon="8.047540">
        <ele>370.893776</ele>
        <time>2021-11-22T16:03:42.709Z</time>
      </trkpt>
      <trkpt lat="47.501759" lon="8.046002">
        <ele>369.214032</ele>
        <time>2021-11-22T16:03:55.017Z</time>
      </trkpt>
      <trkpt lat="47.501515" lon="8.044851">
        <ele>368.167956</ele>
        <time>2021-11-22T16:04:05.045Z</time>
      </trkpt>
      <trkpt lat="47.501358" lon="8.044092">
        <ele>367.324227</ele>
        <time>2021-11-22T16:04:11.598Z</time>
      </trkpt>
      <trkpt lat="47.501234" lon="8.043345">
        <ele>366.446782</ele>
        <time>2021-11-22T16:04:17.657Z</time>
      </trkpt>
      <trkpt lat="47.501123" lon="8.042252">
        <ele>365.185992</ele>
        <time>2021-11-22T16:04:25.869Z</time>
      </trkpt>
      <trkpt lat="47.501065" lon="8.041677">
        <ele>364.427534</ele>
        <time>2021-11-22T16:04:30.020Z</time>
      </trkpt>
      <trkpt lat="47.501009" lon="8.040934">
        <ele>363.377728</ele>
        <time>2021-11-22T16:04:35.302Z</time>
      </trkpt>
      <trkpt lat="47.501026" lon="8.040085">
        <ele>362.185023</ele>
        <time>2021-11-22T16:04:41.412Z</time>
      </trkpt>
      <trkpt lat="47.501083" lon="8.039040">
        <ele>361.140375</ele>
        <time>2021-11-22T16:04:49.678Z</time>
      </trkpt>
      <trkpt lat="47.501120" lon="8.039033">
        <ele>361.131347</ele>
        <time>2021-11-22T16:04:50.168Z</time>
      </trkpt>
      <trkpt lat="47.501198" lon="8.038918">
        <ele>361.104699</ele>
        <time>2021-11-22T16:04:51.635Z</time>
      </trkpt>
      <trkpt lat="47.501143" lon="8.038725">
        <ele>361.070447</ele>
        <time>2021-11-22T16:04:53.407Z</time>
      </trkpt>
      <trkpt lat="47.501107" lon="8.038707">
        <ele>361.061249</ele>
        <time>2021-11-22T16:04:53.855Z</time>
      </trkpt>
      <trkpt lat="47.501117" lon="8.038538">
        <ele>361.033508</ele>
        <time>2021-11-22T16:04:55.403Z</time>
      </trkpt>
      <trkpt lat="47.501141" lon="8.038290">
        <ele>360.992541</ele>
        <time>2021-11-22T16:04:57.742Z</time>
      </trkpt>
      <trkpt lat="47.501181" lon="8.037704">
        <ele>360.896230</ele>
        <time>2021-11-22T16:05:03.745Z</time>
      </trkpt>
      <trkpt lat="47.501269" lon="8.036713">
        <ele>360.752230</ele>
        <time>2021-11-22T16:05:15.562Z</time>
      </trkpt>
      <trkpt lat="47.501430" lon="8.035235">
        <ele>360.673977</ele>
        <time>2021-11-22T16:05:31.904Z</time>
      </trkpt>
      <trkpt lat="47.501536" lon="8.034699">
        <ele>360.644785</ele>
        <time>2021-11-22T16:05:36.877Z</time>
      </trkpt>
      <trkpt lat="47.501641" lon="8.034168">
        <ele>360.520504</ele>
        <time>2021-11-22T16:05:41.449Z</time>
      </trkpt>
      <trkpt lat="47.501669" lon="8.033986">
        <ele>360.363929</ele>
        <time>2021-11-22T16:05:42.942Z</time>
      </trkpt>
      <trkpt lat="47.501698" lon="8.034000">
        <ele>360.326054</ele>
        <time>2021-11-22T16:05:43.274Z</time>
      </trkpt>
      <trkpt lat="47.501807" lon="8.033950">
        <ele>360.184364</ele>
        <time>2021-11-22T16:05:44.737Z</time>
      </trkpt>
      <trkpt lat="47.501827" lon="8.033911">
        <ele>360.143292</ele>
        <time>2021-11-22T16:05:45.108Z</time>
      </trkpt>
      <trkpt lat="47.501840" lon="8.033865">
        <ele>360.101466</ele>
        <time>2021-11-22T16:05:45.563Z</time>
      </trkpt>
      <trkpt lat="47.501821" lon="8.033715">
        <ele>359.973450</ele>
        <time>2021-11-22T16:05:46.761Z</time>
      </trkpt>
      <trkpt lat="47.501785" lon="8.033665">
        <ele>359.912154</ele>
        <time>2021-11-22T16:05:47.362Z</time>
      </trkpt>
      <trkpt lat="47.501831" lon="8.033540">
        <ele>359.792754</ele>
        <time>2021-11-22T16:05:48.512Z</time>
      </trkpt>
      <trkpt lat="47.501972" lon="8.033162">
        <ele>359.430556</ele>
        <time>2021-11-22T16:05:51.922Z</time>
      </trkpt>
      <trkpt lat="47.502050" lon="8.032952">
        <ele>359.229535</ele>
        <time>2021-11-22T16:05:53.855Z</time>
      </trkpt>
      <trkpt lat="47.502124" lon="8.032765">
        <ele>359.047746</ele>
        <time>2021-11-22T16:05:55.527Z</time>
      </trkpt>
      <trkpt lat="47.502278" lon="8.032378">
        <ele>358.670993</ele>
        <time>2021-11-22T16:05:58.985Z</time>
      </trkpt>
      <trkpt lat="47.502589" lon="8.031477">
        <ele>357.826148</ele>
        <time>2021-11-22T16:06:06.870Z</time>
      </trkpt>
      <trkpt lat="47.503055" lon="8.030264">
        <ele>356.663638</ele>
        <time>2021-11-22T16:06:18.067Z</time>
      </trkpt>
      <trkpt lat="47.503408" lon="8.029412">
        <ele>355.985189</ele>
        <time>2021-11-22T16:06:26.433Z</time>
      </trkpt>
      <trkpt lat="47.503617" lon="8.028907">
        <ele>355.715676</ele>
        <time>2021-11-22T16:06:31.431Z</time>
      </trkpt>
      <trkpt lat="47.503672" lon="8.028775">
        <ele>355.645099</ele>
        <time>2021-11-22T16:06:32.773Z</time>
      </trkpt>
      <trkpt lat="47.504063" lon="8.027828">
        <ele>355.140025</ele>
        <time>2021-11-22T16:06:42.569Z</time>
      </trkpt>
      <trkpt lat="47.504221" lon="8.027444">
        <ele>354.938402</ele>
        <time>2021-11-22T16:06:46.688Z</time>
      </trkpt>
      <trkpt lat="47.504606" lon="8.026545">
        <ele>354.514893</ele>
        <time>2021-11-22T16:06:56.595Z</time>
      </trkpt>
      <trkpt lat="47.504614" lon="8.026525">
        <ele>354.505646</ele>
        <time>2021-11-22T16:06:56.757Z</time>
      </trkpt>
      <trkpt lat="47.504641" lon="8.026538">
        <ele>354.488923</ele>
        <time>2021-11-22T16:06:57.184Z</time>
      </trkpt>
      <trkpt lat="47.504663" lon="8.026539">
        <ele>354.475960</ele>
        <time>2021-11-22T16:06:57.503Z</time>
      </trkpt>
      <trkpt lat="47.504689" lon="8.026530">
        <ele>354.460233</ele>
        <time>2021-11-22T16:06:57.890Z</time>
      </trkpt>
      <trkpt lat="47.504716" lon="8.026506">
        <ele>354.441684</ele>
        <time>2021-11-22T16:06:58.299Z</time>
      </trkpt>
      <trkpt lat="47.504737" lon="8.026462">
        <ele>354.420249</ele>
        <time>2021-11-22T16:06:58.784Z</time>
      </trkpt>
      <trkpt lat="47.504744" lon="8.026435">
        <ele>354.408743</ele>
        <time>2021-11-22T16:06:59.038Z</time>
      </trkpt>
      <trkpt lat="47.504745" lon="8.026393">
        <ele>354.392022</ele>
        <time>2021-11-22T16:06:59.409Z</time>
      </trkpt>
      <trkpt lat="47.504733" lon="8.026338">
        <ele>354.369026</ele>
        <time>2021-11-22T16:06:59.913Z</time>
      </trkpt>
      <trkpt lat="47.504704" lon="8.026294">
        <ele>354.344567</ele>
        <time>2021-11-22T16:07:00.442Z</time>
      </trkpt>
      <trkpt lat="47.504725" lon="8.026244">
        <ele>354.321142</ele>
        <time>2021-11-22T16:07:00.992Z</time>
      </trkpt>
      <trkpt lat="47.504760" lon="8.026163">
        <ele>354.282886</ele>
        <time>2021-11-22T16:07:01.777Z</time>
      </trkpt>
      <trkpt lat="47.504823" lon="8.026024">
        <ele>354.216287</ele>
        <time>2021-11-22T16:07:03.282Z</time>
      </trkpt>
      <trkpt lat="47.505192" lon="8.025207">
        <ele>353.701308</ele>
        <time>2021-11-22T16:07:11.633Z</time>
      </trkpt>
      <trkpt lat="47.505559" lon="8.024486">
        <ele>352.744909</ele>
        <time>2021-11-22T16:07:18.897Z</time>
      </trkpt>
      <trkpt lat="47.505612" lon="8.024383">
        <ele>352.607740</ele>
        <time>2021-11-22T16:07:19.924Z</time>
      </trkpt>
      <trkpt lat="47.505697" lon="8.024216">
        <ele>352.386222</ele>
        <time>2021-11-22T16:07:21.495Z</time>
      </trkpt>
      <trkpt lat="47.505883" lon="8.023827">
        <ele>351.881327</ele>
        <time>2021-11-22T16:07:25.103Z</time>
      </trkpt>
      <trkpt lat="47.506199" lon="8.023103">
        <ele>350.899351</ele>
        <time>2021-11-22T16:07:31.475Z</time>
      </trkpt>
      <trkpt lat="47.506232" lon="8.023038">
        <ele>350.759765</ele>
        <time>2021-11-22T16:07:32.067Z</time>
      </trkpt>
      <trkpt lat="47.506258" lon="8.022985">
        <ele>350.647319</ele>
        <time>2021-11-22T16:07:32.542Z</time>
      </trkpt>
      <trkpt lat="47.506468" lon="8.022553">
        <ele>349.733648</ele>
        <time>2021-11-22T16:07:36.389Z</time>
      </trkpt>
      <trkpt lat="47.506535" lon="8.022414">
        <ele>349.440510</ele>
        <time>2021-11-22T16:07:37.592Z</time>
      </trkpt>
      <trkpt lat="47.506621" lon="8.022234">
        <ele>349.062029</ele>
        <time>2021-11-22T16:07:39.183Z</time>
      </trkpt>
      <trkpt lat="47.506655" lon="8.022123">
        <ele>348.852803</ele>
        <time>2021-11-22T16:07:40.046Z</time>
      </trkpt>
      <trkpt lat="47.506678" lon="8.022015">
        <ele>348.658406</ele>
        <time>2021-11-22T16:07:40.828Z</time>
      </trkpt>
      <trkpt lat="47.506735" lon="8.021861">
        <ele>348.356954</ele>
        <time>2021-11-22T16:07:42.069Z</time>
      </trkpt>
      <trkpt lat="47.506867" lon="8.021604">
        <ele>347.802722</ele>
        <time>2021-11-22T16:07:44.298Z</time>
      </trkpt>
      <trkpt lat="47.506910" lon="8.021529">
        <ele>347.633849</ele>
        <time>2021-11-22T16:07:44.969Z</time>
      </trkpt>
      <trkpt lat="47.506949" lon="8.021459">
        <ele>347.478083</ele>
        <time>2021-11-22T16:07:45.624Z</time>
      </trkpt>
      <trkpt lat="47.507007" lon="8.021362">
        <ele>347.255701</ele>
        <time>2021-11-22T16:07:46.525Z</time>
      </trkpt>
      <trkpt lat="47.507213" lon="8.021061">
        <ele>346.520134</ele>
        <time>2021-11-22T16:07:49.527Z</time>
      </trkpt>
      <trkpt lat="47.507466" lon="8.020697">
        <ele>345.942317</ele>
        <time>2021-11-22T16:07:53.245Z</time>
      </trkpt>
      <trkpt lat="47.507609" lon="8.020484">
        <ele>345.612566</ele>
        <time>2021-11-22T16:07:55.441Z</time>
      </trkpt>
      <trkpt lat="47.507666" lon="8.020400">
        <ele>345.481828</ele>
        <time>2021-11-22T16:07:56.330Z</time>
      </trkpt>
      <trkpt lat="47.507863" lon="8.020075">
        <ele>345.002350</ele>
        <time>2021-11-22T16:07:59.670Z</time>
      </trkpt>
      <trkpt lat="47.507951" lon="8.019911">
        <ele>344.772370</ele>
        <time>2021-11-22T16:08:01.335Z</time>
      </trkpt>
      <trkpt lat="47.508029" lon="8.019761">
        <ele>344.564514</ele>
        <time>2021-11-22T16:08:02.770Z</time>
      </trkpt>
      <trkpt lat="47.508075" lon="8.019669">
        <ele>344.438832</ele>
        <time>2021-11-22T16:08:03.699Z</time>
      </trkpt>
      <trkpt lat="47.508117" lon="8.019584">
        <ele>344.323194</ele>
        <time>2021-11-22T16:08:04.531Z</time>
      </trkpt>
      <trkpt lat="47.508273" lon="8.019268">
        <ele>343.893428</ele>
        <time>2021-11-22T16:08:07.735Z</time>
      </trkpt>
      <trkpt lat="47.508403" lon="8.018982">
        <ele>343.591602</ele>
        <time>2021-11-22T16:08:10.683Z</time>
      </trkpt>
      <trkpt lat="47.508436" lon="8.018909">
        <ele>343.601677</ele>
        <time>2021-11-22T16:08:11.429Z</time>
      </trkpt>
      <trkpt lat="47.508505" lon="8.018716">
        <ele>343.626721</ele>
        <time>2021-11-22T16:08:13.380Z</time>
      </trkpt>
      <trkpt lat="47.508517" lon="8.018677">
        <ele>343.631636</ele>
        <time>2021-11-22T16:08:13.792Z</time>
      </trkpt>
      <trkpt lat="47.508544" lon="8.018690">
        <ele>343.636457</ele>
        <time>2021-11-22T16:08:14.247Z</time>
      </trkpt>
      <trkpt lat="47.508639" lon="8.018617">
        <ele>343.654631</ele>
        <time>2021-11-22T16:08:15.694Z</time>
      </trkpt>
      <trkpt lat="47.508635" lon="8.018495">
        <ele>343.668640</ele>
        <time>2021-11-22T16:08:16.786Z</time>
      </trkpt>
      <trkpt lat="47.508617" lon="8.018463">
        <ele>343.673416</ele>
        <time>2021-11-22T16:08:17.223Z</time>
      </trkpt>
      <trkpt lat="47.508636" lon="8.018423">
        <ele>343.679024</ele>
        <time>2021-11-22T16:08:17.721Z</time>
      </trkpt>
      <trkpt lat="47.508699" lon="8.018304">
        <ele>343.696365</ele>
        <time>2021-11-22T16:08:19.386Z</time>
      </trkpt>
      <trkpt lat="47.508805" lon="8.018141">
        <ele>343.722315</ele>
        <time>2021-11-22T16:08:21.765Z</time>
      </trkpt>
      <trkpt lat="47.508896" lon="8.018035">
        <ele>343.741975</ele>
        <time>2021-11-22T16:08:23.643Z</time>
      </trkpt>
      <trkpt lat="47.508988" lon="8.017959">
        <ele>343.759863</ele>
        <time>2021-11-22T16:08:25.543Z</time>
      </trkpt>
      <trkpt lat="47.509105" lon="8.017861">
        <ele>343.782688</ele>
        <time>2021-11-22T16:08:27.746Z</time>
      </trkpt>
      <trkpt lat="47.509253" lon="8.017765">
        <ele>343.810124</ele>
        <time>2021-11-22T16:08:30.529Z</time>
      </trkpt>
      <trkpt lat="47.509437" lon="8.017668">
        <ele>343.843287</ele>
        <time>2021-11-22T16:08:33.949Z</time>
      </trkpt>
      <trkpt lat="47.509596" lon="8.017609">
        <ele>343.871119</ele>
        <time>2021-11-22T16:08:36.799Z</time>
      </trkpt>
      <trkpt lat="47.509728" lon="8.017576">
        <ele>343.902048</ele>
        <time>2021-11-22T16:08:39.224Z</time>
      </trkpt>
      <trkpt lat="47.509872" lon="8.017541">
        <ele>343.976319</ele>
        <time>2021-11-22T16:08:41.781Z</time>
      </trkpt>
      <trkpt lat="47.510117" lon="8.017458">
        <ele>344.104238</ele>
        <time>2021-11-22T16:08:46.319Z</time>
      </trkpt>
      <trkpt lat="47.510624" lon="8.017217">
        <ele>344.375255</ele>
        <time>2021-11-22T16:08:55.812Z</time>
      </trkpt>
      <trkpt lat="47.511079" lon="8.016999">
        <ele>344.618657</ele>
        <time>2021-11-22T16:09:03.833Z</time>
      </trkpt>
      <trkpt lat="47.511835" lon="8.016624">
        <ele>344.637801</ele>
        <time>2021-11-22T16:09:15.890Z</time>
      </trkpt>
      <trkpt lat="47.511937" lon="8.016578">
        <ele>344.596374</ele>
        <time>2021-11-22T16:09:17.562Z</time>
      </trkpt>
      <trkpt lat="47.512292" lon="8.016407">
        <ele>344.451333</ele>
        <time>2021-11-22T16:09:22.724Z</time>
      </trkpt>
      <trkpt lat="47.512572" lon="8.016270">
        <ele>344.336761</ele>
        <time>2021-11-22T16:09:26.628Z</time>
      </trkpt>
      <trkpt lat="47.512748" lon="8.016153">
        <ele>344.261805</ele>
        <time>2021-11-22T16:09:29.240Z</time>
      </trkpt>
      <trkpt lat="47.512943" lon="8.015998">
        <ele>344.175815</ele>
        <time>2021-11-22T16:09:32.098Z</time>
      </trkpt>
      <trkpt lat="47.513615" lon="8.015346">
        <ele>343.278280</ele>
        <time>2021-11-22T16:09:41.657Z</time>
      </trkpt>
      <trkpt lat="47.513872" lon="8.015092">
        <ele>342.868680</ele>
        <time>2021-11-22T16:09:45.164Z</time>
      </trkpt>
      <trkpt lat="47.513919" lon="8.015052">
        <ele>342.796818</ele>
        <time>2021-11-22T16:09:45.809Z</time>
      </trkpt>
      <trkpt lat="47.514036" lon="8.014936">
        <ele>342.610164</ele>
        <time>2021-11-22T16:09:47.435Z</time>
      </trkpt>
      <trkpt lat="47.514162" lon="8.014813">
        <ele>342.410106</ele>
        <time>2021-11-22T16:09:49.138Z</time>
      </trkpt>
      <trkpt lat="47.514464" lon="8.014550">
        <ele>341.945668</ele>
        <time>2021-11-22T16:09:53.217Z</time>
      </trkpt>
      <trkpt lat="47.514628" lon="8.014407">
        <ele>341.698425</ele>
        <time>2021-11-22T16:09:55.431Z</time>
      </trkpt>
      <trkpt lat="47.514746" lon="8.014292">
        <ele>341.544037</ele>
        <time>2021-11-22T16:09:57.075Z</time>
      </trkpt>
      <trkpt lat="47.515054" lon="8.014017">
        <ele>341.150968</ele>
        <time>2021-11-22T16:10:01.303Z</time>
      </trkpt>
      <trkpt lat="47.515263" lon="8.013836">
        <ele>340.886356</ele>
        <time>2021-11-22T16:10:04.192Z</time>
      </trkpt>
      <trkpt lat="47.515468" lon="8.013643">
        <ele>340.620863</ele>
        <time>2021-11-22T16:10:07.092Z</time>
      </trkpt>
      <trkpt lat="47.515487" lon="8.013682">
        <ele>340.585369</ele>
        <time>2021-11-22T16:10:07.461Z</time>
      </trkpt>
      <trkpt lat="47.515592" lon="8.013719">
        <ele>340.467412</ele>
        <time>2021-11-22T16:10:08.789Z</time>
      </trkpt>
      <trkpt lat="47.515625" lon="8.013694">
        <ele>340.426901</ele>
        <time>2021-11-22T16:10:09.214Z</time>
      </trkpt>
      <trkpt lat="47.515640" lon="8.013674">
        <ele>340.404841</ele>
        <time>2021-11-22T16:10:09.471Z</time>
      </trkpt>
      <trkpt lat="47.515666" lon="8.013522">
        <ele>340.289106</ele>
        <time>2021-11-22T16:10:10.780Z</time>
      </trkpt>
      <trkpt lat="47.515654" lon="8.013483">
        <ele>340.257473</ele>
        <time>2021-11-22T16:10:11.160Z</time>
      </trkpt>
      <trkpt lat="47.515686" lon="8.013458">
        <ele>340.217932</ele>
        <time>2021-11-22T16:10:11.559Z</time>
      </trkpt>
      <trkpt lat="47.516968" lon="8.012240">
        <ele>339.082995</ele>
        <time>2021-11-22T16:10:31.281Z</time>
      </trkpt>
      <trkpt lat="47.517220" lon="8.011958">
        <ele>338.889774</ele>
        <time>2021-11-22T16:10:35.523Z</time>
      </trkpt>
      <trkpt lat="47.517559" lon="8.011519">
        <ele>338.602860</ele>
        <time>2021-11-22T16:10:41.452Z</time>
      </trkpt>
      <trkpt lat="47.517842" lon="8.011140">
        <ele>338.305840</ele>
        <time>2021-11-22T16:10:46.345Z</time>
      </trkpt>
      <trkpt lat="47.518886" lon="8.009691">
        <ele>337.182820</ele>
        <time>2021-11-22T16:11:04.175Z</time>
      </trkpt>
      <trkpt lat="47.520570" lon="8.007346">
        <ele>335.392244</ele>
        <time>2021-11-22T16:11:32.929Z</time>
      </trkpt>
      <trkpt lat="47.524176" lon="8.002361">
        <ele>333.230175</ele>
        <time>2021-11-22T16:12:40.316Z</time>
      </trkpt>
      <trkpt lat="47.524655" lon="8.001699">
        <ele>332.630136</ele>
        <time>2021-11-22T16:12:48.432Z</time>
      </trkpt>
      <trkpt lat="47.524855" lon="8.001439">
        <ele>332.386410</ele>
        <time>2021-11-22T16:12:51.670Z</time>
      </trkpt>
      <trkpt lat="47.525162" lon="8.001004">
        <ele>331.997285</ele>
        <time>2021-11-22T16:12:56.603Z</time>
      </trkpt>
      <trkpt lat="47.526084" lon="8.000015">
        <ele>331.440362</ele>
        <time>2021-11-22T16:13:10.912Z</time>
      </trkpt>
      <trkpt lat="47.526401" lon="7.999417">
        <ele>331.274770</ele>
        <time>2021-11-22T16:13:18.225Z</time>
      </trkpt>
      <trkpt lat="47.526473" lon="7.999201">
        <ele>331.222303</ele>
        <time>2021-11-22T16:13:21.230Z</time>
      </trkpt>
      <trkpt lat="47.526730" lon="7.998233">
        <ele>331.215253</ele>
        <time>2021-11-22T16:13:32.085Z</time>
      </trkpt>
      <trkpt lat="47.526915" lon="7.997856">
        <ele>331.287116</ele>
        <time>2021-11-22T16:13:37.009Z</time>
      </trkpt>
      <trkpt lat="47.527213" lon="7.997459">
        <ele>331.378652</ele>
        <time>2021-11-22T16:13:43.934Z</time>
      </trkpt>
      <trkpt lat="47.527614" lon="7.997121">
        <ele>331.484018</ele>
        <time>2021-11-22T16:13:51.328Z</time>
      </trkpt>
      <trkpt lat="47.528128" lon="7.996500">
        <ele>331.357667</ele>
        <time>2021-11-22T16:14:01.066Z</time>
      </trkpt>
      <trkpt lat="47.528880" lon="7.995091">
        <ele>330.868931</ele>
        <time>2021-11-22T16:14:16.775Z</time>
      </trkpt>
      <trkpt lat="47.529180" lon="7.994531">
        <ele>330.611311</ele>
        <time>2021-11-22T16:14:23.259Z</time>
      </trkpt>
      <trkpt lat="47.529261" lon="7.994394">
        <ele>330.538723</ele>
        <time>2021-11-22T16:14:24.768Z</time>
      </trkpt>
      <trkpt lat="47.529350" lon="7.994228">
        <ele>330.454228</ele>
        <time>2021-11-22T16:14:26.600Z</time>
      </trkpt>
      <trkpt lat="47.530141" lon="7.992757">
        <ele>329.766351</ele>
        <time>2021-11-22T16:14:42.979Z</time>
      </trkpt>
      <trkpt lat="47.530495" lon="7.992103">
        <ele>329.904680</ele>
        <time>2021-11-22T16:14:51.097Z</time>
      </trkpt>
      <trkpt lat="47.530776" lon="7.991586">
        <ele>330.014209</ele>
        <time>2021-11-22T16:14:58.638Z</time>
      </trkpt>
      <trkpt lat="47.530933" lon="7.991310">
        <ele>330.073767</ele>
        <time>2021-11-22T16:15:02.387Z</time>
      </trkpt>
      <trkpt lat="47.530979" lon="7.991211">
        <ele>330.093599</ele>
        <time>2021-11-22T16:15:03.898Z</time>
      </trkpt>
      <trkpt lat="47.531095" lon="7.990976">
        <ele>330.141640</ele>
        <time>2021-11-22T16:15:07.232Z</time>
      </trkpt>
      <trkpt lat="47.531190" lon="7.990785">
        <ele>330.180789</ele>
        <time>2021-11-22T16:15:09.945Z</time>
      </trkpt>
      <trkpt lat="47.531363" lon="7.990436">
        <ele>330.424498</ele>
        <time>2021-11-22T16:15:15.081Z</time>
      </trkpt>
      <trkpt lat="47.531667" lon="7.989873">
        <ele>330.861974</ele>
        <time>2021-11-22T16:15:24.316Z</time>
      </trkpt>
      <trkpt lat="47.531823" lon="7.989607">
        <ele>331.075787</ele>
        <time>2021-11-22T16:15:28.322Z</time>
      </trkpt>
      <trkpt lat="47.531897" lon="7.989450">
        <ele>331.191981</ele>
        <time>2021-11-22T16:15:31.576Z</time>
      </trkpt>
      <trkpt lat="47.532014" lon="7.989225">
        <ele>331.364322</ele>
        <time>2021-11-22T16:15:34.386Z</time>
      </trkpt>
      <trkpt lat="47.532299" lon="7.988577">
        <ele>331.831761</ele>
        <time>2021-11-22T16:15:45.100Z</time>
      </trkpt>
      <trkpt lat="47.532373" lon="7.988399">
        <ele>331.950478</ele>
        <time>2021-11-22T16:15:48.379Z</time>
      </trkpt>
      <trkpt lat="47.532401" lon="7.988331">
        <ele>331.995712</ele>
        <time>2021-11-22T16:15:48.868Z</time>
      </trkpt>
      <trkpt lat="47.532464" lon="7.988171">
        <ele>332.100902</ele>
        <time>2021-11-22T16:15:52.018Z</time>
      </trkpt>
      <trkpt lat="47.532544" lon="7.987973">
        <ele>332.231947</ele>
        <time>2021-11-22T16:15:55.565Z</time>
      </trkpt>
      <trkpt lat="47.532621" lon="7.987826">
        <ele>332.337609</ele>
        <time>2021-11-22T16:15:56.998Z</time>
      </trkpt>
      <trkpt lat="47.532716" lon="7.987667">
        <ele>332.458188</ele>
        <time>2021-11-22T16:16:00.359Z</time>
      </trkpt>
      <trkpt lat="47.532879" lon="7.987447">
        <ele>332.643684</ele>
        <time>2021-11-22T16:16:03.657Z</time>
      </trkpt>
      <trkpt lat="47.533114" lon="7.987128">
        <ele>332.911814</ele>
        <time>2021-11-22T16:16:09.067Z</time>
      </trkpt>
      <trkpt lat="47.533208" lon="7.986980">
        <ele>333.027211</ele>
        <time>2021-11-22T16:16:12.430Z</time>
      </trkpt>
      <trkpt lat="47.533546" lon="7.986336">
        <ele>333.451684</ele>
        <time>2021-11-22T16:16:22.275Z</time>
      </trkpt>
      <trkpt lat="47.533975" lon="7.985526">
        <ele>333.905338</ele>
        <time>2021-11-22T16:16:33.703Z</time>
      </trkpt>
      <trkpt lat="47.534197" lon="7.985105">
        <ele>334.140733</ele>
        <time>2021-11-22T16:16:39.877Z</time>
      </trkpt>
      <trkpt lat="47.534320" lon="7.984882">
        <ele>334.267623</ele>
        <time>2021-11-22T16:16:43.094Z</time>
      </trkpt>
      <trkpt lat="47.534722" lon="7.984096">
        <ele>335.057593</ele>
        <time>2021-11-22T16:16:54.878Z</time>
      </trkpt>
      <trkpt lat="47.534817" lon="7.983835">
        <ele>335.408602</ele>
        <time>2021-11-22T16:16:58.824Z</time>
      </trkpt>
      <trkpt lat="47.535231" lon="7.982582">
        <ele>337.059978</ele>
        <time>2021-11-22T16:17:20.514Z</time>
      </trkpt>
      <trkpt lat="47.535300" lon="7.982379">
        <ele>337.329021</ele>
        <time>2021-11-22T16:17:24.278Z</time>
      </trkpt>
      <trkpt lat="47.535328" lon="7.982298">
        <ele>337.436745</ele>
        <time>2021-11-22T16:17:25.762Z</time>
      </trkpt>
      <trkpt lat="47.535345" lon="7.982248">
        <ele>337.503015</ele>
        <time>2021-11-22T16:17:26.653Z</time>
      </trkpt>
      <trkpt lat="47.535452" lon="7.981933">
        <ele>337.859778</ele>
        <time>2021-11-22T16:17:32.716Z</time>
      </trkpt>
      <trkpt lat="47.535599" lon="7.981498">
        <ele>338.308761</ele>
        <time>2021-11-22T16:17:40.992Z</time>
      </trkpt>
      <trkpt lat="47.536061" lon="7.980200">
        <ele>339.663080</ele>
        <time>2021-11-22T16:18:02.132Z</time>
      </trkpt>
      <trkpt lat="47.536340" lon="7.979418">
        <ele>339.598648</ele>
        <time>2021-11-22T16:18:10.668Z</time>
      </trkpt>
      <trkpt lat="47.536403" lon="7.979241">
        <ele>339.350033</ele>
        <time>2021-11-22T16:18:12.202Z</time>
      </trkpt>
      <trkpt lat="47.536460" lon="7.979083">
        <ele>339.127448</ele>
        <time>2021-11-22T16:18:13.577Z</time>
      </trkpt>
      <trkpt lat="47.536866" lon="7.977996">
        <ele>337.583941</ele>
        <time>2021-11-22T16:18:22.641Z</time>
      </trkpt>
      <trkpt lat="47.537147" lon="7.977266">
        <ele>336.423453</ele>
        <time>2021-11-22T16:18:28.446Z</time>
      </trkpt>
      <trkpt lat="47.537896" lon="7.975317">
        <ele>332.359762</ele>
        <time>2021-11-22T16:18:44.120Z</time>
      </trkpt>
      <trkpt lat="47.538106" lon="7.974772">
        <ele>331.385198</ele>
        <time>2021-11-22T16:18:48.782Z</time>
      </trkpt>
      <trkpt lat="47.538490" lon="7.973699">
        <ele>329.665620</ele>
        <time>2021-11-22T16:18:57.762Z</time>
      </trkpt>
      <trkpt lat="47.538687" lon="7.972850">
        <ele>328.394467</ele>
        <time>2021-11-22T16:19:04.345Z</time>
      </trkpt>
      <trkpt lat="47.538858" lon="7.971696">
        <ele>326.562877</ele>
        <time>2021-11-22T16:19:13.014Z</time>
      </trkpt>
      <trkpt lat="47.538935" lon="7.971210">
        <ele>325.779837</ele>
        <time>2021-11-22T16:19:16.645Z</time>
      </trkpt>
      <trkpt lat="47.539052" lon="7.970439">
        <ele>324.540291</ele>
        <time>2021-11-22T16:19:22.272Z</time>
      </trkpt>
      <trkpt lat="47.539144" lon="7.969781">
        <ele>323.532437</ele>
        <time>2021-11-22T16:19:27.066Z</time>
      </trkpt>
      <trkpt lat="47.539248" lon="7.969246">
        <ele>322.735472</ele>
        <time>2021-11-22T16:19:31.078Z</time>
      </trkpt>
      <trkpt lat="47.539403" lon="7.968640">
        <ele>321.807815</ele>
        <time>2021-11-22T16:19:35.812Z</time>
      </trkpt>
      <trkpt lat="47.539680" lon="7.967625">
        <ele>320.240629</ele>
        <time>2021-11-22T16:19:44.028Z</time>
      </trkpt>
      <trkpt lat="47.539909" lon="7.966784">
        <ele>319.299898</ele>
        <time>2021-11-22T16:19:50.883Z</time>
      </trkpt>
      <trkpt lat="47.540100" lon="7.966046">
        <ele>318.489885</ele>
        <time>2021-11-22T16:19:57.158Z</time>
      </trkpt>
      <trkpt lat="47.540200" lon="7.965632">
        <ele>318.039259</ele>
        <time>2021-11-22T16:20:00.675Z</time>
      </trkpt>
      <trkpt lat="47.540257" lon="7.965417">
        <ele>317.802536</ele>
        <time>2021-11-22T16:20:02.413Z</time>
      </trkpt>
      <trkpt lat="47.540467" lon="7.964759">
        <ele>317.042160</ele>
        <time>2021-11-22T16:20:08.155Z</time>
      </trkpt>
      <trkpt lat="47.540959" lon="7.963916">
        <ele>315.860149</ele>
        <time>2021-11-22T16:20:16.810Z</time>
      </trkpt>
      <trkpt lat="47.541019" lon="7.963815">
        <ele>315.717444</ele>
        <time>2021-11-22T16:20:17.761Z</time>
      </trkpt>
      <trkpt lat="47.541123" lon="7.963520">
        <ele>315.364440</ele>
        <time>2021-11-22T16:20:20.359Z</time>
      </trkpt>
      <trkpt lat="47.541217" lon="7.963187">
        <ele>314.981594</ele>
        <time>2021-11-22T16:20:23.116Z</time>
      </trkpt>
      <trkpt lat="47.541258" lon="7.962975">
        <ele>314.747682</ele>
        <time>2021-11-22T16:20:24.950Z</time>
      </trkpt>
      <trkpt lat="47.541293" lon="7.962730">
        <ele>314.398122</ele>
        <time>2021-11-22T16:20:26.794Z</time>
      </trkpt>
      <trkpt lat="47.541308" lon="7.962513">
        <ele>314.046795</ele>
        <time>2021-11-22T16:20:28.554Z</time>
      </trkpt>
      <trkpt lat="47.541314" lon="7.962377">
        <ele>313.827287</ele>
        <time>2021-11-22T16:20:29.622Z</time>
      </trkpt>
      <trkpt lat="47.541316" lon="7.962197">
        <ele>313.537340</ele>
        <time>2021-11-22T16:20:30.926Z</time>
      </trkpt>
      <trkpt lat="47.541242" lon="7.961294">
        <ele>312.072292</ele>
        <time>2021-11-22T16:20:37.572Z</time>
      </trkpt>
      <trkpt lat="47.541153" lon="7.960814">
        <ele>311.270572</ele>
        <time>2021-11-22T16:20:41.102Z</time>
      </trkpt>
      <trkpt lat="47.541060" lon="7.960321">
        <ele>310.446125</ele>
        <time>2021-11-22T16:20:44.692Z</time>
      </trkpt>
      <trkpt lat="47.541027" lon="7.959944">
        <ele>309.571096</ele>
        <time>2021-11-22T16:20:47.195Z</time>
      </trkpt>
      <trkpt lat="47.541019" lon="7.959792">
        <ele>309.201178</ele>
        <time>2021-11-22T16:20:48.240Z</time>
      </trkpt>
      <trkpt lat="47.541012" lon="7.959578">
        <ele>308.681339</ele>
        <time>2021-11-22T16:20:49.714Z</time>
      </trkpt>
      <trkpt lat="47.541016" lon="7.959388">
        <ele>308.220116</ele>
        <time>2021-11-22T16:20:50.917Z</time>
      </trkpt>
      <trkpt lat="47.541081" lon="7.958828">
        <ele>306.841446</ele>
        <time>2021-11-22T16:20:54.686Z</time>
      </trkpt>
      <trkpt lat="47.541226" lon="7.958150">
        <ele>305.115834</ele>
        <time>2021-11-22T16:20:59.446Z</time>
      </trkpt>
      <trkpt lat="47.541305" lon="7.957787">
        <ele>304.190450</ele>
        <time>2021-11-22T16:21:01.930Z</time>
      </trkpt>
      <trkpt lat="47.541355" lon="7.957559">
        <ele>303.734597</ele>
        <time>2021-11-22T16:21:03.632Z</time>
      </trkpt>
      <trkpt lat="47.541450" lon="7.956897">
        <ele>302.832485</ele>
        <time>2021-11-22T16:21:08.266Z</time>
      </trkpt>
      <trkpt lat="47.541464" lon="7.956698">
        <ele>302.565797</ele>
        <time>2021-11-22T16:21:09.672Z</time>
      </trkpt>
      <trkpt lat="47.541533" lon="7.955526">
        <ele>300.997685</ele>
        <time>2021-11-22T16:21:18.506Z</time>
      </trkpt>
      <trkpt lat="47.541554" lon="7.955311">
        <ele>300.708124</ele>
        <time>2021-11-22T16:21:20.544Z</time>
      </trkpt>
      <trkpt lat="47.541735" lon="7.953892">
        <ele>300.393228</ele>
        <time>2021-11-22T16:21:34.752Z</time>
      </trkpt>
      <trkpt lat="47.541773" lon="7.953695">
        <ele>300.403206</ele>
        <time>2021-11-22T16:21:37.000Z</time>
      </trkpt>
      <trkpt lat="47.541791" lon="7.953601">
        <ele>300.407964</ele>
        <time>2021-11-22T16:21:38.035Z</time>
      </trkpt>
      <trkpt lat="47.541991" lon="7.952667">
        <ele>300.455681</ele>
        <time>2021-11-22T16:21:48.891Z</time>
      </trkpt>
      <trkpt lat="47.542169" lon="7.951815">
        <ele>300.564880</ele>
        <time>2021-11-22T16:21:58.628Z</time>
      </trkpt>
      <trkpt lat="47.542192" lon="7.951713">
        <ele>300.580592</ele>
        <time>2021-11-22T16:21:59.891Z</time>
      </trkpt>
      <trkpt lat="47.542357" lon="7.951037">
        <ele>300.685617</ele>
        <time>2021-11-22T16:22:07.384Z</time>
      </trkpt>
      <trkpt lat="47.542444" lon="7.950687">
        <ele>300.740110</ele>
        <time>2021-11-22T16:22:11.206Z</time>
      </trkpt>
      <trkpt lat="47.542546" lon="7.950274">
        <ele>300.804363</ele>
        <time>2021-11-22T16:22:15.550Z</time>
      </trkpt>
      <trkpt lat="47.542554" lon="7.950231">
        <ele>300.810880</ele>
        <time>2021-11-22T16:22:16.035Z</time>
      </trkpt>
      <trkpt lat="47.542560" lon="7.950202">
        <ele>300.815311</ele>
        <time>2021-11-22T16:22:16.370Z</time>
      </trkpt>
      <trkpt lat="47.542609" lon="7.949914">
        <ele>300.867581</ele>
        <time>2021-11-22T16:22:19.378Z</time>
      </trkpt>
      <trkpt lat="47.542719" lon="7.949175">
        <ele>301.286902</ele>
        <time>2021-11-22T16:22:27.270Z</time>
      </trkpt>
      <trkpt lat="47.542736" lon="7.949036">
        <ele>301.365176</ele>
        <time>2021-11-22T16:22:28.930Z</time>
      </trkpt>
      <trkpt lat="47.542826" lon="7.948298">
        <ele>301.780724</ele>
        <time>2021-11-22T16:22:38.220Z</time>
      </trkpt>
      <trkpt lat="47.542838" lon="7.948225">
        <ele>301.822355</ele>
        <time>2021-11-22T16:22:39.045Z</time>
      </trkpt>
      <trkpt lat="47.542875" lon="7.948001">
        <ele>301.950136</ele>
        <time>2021-11-22T16:22:41.947Z</time>
      </trkpt>
      <trkpt lat="47.542928" lon="7.947798">
        <ele>302.070739</ele>
        <time>2021-11-22T16:22:44.855Z</time>
      </trkpt>
      <trkpt lat="47.542957" lon="7.947651">
        <ele>302.155599</ele>
        <time>2021-11-22T16:22:46.556Z</time>
      </trkpt>
      <trkpt lat="47.543050" lon="7.947411">
        <ele>302.308937</ele>
        <time>2021-11-22T16:22:50.936Z</time>
      </trkpt>
      <trkpt lat="47.543087" lon="7.947317">
        <ele>302.419283</ele>
        <time>2021-11-22T16:22:52.228Z</time>
      </trkpt>
      <trkpt lat="47.543092" lon="7.947257">
        <ele>302.497738</ele>
        <time>2021-11-22T16:22:53.042Z</time>
      </trkpt>
      <trkpt lat="47.543097" lon="7.947186">
        <ele>302.590378</ele>
        <time>2021-11-22T16:22:53.921Z</time>
      </trkpt>
      <trkpt lat="47.543086" lon="7.947052">
        <ele>302.765557</ele>
        <time>2021-11-22T16:22:55.824Z</time>
      </trkpt>
      <trkpt lat="47.543056" lon="7.946935">
        <ele>302.927978</ele>
        <time>2021-11-22T16:22:58.250Z</time>
      </trkpt>
      <trkpt lat="47.543045" lon="7.946881">
        <ele>303.001178</ele>
        <time>2021-11-22T16:22:59.361Z</time>
      </trkpt>
      <trkpt lat="47.542982" lon="7.946547">
        <ele>303.451229</ele>
        <time>2021-11-22T16:23:04.005Z</time>
      </trkpt>
      <trkpt lat="47.542974" lon="7.946495">
        <ele>303.520443</ele>
        <time>2021-11-22T16:23:05.228Z</time>
      </trkpt>
      <trkpt lat="47.542960" lon="7.946400">
        <ele>303.646632</ele>
        <time>2021-11-22T16:23:07.083Z</time>
      </trkpt>
      <trkpt lat="47.542916" lon="7.945730">
        <ele>304.520229</ele>
        <time>2021-11-22T16:23:17.625Z</time>
      </trkpt>
      <trkpt lat="47.542913" lon="7.945267">
        <ele>305.121115</ele>
        <time>2021-11-22T16:23:25.111Z</time>
      </trkpt>
      <trkpt lat="47.542944" lon="7.944804">
        <ele>305.724922</ele>
        <time>2021-11-22T16:23:32.597Z</time>
      </trkpt>
      <trkpt lat="47.543007" lon="7.943867">
        <ele>306.179349</ele>
        <time>2021-11-22T16:23:45.915Z</time>
      </trkpt>
      <trkpt lat="47.543161" lon="7.942213">
        <ele>306.908802</ele>
        <time>2021-11-22T16:24:04.265Z</time>
      </trkpt>
      <trkpt lat="47.543353" lon="7.941128">
        <ele>306.092838</ele>
        <time>2021-11-22T16:24:13.467Z</time>
      </trkpt>
      <trkpt lat="47.543435" lon="7.940670">
        <ele>305.692230</ele>
        <time>2021-11-22T16:24:17.181Z</time>
      </trkpt>
      <trkpt lat="47.543611" lon="7.940113">
        <ele>305.172274</ele>
        <time>2021-11-22T16:24:21.910Z</time>
      </trkpt>
      <trkpt lat="47.543826" lon="7.939433">
        <ele>304.462107</ele>
        <time>2021-11-22T16:24:27.578Z</time>
      </trkpt>
      <trkpt lat="47.544472" lon="7.937932">
        <ele>302.264736</ele>
        <time>2021-11-22T16:24:40.865Z</time>
      </trkpt>
      <trkpt lat="47.544705" lon="7.937395">
        <ele>301.476746</ele>
        <time>2021-11-22T16:24:45.711Z</time>
      </trkpt>
      <trkpt lat="47.544903" lon="7.936917">
        <ele>300.880336</ele>
        <time>2021-11-22T16:24:49.974Z</time>
      </trkpt>
      <trkpt lat="47.545074" lon="7.936484">
        <ele>300.355688</ele>
        <time>2021-11-22T16:24:53.815Z</time>
      </trkpt>
      <trkpt lat="47.545457" lon="7.935110">
        <ele>298.801033</ele>
        <time>2021-11-22T16:25:05.191Z</time>
      </trkpt>
      <trkpt lat="47.545584" lon="7.934238">
        <ele>298.621285</ele>
        <time>2021-11-22T16:25:12.558Z</time>
      </trkpt>
      <trkpt lat="47.545674" lon="7.933625">
        <ele>298.617784</ele>
        <time>2021-11-22T16:25:18.369Z</time>
      </trkpt>
      <trkpt lat="47.545702" lon="7.933290">
        <ele>298.615900</ele>
        <time>2021-11-22T16:25:21.956Z</time>
      </trkpt>
      <trkpt lat="47.545724" lon="7.932758">
        <ele>298.612925</ele>
        <time>2021-11-22T16:25:28.223Z</time>
      </trkpt>
      <trkpt lat="47.545721" lon="7.931992">
        <ele>299.029264</ele>
        <time>2021-11-22T16:25:38.224Z</time>
      </trkpt>
      <trkpt lat="47.545696" lon="7.931497">
        <ele>299.672265</ele>
        <time>2021-11-22T16:25:45.386Z</time>
      </trkpt>
      <trkpt lat="47.545661" lon="7.930955">
        <ele>300.377562</ele>
        <time>2021-11-22T16:25:54.081Z</time>
      </trkpt>
      <trkpt lat="47.545563" lon="7.929641">
        <ele>302.059849</ele>
        <time>2021-11-22T16:26:16.421Z</time>
      </trkpt>
      <trkpt lat="47.545475" lon="7.928419">
        <ele>301.927558</ele>
        <time>2021-11-22T16:26:32.724Z</time>
      </trkpt>
      <trkpt lat="47.545421" lon="7.927686">
        <ele>301.848184</ele>
        <time>2021-11-22T16:26:38.827Z</time>
      </trkpt>
      <trkpt lat="47.545406" lon="7.927306">
        <ele>301.807208</ele>
        <time>2021-11-22T16:26:41.731Z</time>
      </trkpt>
      <trkpt lat="47.545407" lon="7.927001">
        <ele>301.754233</ele>
        <time>2021-11-22T16:26:44.018Z</time>
      </trkpt>
      <trkpt lat="47.545409" lon="7.926773">
        <ele>301.209103</ele>
        <time>2021-11-22T16:26:45.647Z</time>
      </trkpt>
      <trkpt lat="47.545417" lon="7.925848">
        <ele>298.997508</ele>
        <time>2021-11-22T16:26:51.982Z</time>
      </trkpt>
      <trkpt lat="47.545446" lon="7.925350">
        <ele>297.802509</ele>
        <time>2021-11-22T16:26:55.274Z</time>
      </trkpt>
      <trkpt lat="47.545466" lon="7.924880">
        <ele>296.676642</ele>
        <time>2021-11-22T16:26:58.327Z</time>
      </trkpt>
      <trkpt lat="47.545481" lon="7.924396">
        <ele>295.518317</ele>
        <time>2021-11-22T16:27:01.411Z</time>
      </trkpt>
      <trkpt lat="47.545521" lon="7.923709">
        <ele>294.308853</ele>
        <time>2021-11-22T16:27:05.947Z</time>
      </trkpt>
      <trkpt lat="47.545536" lon="7.923407">
        <ele>293.791957</ele>
        <time>2021-11-22T16:27:08.316Z</time>
      </trkpt>
      <trkpt lat="47.545553" lon="7.923142">
        <ele>293.337574</ele>
        <time>2021-11-22T16:27:10.042Z</time>
      </trkpt>
      <trkpt lat="47.545587" lon="7.922895">
        <ele>292.907278</ele>
        <time>2021-11-22T16:27:12.402Z</time>
      </trkpt>
      <trkpt lat="47.545641" lon="7.922610">
        <ele>292.401992</ele>
        <time>2021-11-22T16:27:14.406Z</time>
      </trkpt>
      <trkpt lat="47.545690" lon="7.922369">
        <ele>291.972359</ele>
        <time>2021-11-22T16:27:17.046Z</time>
      </trkpt>
      <trkpt lat="47.545699" lon="7.922325">
        <ele>291.893880</ele>
        <time>2021-11-22T16:27:17.307Z</time>
      </trkpt>
      <trkpt lat="47.545714" lon="7.922249">
        <ele>291.758720</ele>
        <time>2021-11-22T16:27:17.900Z</time>
      </trkpt>
      <trkpt lat="47.545778" lon="7.921947">
        <ele>291.218411</ele>
        <time>2021-11-22T16:27:21.071Z</time>
      </trkpt>
      <trkpt lat="47.545810" lon="7.921755">
        <ele>290.880833</ele>
        <time>2021-11-22T16:27:22.423Z</time>
      </trkpt>
      <trkpt lat="47.545818" lon="7.921679">
        <ele>290.831727</ele>
        <time>2021-11-22T16:27:23.145Z</time>
      </trkpt>
      <trkpt lat="47.545881" lon="7.921096">
        <ele>290.598311</ele>
        <time>2021-11-22T16:27:27.835Z</time>
      </trkpt>
      <trkpt lat="47.545913" lon="7.920765">
        <ele>290.466119</ele>
        <time>2021-11-22T16:27:30.673Z</time>
      </trkpt>
      <trkpt lat="47.545973" lon="7.920313">
        <ele>290.284005</ele>
        <time>2021-11-22T16:27:35.860Z</time>
      </trkpt>
      <trkpt lat="47.546128" lon="7.919617">
        <ele>289.994262</ele>
        <time>2021-11-22T16:27:42.396Z</time>
      </trkpt>
      <trkpt lat="47.546262" lon="7.919081">
        <ele>289.773436</ele>
        <time>2021-11-22T16:27:48.321Z</time>
      </trkpt>
      <trkpt lat="47.546707" lon="7.917319">
        <ele>289.139646</ele>
        <time>2021-11-22T16:28:05.085Z</time>
      </trkpt>
      <trkpt lat="47.546821" lon="7.916867">
        <ele>288.977089</ele>
        <time>2021-11-22T16:28:09.107Z</time>
      </trkpt>
      <trkpt lat="47.547032" lon="7.916218">
        <ele>288.851031</ele>
        <time>2021-11-22T16:28:15.590Z</time>
      </trkpt>
      <trkpt lat="47.547091" lon="7.916039">
        <ele>288.829704</ele>
        <time>2021-11-22T16:28:17.400Z</time>
      </trkpt>
      <trkpt lat="47.547113" lon="7.915971">
        <ele>288.821631</ele>
        <time>2021-11-22T16:28:17.997Z</time>
      </trkpt>
      <trkpt lat="47.547423" lon="7.915080">
        <ele>288.714316</ele>
        <time>2021-11-22T16:28:27.566Z</time>
      </trkpt>
      <trkpt lat="47.547994" lon="7.913433">
        <ele>289.102512</ele>
        <time>2021-11-22T16:28:47.269Z</time>
      </trkpt>
      <trkpt lat="47.548027" lon="7.913334">
        <ele>289.157355</ele>
        <time>2021-11-22T16:28:48.628Z</time>
      </trkpt>
      <trkpt lat="47.548412" lon="7.912168">
        <ele>289.802099</ele>
        <time>2021-11-22T16:29:05.031Z</time>
      </trkpt>
      <trkpt lat="47.549012" lon="7.910340">
        <ele>291.310114</ele>
        <time>2021-11-22T16:29:31.954Z</time>
      </trkpt>
      <trkpt lat="47.549102" lon="7.910058">
        <ele>291.554008</ele>
        <time>2021-11-22T16:29:36.056Z</time>
      </trkpt>
      <trkpt lat="47.549195" lon="7.909756">
        <ele>291.813547</ele>
        <time>2021-11-22T16:29:40.393Z</time>
      </trkpt>
      <trkpt lat="47.549331" lon="7.909303">
        <ele>292.305670</ele>
        <time>2021-11-22T16:29:46.804Z</time>
      </trkpt>
      <trkpt lat="47.549378" lon="7.909149">
        <ele>292.517179</ele>
        <time>2021-11-22T16:29:48.991Z</time>
      </trkpt>
      <trkpt lat="47.549520" lon="7.908678">
        <ele>293.162739</ele>
        <time>2021-11-22T16:29:55.657Z</time>
      </trkpt>
      <trkpt lat="47.549539" lon="7.908625">
        <ele>293.237841</ele>
        <time>2021-11-22T16:29:56.389Z</time>
      </trkpt>
      <trkpt lat="47.550497" lon="7.905558">
        <ele>298.650079</ele>
        <time>2021-11-22T16:30:51.328Z</time>
      </trkpt>
      <trkpt lat="47.550283" lon="7.905413">
        <ele>299.331594</ele>
        <time>2021-11-22T16:30:59.494Z</time>
      </trkpt>
      <trkpt lat="47.550067" lon="7.905245">
        <ele>300.038124</ele>
        <time>2021-11-22T16:31:08.180Z</time>
      </trkpt>
      <trkpt lat="47.549867" lon="7.905155">
        <ele>300.666576</ele>
        <time>2021-11-22T16:31:15.809Z</time>
      </trkpt>
      <trkpt lat="47.549868" lon="7.905010">
        <ele>301.040701</ele>
        <time>2021-11-22T16:31:19.214Z</time>
      </trkpt>
      <trkpt lat="47.550025" lon="7.904774">
        <ele>301.895638</ele>
        <time>2021-11-22T16:31:27.366Z</time>
      </trkpt>
      <trkpt lat="47.550302" lon="7.904164">
        <ele>303.792493</ele>
        <time>2021-11-22T16:31:45.665Z</time>
      </trkpt>
      <trkpt lat="47.550498" lon="7.903445">
        <ele>305.793110</ele>
        <time>2021-11-22T16:32:05.236Z</time>
      </trkpt>
      <trkpt lat="47.550688" lon="7.902451">
        <ele>308.463988</ele>
        <time>2021-11-22T16:32:27.785Z</time>
      </trkpt>
      <trkpt lat="47.550757" lon="7.901591">
        <ele>310.710541</ele>
        <time>2021-11-22T16:32:47.213Z</time>
      </trkpt>
      <trkpt lat="47.550769" lon="7.901362">
        <ele>311.306355</ele>
        <time>2021-11-22T16:32:52.957Z</time>
      </trkpt>
      <trkpt lat="47.550801" lon="7.900244">
        <ele>314.209058</ele>
        <time>2021-11-22T16:33:16.967Z</time>
      </trkpt>
      <trkpt lat="47.550813" lon="7.898866">
        <ele>317.859241</ele>
        <time>2021-11-22T16:33:47.988Z</time>
      </trkpt>
      <trkpt lat="47.550819" lon="7.898109">
        <ele>319.866247</ele>
        <time>2021-11-22T16:34:04.008Z</time>
      </trkpt>
      <trkpt lat="47.550648" lon="7.896481">
        <ele>322.659141</ele>
        <time>2021-11-22T16:34:32.267Z</time>
      </trkpt>
      <trkpt lat="47.550639" lon="7.896345">
        <ele>322.818342</ele>
        <time>2021-11-22T16:34:34.731Z</time>
      </trkpt>
      <trkpt lat="47.550660" lon="7.896255">
        <ele>322.929282</ele>
        <time>2021-11-22T16:34:35.562Z</time>
      </trkpt>
      <trkpt lat="47.550838" lon="7.895509">
        <ele>323.851088</ele>
        <time>2021-11-22T16:34:45.894Z</time>
      </trkpt>
      <trkpt lat="47.550878" lon="7.895158">
        <ele>324.265792</ele>
        <time>2021-11-22T16:34:49.956Z</time>
      </trkpt>
      <trkpt lat="47.550908" lon="7.894308">
        <ele>325.411847</ele>
        <time>2021-11-22T16:35:00.428Z</time>
      </trkpt>
      <trkpt lat="47.550892" lon="7.893176">
        <ele>327.010629</ele>
        <time>2021-11-22T16:35:15.146Z</time>
      </trkpt>
      <trkpt lat="47.550904" lon="7.891725">
        <ele>330.335057</ele>
        <time>2021-11-22T16:35:44.908Z</time>
      </trkpt>
      <trkpt lat="47.550915" lon="7.890600">
        <ele>334.563327</ele>
        <time>2021-11-22T16:36:13.748Z</time>
      </trkpt>
      <trkpt lat="47.550833" lon="7.889069">
        <ele>340.539973</ele>
        <time>2021-11-22T16:36:56.381Z</time>
      </trkpt>
      <trkpt lat="47.550831" lon="7.888611">
        <ele>342.435149</ele>
        <time>2021-11-22T16:37:08.952Z</time>
      </trkpt>
      <trkpt lat="47.550789" lon="7.887816">
        <ele>345.734805</ele>
        <time>2021-11-22T16:37:29.582Z</time>
      </trkpt>
      <trkpt lat="47.550758" lon="7.887295">
        <ele>347.898990</ele>
        <time>2021-11-22T16:37:43.402Z</time>
      </trkpt>
      <trkpt lat="47.550677" lon="7.886476">
        <ele>351.011118</ele>
        <time>2021-11-22T16:38:04.885Z</time>
      </trkpt>
      <trkpt lat="47.550616" lon="7.886158">
        <ele>352.163947</ele>
        <time>2021-11-22T16:38:13.091Z</time>
      </trkpt>
      <trkpt lat="47.550548" lon="7.885799">
        <ele>353.464199</ele>
        <time>2021-11-22T16:38:22.089Z</time>
      </trkpt>
      <trkpt lat="47.550391" lon="7.885109">
        <ele>356.003388</ele>
        <time>2021-11-22T16:38:39.736Z</time>
      </trkpt>
      <trkpt lat="47.550332" lon="7.884727">
        <ele>357.369918</ele>
        <time>2021-11-22T16:38:48.421Z</time>
      </trkpt>
      <trkpt lat="47.550234" lon="7.883221">
        <ele>361.480688</ele>
        <time>2021-11-22T16:39:21.236Z</time>
      </trkpt>
      <trkpt lat="47.549927" lon="7.881490">
        <ele>365.986525</ele>
        <time>2021-11-22T16:39:53.500Z</time>
      </trkpt>
      <trkpt lat="47.549726" lon="7.880786">
        <ele>368.083526</ele>
        <time>2021-11-22T16:40:09.476Z</time>
      </trkpt>
      <trkpt lat="47.549327" lon="7.879547">
        <ele>371.849613</ele>
        <time>2021-11-22T16:40:39.260Z</time>
      </trkpt>
      <trkpt lat="47.549318" lon="7.879398">
        <ele>372.260009</ele>
        <time>2021-11-22T16:40:42.449Z</time>
      </trkpt>
      <trkpt lat="47.549140" lon="7.879391">
        <ele>372.890397</ele>
        <time>2021-11-22T16:40:49.319Z</time>
      </trkpt>
      <trkpt lat="47.548718" lon="7.879258">
        <ele>374.278335</ele>
        <time>2021-11-22T16:41:02.990Z</time>
      </trkpt>
      <trkpt lat="47.548422" lon="7.878959">
        <ele>375.430823</ele>
        <time>2021-11-22T16:41:13.636Z</time>
      </trkpt>
      <trkpt lat="47.548234" lon="7.878638">
        <ele>376.353637</ele>
        <time>2021-11-22T16:41:22.068Z</time>
      </trkpt>
      <trkpt lat="47.547992" lon="7.877974">
        <ele>377.992177</ele>
        <time>2021-11-22T16:41:35.166Z</time>
      </trkpt>
      <trkpt lat="47.547574" lon="7.876801">
        <ele>377.273271</ele>
        <time>2021-11-22T16:41:48.929Z</time>
      </trkpt>
      <trkpt lat="47.547126" lon="7.875801">
        <ele>376.201244</ele>
        <time>2021-11-22T16:41:57.712Z</time>
      </trkpt>
      <trkpt lat="47.546309" lon="7.874154">
        <ele>369.779211</ele>
        <time>2021-11-22T16:42:10.900Z</time>
      </trkpt>
      <trkpt lat="47.546135" lon="7.873859">
        <ele>368.402571</ele>
        <time>2021-11-22T16:42:13.282Z</time>
      </trkpt>
      <trkpt lat="47.546077" lon="7.873763">
        <ele>367.949832</ele>
        <time>2021-11-22T16:42:14.093Z</time>
      </trkpt>
      <trkpt lat="47.545934" lon="7.873549">
        <ele>366.891669</ele>
        <time>2021-11-22T16:42:15.898Z</time>
      </trkpt>
      <trkpt lat="47.545746" lon="7.873302">
        <ele>365.286695</ele>
        <time>2021-11-22T16:42:18.186Z</time>
      </trkpt>
      <trkpt lat="47.545515" lon="7.873015">
        <ele>363.248969</ele>
        <time>2021-11-22T16:42:20.892Z</time>
      </trkpt>
      <trkpt lat="47.545478" lon="7.872968">
        <ele>362.919540</ele>
        <time>2021-11-22T16:42:21.336Z</time>
      </trkpt>
      <trkpt lat="47.545375" lon="7.872836">
        <ele>361.999019</ele>
        <time>2021-11-22T16:42:22.534Z</time>
      </trkpt>
      <trkpt lat="47.545131" lon="7.872664">
        <ele>360.172629</ele>
        <time>2021-11-22T16:42:25.014Z</time>
      </trkpt>
      <trkpt lat="47.544883" lon="7.872555">
        <ele>358.424169</ele>
        <time>2021-11-22T16:42:27.364Z</time>
      </trkpt>
      <trkpt lat="47.544390" lon="7.872423">
        <ele>355.037970</ele>
        <time>2021-11-22T16:42:31.807Z</time>
      </trkpt>
      <trkpt lat="47.543454" lon="7.872258">
        <ele>349.615600</ele>
        <time>2021-11-22T16:42:40.460Z</time>
      </trkpt>
      <trkpt lat="47.543332" lon="7.872237">
        <ele>348.922315</ele>
        <time>2021-11-22T16:42:41.569Z</time>
      </trkpt>
      <trkpt lat="47.543251" lon="7.872152">
        <ele>348.362004</ele>
        <time>2021-11-22T16:42:42.538Z</time>
      </trkpt>
      <trkpt lat="47.543233" lon="7.872082">
        <ele>348.076582</ele>
        <time>2021-11-22T16:42:42.961Z</time>
      </trkpt>
      <trkpt lat="47.543013" lon="7.872182">
        <ele>346.777606</ele>
        <time>2021-11-22T16:42:45.161Z</time>
      </trkpt>
      <trkpt lat="47.542919" lon="7.872226">
        <ele>346.221148</ele>
        <time>2021-11-22T16:42:46.108Z</time>
      </trkpt>
      <trkpt lat="47.542814" lon="7.872280">
        <ele>345.593754</ele>
        <time>2021-11-22T16:42:47.182Z</time>
      </trkpt>
      <trkpt lat="47.542714" lon="7.872334">
        <ele>344.992952</ele>
        <time>2021-11-22T16:42:48.203Z</time>
      </trkpt>
      <trkpt lat="47.542537" lon="7.872430">
        <ele>344.268559</ele>
        <time>2021-11-22T16:42:49.947Z</time>
      </trkpt>
      <trkpt lat="47.542436" lon="7.872494">
        <ele>344.268559</ele>
        <time>2021-11-22T16:42:51.223Z</time>
      </trkpt>
      <trkpt lat="47.542394" lon="7.872341">
        <ele>344.268559</ele>
        <time>2021-11-22T16:42:52.263Z</time>
      </trkpt>
      <trkpt lat="47.542218" lon="7.871866">
        <ele>344.268559</ele>
        <time>2021-11-22T16:42:55.847Z</time>
      </trkpt>
      <trkpt lat="47.542091" lon="7.871721">
        <ele>344.268559</ele>
        <time>2021-11-22T16:42:57.368Z</time>
      </trkpt>
      <trkpt lat="47.542067" lon="7.871664">
        <ele>344.268559</ele>
        <time>2021-11-22T16:42:58.073Z</time>
      </trkpt>
      <trkpt lat="47.542039" lon="7.871556">
        <ele>344.268559</ele>
        <time>2021-11-22T16:42:58.937Z</time>
      </trkpt>
      <trkpt lat="47.541953" lon="7.871286">
        <ele>344.268559</ele>
        <time>2021-11-22T16:43:01.118Z</time>
      </trkpt>
      <trkpt lat="47.541869" lon="7.871156">
        <ele>344.268559</ele>
        <time>2021-11-22T16:43:02.695Z</time>
      </trkpt>
    </trkseg>
  </trk>
</gpx>